     2              OBSERVATION DATA    GPS                 RINEX VERSION / TYPE
teqc 2002Apr3 20041109 01:33:05UTC                          PGM / RUN BY / DATE
                                                            COMMENT
L2: 1 -> 1; 5 -> 5; 60 -> 9                                 COMMENT
L2: 1 -> 1; 5 -> 5; 60 -> 9                                 COMMENT
L2: 1 -> 1; 5 -> 5; 60 -> 9                                 COMMENT
L2: 1 -> 1; 5 -> 5; 60 -> 9                                 COMMENT
L2: 1 -> 1; 5 -> 5; 60 -> 9                                 COMMENT
Original Marker Name: 0990                                  COMMENT
Campaign Name: CSRC/Caltrans post-San Simeon                COMMENT
4-Character Station Name: J695                              COMMENT
6-Character Antenna Code: TRZEPH                            COMMENT
Vertical Measurement Point: BPA                             COMMENT
Vertical Offset to Rinex Ref. Point: 0.0000                 COMMENT
Radial Measurement Point: RRP                               COMMENT
Radial Offset to Rinex Ref. Point: 0.0000                   COMMENT
Antenna Height from Field Measurement: 2.0000 m             COMMENT
Original XYZ: -2704211.6497 -4398324.4305 3732154.9045      COMMENT
New XYZ position is based on association with SCEC monument COMMENT
E1F0V6O5+0011. Position of that monument is believed to be  COMMENT
valid to within 1 m horizontally; vertical accuracy         COMMENT
should be no worse than 3-times this value.                 COMMENT
                                                            COMMENT
Revised Rinex header created by UCSD GPS archive for        COMMENT
GSAC on 11-Feb-2005 (2005:042) 22:02:15 GMT                 COMMENT
For assistance contact dagnew@ucsd.edu                      COMMENT
or anderson@python.ucsd.edu                                 COMMENT
                                                            COMMENT
J695 RESET                                                  MARKER NAME
0990                                                        MARKER NUMBER
R. E. Brown CALIF DEPT TRANSPORTATION DISTRICT 5            OBSERVER / AGENCY
0440100990 TRIMBLE 5700 NP 2.01 / SP 0.00                   REC # / TYPE / VERS
12200511 TRM41249.00                                        ANT # / TYPE
 -2704210.0000 -4398321.0000  3732153.0000                  APPROX POSITION XYZ
        2.0000        0.0000        0.0000                  ANTENNA: DELTA H/E/N
     1     1     0                                          WAVELENGTH FACT L1/2
     7    C1    L1    L2    P1    P2    S1    S2            # / TYPES OF OBSERV
     0                                                      INTERVAL
  2004     6    30    15    44   45.000000                  TIME OF FIRST OBS
  2004     6    30    16    45   30.000000                  TIME OF LAST OBS
                                                            END OF HEADER
 04  6 30 15 44 45.0000000  0  9G 3G15G18G 6G21G26G29G16G22
  23583392.5314    -652680.79749   -506217.98846                  23583390.1354
        39.5004         25.0004
  21710932.2384    -438341.19949   -336104.30147                  21710930.4644
        47.2504         34.7504
  20249319.9664     140945.53949    103171.66848                  20249316.6784
        48.0004         41.0004
  22021356.8044    1128165.58249    861721.50847                  22021354.9254
        46.2504         33.5004
  20439068.2254     222084.26649    164694.64848                  20439064.8694
        51.0004         40.7504
  22416408.6754     640639.38749    488669.91447                  22416407.7914
        43.5004         30.2504
  23706468.6104     770930.32848
        34.2504
  23193120.2564     431739.32849    327942.23847                  23193117.1024
        41.7504         26.7504
  21326961.9204    -393989.92649   -302050.04347                  21326958.1574
        50.2504         38.7504
 04  6 30 15 45  0.0000000  0  9G 3G15G18G 6G21G26G29G16G22
  23576404.5034    -689402.41449   -534832.22347                  23576403.7754
        39.7504         26.2504
  21706779.7184    -460161.55949   -353107.17247                  21706778.3584
        45.5004         35.0004
  20250868.2304     149080.22349    109510.37548                  20250864.7884
        47.2504         41.0004
  22031681.7904    1182423.21549    904000.14847                  22031679.6694
        47.0004         32.5004
  20441289.5744     233758.70749    173791.61748                  20441286.3354
        50.5004         41.0004
  22423632.8604     678599.71149    518249.37947                  22423631.3274
        44.5004         30.0004
  23715065.7044     816109.09448
        35.0004
  23198017.6744     457476.53949    347997.18447                  23198014.9174
        41.5004         26.0004
  21323269.2924    -413394.18749   -317170.23047                  21323265.6444
        49.2504         39.0004
 04  6 30 15 45 15.0000000  0  9G 3G15G18G 6G21G26G29G16G22
  23569430.0844    -726057.35949   -563394.47746                  23569428.6264
        40.7504         25.5004
  21702635.0884    -481942.50449   -370079.32447                  21702633.6884
        47.0004         35.2504
  20252438.0044     157330.27349    115938.99248                  20252434.8494
        48.0004         41.7504
  22042023.4084    1236769.48449    946347.87547                  22042021.4034
        46.5004         33.5004
  20443524.6234     245502.91449    182942.95348                  20443521.4464
        50.2504         41.0004
  22430886.4364     716716.28949    547950.58647                  22430885.1784
        44.5004         30.5004
  23723684.1724     861398.97348
        34.7504
  23202938.9904     483337.71949    368148.74647                  23202936.2794
        42.0004         26.0004
  21319596.6294    -432695.57449   -332210.27047                  21319592.6014
        49.2504         39.0004
 04  6 30 15 45 30.0000000  0  9G 3G15G18G 6G21G26G29G16G22
  23562466.5004    -762649.89549   -591908.12946                  23562464.3554
        41.5004         25.5004
  21698497.1434    -503688.67249   -387024.39547                  21698495.6584
        46.2504         35.0004
  20254028.6624     165690.78549    122453.67648                  20254026.0284
        46.7504         41.0004
  22052381.4704    1291199.41049    988760.77747                  22052379.2904
        46.5004         32.7504
  20445772.0914     257312.73049    192145.40648                  20445768.6354
        49.5004         41.2504
  22438167.6164     754984.25049    577769.76647                  22438167.2854
        44.2504         30.5004
  23732323.2964     906795.02348
        34.7504
  23207882.4594     509317.93049    388393.05547                  23207879.5124
        40.7504         26.2504
  21315942.1494    -451898.75049   -347173.77347                  21315938.5784
        49.0004         39.2504
 04  6 30 15 45 45.0000000  0  9G 3G15G18G 6G21G26G29G16G22
  23555515.0664    -799179.07849   -620372.44946                  23555512.8154
        40.5004         22.2504
  21694365.5404    -525399.25849   -403941.73447                  21694364.3104
        47.7504         35.0004
  20255641.1344     174162.25049    129054.81648                  20255638.1454
        47.7504         41.2504
  22062755.0044    1345713.32049   1031239.12147                  22062753.0294
        46.7504         33.5004
  20448032.1124     269188.65649    201399.36348                  20448028.8994
        50.7504         41.5004
  22445479.3904     793403.86349    607707.12147                  22445478.2164
        46.0004         30.5004
  23740982.1204     952297.62948
        34.7504
  23212849.7594     535417.61349    408730.45347                  23212845.7844
        41.5004         26.5004
  21312307.0124    -471002.98849   -362060.18047                  21312303.0944
        49.2504         38.2504
 04  6 30 15 46  0.0000000  0  9G 3G15G18G 6G21G26G29G16G22
  23548575.8664    -835643.43449   -648786.21146                  23548575.2754
        39.5004         25.5004
  21690241.4304    -547072.89549   -420830.27047                  21690239.8764
        48.0004         34.7504
  20257274.2744     182746.03949    135743.48448                  20257271.4034
        47.0004         41.0004
  22073144.6474    1400312.43849   1073783.88347                  22073142.9734
        46.5004         32.5004
  20450305.1234     281132.17649    210706.00048                  20450301.6564
        50.0004         41.7504
  22452819.3324     831976.34449    637763.59047                  22452818.0354
        44.0004         31.0004
  23749661.1264     997907.81648
        34.7504
  23217839.3824     561637.92649    429161.84847                  23217836.3964
        42.0004         26.5004
  21308690.5354    -490006.87549   -376868.38747                  21308686.4374
        49.5004         38.5004
 04  6 30 15 46 15.0000000  0  9G 3G15G18G 6G21G26G29G16G22
  23541649.3794    -872041.49249   -677148.31646                  23541648.9484
        39.0004         25.0004
  21686124.5854    -568708.47349   -437689.16847                  21686122.6004
        47.0004         35.0004
  20258929.6054     191442.82049    142520.19148                  20258926.2134
        47.5004         41.0004
  22083550.7914    1454997.46549   1116395.57047                  22083549.4044
        46.5004         32.2504
  20452590.5104     293144.41849    220066.17248                  20452587.5894
        49.2504         41.5004
  22460188.7014     870702.37549    667939.69947                  22460187.5024
        44.0004         30.5004
  23758362.3634    1043626.41448
        35.5004
  23222851.2414     587979.45749    449687.67247                  23222849.6194
        40.7504         26.0004
  21305093.2364    -508909.36749   -391597.59447                  21305089.6214
        48.0004         38.5004
 04  6 30 15 46 30.0000000  0  9G 3G15G18G 6G21G26G29G16G22
  23534735.8214    -908372.30149   -705458.00446                  23534734.7514
        39.0004         23.5004
  21682014.8604    -590305.28549   -454517.84847                  21682013.6154
        46.2504         35.5004
  20260605.9704     200253.20349    149385.42648                  20260602.9374
        46.5004         41.0004
  22093973.5174    1509768.87549   1159074.57047                  22093972.5294
        45.7504         33.7504
  20454889.4424     305225.85249    229480.28148                  20454886.1474
        49.2504         41.7504
  22467586.9624     909582.39849    698235.82047                  22467585.6724
        42.0004         31.0004
  23767081.2364    1089453.68848
        33.0004
  23227887.8464     614442.78149    470308.43047                  23227885.7724
        42.2504         26.5004
  21301515.8874    -527709.83649   -406247.31647                  21301512.0344
        49.0004         39.2504
 04  6 30 15 46 45.0000000  0  9G 3G15G18G 6G21G26G29G16G22
  23527834.8884    -944636.39149   -733715.75446                  23527832.1134
        39.2504         22.7504
  21677912.2234    -611864.12149   -471316.93047                  21677910.2394
        47.0004         34.7504
  20262304.0504     209176.22749    156338.43848                  20262300.7784
        47.5004         41.0004
  22104412.3164    1564625.59449   1201820.05147                  22104411.6184
        46.5004         34.0004
  20457201.7984     317375.96149    238947.89548                  20457198.3624
        49.5004         41.0004
  22475014.2784     948615.24249    728651.01647                  22475013.5194
        43.5004         30.2504
  23775823.1814    1135388.54748
        33.5004
  23232946.2804     641026.75849    491023.19546                  23232944.7084
        40.0004         25.5004
  21297957.2074    -546408.97349   -420818.06247                  21297953.2014
        48.7504         38.5004
 04  6 30 15 47  0.0000000  0  9G 3G15G18G 6G21G26G29G16G22
  23520947.3734    -980832.85249   -761920.77346                  23520944.8244
        40.0004         22.5004
  21673816.9864    -633384.24249   -488085.84847                  21673815.3324
        46.0004         34.7504
  20264023.4204     218212.49649    163379.68848                  20264020.1594
        47.0004         41.2504
  22114868.1134    1619567.90249   1244632.20747                  22114867.5374
        46.2504         33.7504
  20459527.3374     329595.37549    248469.51648                  20459523.4534
        49.5004         40.7504
  22482471.6614     987801.39549    759185.66447                  22482470.4974
        43.2504         30.5004
  23784584.5634    1181431.31648
        33.7504
  23238028.3224     667731.82449    511832.31647                  23238026.5224
        41.0004         26.5004
  21294418.6434    -565006.22749   -435309.42247                  21294414.2614
        49.0004         38.2504
 04  6 30 15 47 15.0000000  0  9G 3G15G18G 6G21G26G29G16G22
  23514072.1904   -1016961.20349   -790072.73446                  23514070.9324
        39.5004         25.0004
  21669729.3624    -654865.43049   -504824.43747                  21669727.3694
        47.0004         34.7504
  20265764.5494     227361.99649    170509.16448                  20265761.2844
        46.5004         41.0004
  22125339.4874    1674595.71949   1287511.00847                  22125338.3374
        46.5004         33.7504
  20461865.4214     341884.15249    258045.19148                  20461861.4164
        48.0004         40.5004
  22489957.6994    1027140.57849    789839.56647                  22489956.5184
        44.0004         30.0004
  23793365.9264    1227582.01248
        32.5004
  23243133.1844     694557.77049    532735.63347                  23243131.4184
        40.5004         26.7504
  21290899.0784    -583501.35249   -449721.20347                  21290894.7034
        48.2504         39.0004
 04  6 30 15 47 30.0000000  0  9G 3G15G18G 6G21G26G29G16G22
  23507210.7364   -1053019.65649   -818170.20346                  23507208.9544
        41.0004         25.5004
  21665648.8114    -676306.16849   -521531.49247                  21665647.4964
        45.2504         35.0004
  20267527.6274     236626.23049    177728.04348                  20267524.1984
        46.0004         41.2504
  22135827.1664    1729710.24249   1330457.37147                  22135826.4004
        45.2504         34.0004
  20464217.6434     354243.81649    267676.09048                  20464213.8614
        50.0004         40.5004
  22497472.6444    1066634.08649    820613.73047                  22497472.1064
        42.5004         31.0004
  23802170.3604    1273841.60548
        33.5004
  23248260.9884     721505.80549    553734.08647                  23248259.1484
        43.0004         28.5004
  21287399.3324    -601892.77049   -464052.16847                  21287395.2134
        48.5004         38.5004
 04  6 30 15 47 45.0000000  0  9G 3G15G18G 6G21G26G29G16G22
  23500361.2854   -1089013.91049   -846217.69546                  23500359.0294
        41.7504         25.2504
  21661575.9344    -697712.24249   -538211.55547                  21661573.5804
        47.2504         35.5004
  20269310.9254     245998.91849    185031.43048                  20269307.6814
        46.5004         40.7504
  22146330.6304    1784905.37149   1373466.53547                  22146329.5774
        45.2504         34.0004
  20466581.8854     366668.73049    277357.84848                  20466578.2724
        50.0004         40.2504
  22505016.3634    1106275.70349    851503.28547                  22505015.1854
        43.0004         30.0004
  23810992.4774    1320203.94948
        33.2504
  23253411.0814     748569.78549    574822.89847                  23253409.4924
        40.2504         26.5004
  21283918.0594    -620186.43749   -478306.96547                  21283914.2124
        49.5004         38.5004
 04  6 30 15 48  0.0000000  0  9G 3G15G18G 6G21G26G29G16G22
  23493525.9694   -1124935.40249   -874208.46946                  23493524.4074
        41.5004         24.2504
  21657510.4574    -719075.34849   -554858.12547                  21657508.2334
        48.0004         35.5004
  20271116.7764     255488.20749    192425.67648                  20271113.0884
        47.0004         40.5004
  22156850.7464    1840189.05549   1416544.70347                  22156849.9944
        45.0004         33.5004
  20468960.1134     379167.01249    287096.76248                  20468956.6304
        49.0004         41.0004
  22512589.9024    1146073.38749    882514.45747                  22512588.7664
        44.0004         30.2504
  23819834.5334    1366677.21548
        33.0004
  23258584.8884     775757.68849    596008.27347                  23258582.4924
        41.2504         26.7504
  21280457.2084    -638374.07049   -492479.13347                  21280452.9184
        48.2504         39.0004
 04  6 30 15 48 15.0000000  0  9G 3G15G18G 6G21G26G29G16G22
  23486704.0004   -1160784.99249   -902143.19547                  23486703.3084
        41.0004         26.0004
  21653453.4254    -740396.63349   -571472.10247                  21653451.2104
        48.0004         35.5004
  20272944.3414     265092.89149    199909.84048                  20272941.3394
        47.7504         40.7504
  22167386.9654    1895559.80949   1459690.72747                  22167385.8474
        45.7504         33.0004
  20471352.3214     391737.64549    296892.05948                  20471348.7824
        50.0004         41.7504
  22520192.4254    1186025.64849    913646.07447                  22520191.7154
        43.2504         30.7504
  23828699.4044    1413259.62548
        31.0004
  23263781.6464     803068.00049    617289.00447                  23263779.4464
        42.5004         27.0004
  21277016.0084    -656456.84849   -506569.59447                  21277011.9914
        48.7504         39.0004
 04  6 30 15 48 30.0000000  0  9G 3G15G18G 6G21G26G29G16G22
  23479894.3664   -1196565.27049   -930023.92246                  23479894.1824
        41.0004         25.2504
  21649403.2674    -761678.81649   -588055.62547                  21649401.2824
        46.7504         35.5004
  20274793.5604     274809.81349    207481.46948                  20274790.2754
        47.5004         40.7504
  22177939.7564    1951014.67249   1502902.28147                  22177939.0654
        46.0004         33.2504
  20473757.7454     404378.14149    306741.79748                  20473753.9504
        50.0004         41.2504
  22527824.3614    1226129.47749    944895.78547                  22527823.3304
        44.5004         30.2504
  23837585.1434    1459948.13348
        31.2504
  23269001.5924     830497.69549    638662.77747                  23268998.9334
        41.7504         27.7504
  21273593.9974    -674437.53149   -520580.50447                  21273589.6914
        50.2504         39.0004
 04  6 30 15 48 45.0000000  0  9G 3G15G18G 6G21G26G29G16G22
  23473098.8504   -1232277.61349   -957851.69146                  23473098.1154
        39.0004         24.0004
  21645360.7854    -782923.44549   -604609.87147                  21645358.6584
        48.0004         35.2504
  20276663.7194     284637.32449    215139.26648                  20276660.7224
        47.2504         41.0004
  22188508.2784    2006551.62949   1546177.80947                  22188507.0034
        45.7504         32.7504
  20476175.6564     417086.64849    316644.53148                  20476172.7364
        49.0004         41.2504
  22535484.2564    1266382.75049    976261.97747                  22535483.2414
        44.2504         30.7504
  23846488.0534    1506740.79348
        31.0004
  23274243.4154     858044.84049    660128.05947                  23274240.9654
        41.2504         26.5004
  21270192.3024    -692317.84449   -534513.20347                  21270187.2684
        49.5004         38.5004
 04  6 30 15 49  0.0000000  0  9G 3G15G18G 6G21G26G29G16G22
  23466315.8824   -1267923.03949   -985627.34447                  23466314.4684
        39.2504         25.7504
  21641324.5744    -804132.03149   -621136.03147                  21641323.0664
        48.7504         35.5004
  20278554.4714     294573.70349    222881.89548                  20278551.1214
        47.2504         41.0004
  22199091.6984    2062168.94549   1589515.93847                  22199090.6374
        46.2504         32.2504
  20478606.6354     429861.68049    326599.09048                  20478603.9654
        47.0004         41.5004
  22543171.9964    1306783.86749   1007743.34847                  22543171.2964
        45.2504         31.0004
  23855413.0984    1553635.84048
        32.5004
  23279507.6544     885707.60549    681683.44147                  23279504.9754
        38.7504         26.0004
  21266808.0944    -710099.15649   -548368.76647                  21266803.6204
        48.0004         38.2504
 04  6 30 15 49 15.0000000  0  9G 3G15G18G 6G21G26G29G16G22
  23459545.4194   -1303502.25049  -1013351.40247                  23459544.0404
        41.0004         26.2504
  21637295.4734    -825305.38349   -637634.75047                  21637294.2274
        48.2504         35.7504
  20280465.9334     304617.89549    230708.53548                  20280462.5914
        47.2504         40.7504
  22209690.5654    2117865.37149   1632915.74247                  22209688.9444
        46.7504         32.0004
  20481050.2474     442702.08649    336604.58648                  20481047.3504
        49.2504         41.0004
  22550887.8564    1347331.46949   1039338.87547                  22550887.1264
        44.0004         30.2504
  23864355.4164    1600632.00448
        31.5004
  23284793.6244     913484.88349    703328.05147                  23284790.6294
        40.2504         25.7504
  21263443.2354    -727782.35949   -562147.87147                  21263439.0204
        49.5004         38.5004
 04  6 30 15 49 30.0000000  0  9G 3G15G18G 6G21G26G29G16G22
  23452787.6294   -1339013.96949  -1041022.84847                  23452786.5544
        41.0004         25.7504
  21633273.2124    -846442.37549   -654105.11747                  21633271.6314
        48.7504         35.2504
  20282397.9354     314770.93449    238619.99248                  20282395.0444
        47.0004         40.5004
  22220304.3084    2173641.86349   1676377.91047                  22220302.3654
        46.5004         31.7504
  20483506.3824     455609.58249    346662.36748                  20483503.9304
        48.5004         41.2504
  22558632.2524    1388026.51649   1071049.27347                  22558630.9894
        44.5004         29.0004
  23873317.7624    1647730.23848
        30.5004
  23290101.5104     941377.37549    725062.44947                  23290099.0684
        41.0004         27.0004
  21260096.9584    -745366.31249   -575849.64147                  21260092.4604
        48.5004         39.0004
 04  6 30 15 49 45.0000000  0  9G 3G15G18G 6G21G26G29G16G22
  23446042.0074   -1374463.33249  -1068645.73047                  23446040.4064
        41.5004         25.7504
  21629256.8104    -867548.39149   -670551.36347                  21629255.4384
        48.2504         35.5004
  20284349.4554     325027.22749    246611.91048                  20284346.3504
        48.0004         41.0004
  22230932.8334    2229492.73449   1719898.04747                  22230930.4344
        45.7504         31.5004
  20485974.5684     468578.64849    356768.12148                  20485971.4914
        50.2504         41.5004
  22566403.3274    1428863.13749   1102870.00447                  22566401.7654
        44.7504         29.7504
  23882298.5754    1694924.55948
        31.5004
  23295429.9924     969379.41449    746882.19547                  23295427.6334
        41.0004         27.5004
  21256768.7364    -762856.49249   -589478.34848                  21256764.7244
        49.5004         39.5004
 04  6 30 15 50  0.0000000  0  9G 3G15G18G 6G21G26G29G16G22
  23439308.6314   -1409848.34449  -1096218.46147                  23439306.5524
        42.7504         25.7504
  21625246.7124    -888621.72349   -686972.13747                  21625245.3094
        49.2504         35.7504
  20286320.9144     335388.23849    254685.41848                  20286318.3884
        47.7504         41.2504
  22241575.0324    2285419.20749   1763477.09847                  22241573.1524
        46.0004         32.0004
  20488454.3524     481610.62949    366922.92248                  20488451.1234
        49.0004         40.7504
  22574201.5754    1469842.69549   1134802.12547                  22574200.1844
        44.0004         29.5004
  23891298.8874    1742216.41848
        31.2504
  23300779.9794     997492.28949    768788.31647                  23300777.8274
        39.5004         27.2504
  21253458.8504    -780251.25449   -603032.69547                  21253455.1774
        48.0004         39.0004
 04  6 30 15 50 15.0000000  0  9G 3G15G18G 6G21G26G29G16G22
  23432587.5834   -1445167.82849  -1123740.16446                  23432585.1374
        41.0004         24.7504
  21621243.1264    -909661.31649   -703366.62147                  21621241.5564
        48.5004         36.2504
  20288312.8444     345854.66449    262841.07048                  20288309.7714
        48.5004         41.2504
  22252231.9434    2341422.03149   1807115.63347                  22252230.1324
        45.0004         33.5004
  20490946.7664     494706.76649    377127.69548                  20490943.3654
        49.5004         41.0004
  22582027.2584    1510965.92649   1166846.17647                  22582025.4894
        44.5004         30.2504
  23900316.1454    1789606.43458
        28.5004
  23306150.6444    1025716.85949    790781.45747                  23306149.0354
        41.7504         26.7504
  21250166.7114    -797549.55949   -616511.89148                  21250163.1304
        48.7504         39.5004
 04  6 30 15 50 30.0000000  0  9G 3G15G18G 6G21G26G29G16G22
  23425879.3124   -1480420.63349  -1151209.85547                  23425877.9244
        42.2504         26.0004
  21617245.5354    -930666.22349   -719734.08647                  21617244.3154
        47.5004         36.2504
  20290325.1554     356427.27349    271079.46948                  20290321.7174
        48.0004         41.5004
  22262903.8684    2397501.85949   1850814.16447                  22262902.4714
        44.7504         31.5004
  20493450.8664     507868.05949    387383.25048                  20493447.6144
        49.2504         41.2504
  22589879.5644    1552233.34449   1199002.59447                  22589878.6624
        44.2504         29.0004
  23909353.7584
        29.0004
  23311543.3594    1054053.61349    812862.00447                  23311540.5864
        41.0004         26.2504
  21246893.4534    -814750.62549   -629915.30948                  21246889.9914
        48.0004         39.5004
 04  6 30 15 50 45.0000000  0  9G 3G15G18G 6G21G26G29G16G22
  23419183.9164   -1515605.95749  -1178627.00047                  23419182.4194
        43.2504         26.5004
  21613255.3014    -951635.91449   -736074.09447                  21613254.4224
        47.5004         36.0004
  20292357.0224     367106.23449    279400.73048                  20292353.7994
        47.2504         40.5004
  22273589.8174    2453658.92249   1894572.88347                  22273588.7734
        44.5004         31.5004
  20495967.9784     521094.96949    397689.93048                  20495964.8014
        50.0004         41.5004
  22597759.7854    1593645.12549   1231271.50447                  22597759.1704
        44.0004         30.2504
  23918409.9784    1884682.94558
        29.0004
  23316956.5514    1082502.63749    835030.06346                  23316953.9214
        39.5004         25.5004
  21243639.1244    -831854.01649   -643242.62148                  21243635.2864
        49.5004         39.5004
 04  6 30 15 51  0.0000000  0  9G 3G15G18G 6G21G26G29G16G22
  23412500.7134   -1550723.14849  -1205991.04346                  23412499.5194
        43.2504         25.5004
  21609271.4684    -972569.99249   -752386.35547                  21609270.2894
        48.7504         35.7504
  20294409.5094     377891.78149    287805.05148                  20294406.2964
        47.7504         40.0004
  22284290.9144    2509893.02749   1938391.64847                  22284289.4254
        45.5004         31.7504
  20498497.7844     534387.80149    408047.96948                  20498494.4614
        50.7504         41.2504
  22605667.8514    1635201.32849   1263652.94947                  22605666.9344
        45.0004         30.2504
  23927484.5944    1932369.46148
        29.5004
  23322391.4424    1111064.10249    857285.72347                  23322389.1684
        39.0004         26.5004
  21240402.7944    -848859.31249   -656493.49648                  21240399.0844
        50.2504         39.5004
 04  6 30 15 51 15.0000000  0  9G 3G15G18G 6G21G26G29G16G22
  23405830.4994   -1585772.59449  -1233302.27346                  23405829.6284
        41.7504         25.2504
  21605294.6784    -993469.02049   -768671.30547                  21605293.1684
        48.0004         36.0004
  20296481.9734     388783.37149    296292.00048                  20296478.9624
        48.2504         40.5004
  22295006.6134    2566203.49249   1982269.91447                  22295004.8524
        44.5004         31.5004
  20501039.4204     547745.95749    418456.93048                  20501036.2114
        50.2504         41.0004
  22613603.5124    1676900.96949   1296146.15247                  22613601.7194
        44.5004         30.5004
  23936577.6774    1980154.05148
        29.0004
  23327847.6584    1139736.99649    879628.23847                  23327845.2984
        40.5004         26.5004
  21237185.6254    -865767.13349   -669668.41047                  21237181.8784
        50.0004         38.7504
 04  6 30 15 51 30.0000000  0  9G 3G15G18G 6G21G26G29G16G22
  23399174.1944   -1620754.09449  -1260560.56646                  23399173.0644
        42.2504         25.2504
  21601324.7744   -1014333.00449   -784928.94547                  21601323.0024
        48.7504         36.0004
  20298574.9844     399780.79749    304861.42648                  20298571.5884
        48.2504         40.5004
  22305736.9614    2622590.00449   2026207.44147                  22305734.8904
        44.0004         31.0004
  20503593.6984     561169.16849    428916.56348                  20503590.2964
        50.5004         40.7504
  22621565.8674    1718743.64849   1328750.82447                  22621564.1614
        44.2504         30.5004
  23945688.3324    2028036.25048
        28.5004
  23333326.2934    1168521.03949    902057.33246                  23333322.6044
        42.0004         25.5004
  21233986.6634    -882577.53149   -682767.41047                  21233983.0224
        49.2504         39.2504
 04  6 30 15 51 45.0000000  0  9G 3G15G18G 6G21G26G29G16G22
  23392531.2594   -1655666.24649  -1287764.82847                  23392529.9494
        43.0004         28.0004
  21597361.2074   -1035160.82849   -801158.41847                  21597359.4434
        48.5004         35.7504
  20300687.9094     410884.80549    313513.89848                  20300684.7764
        48.0004         40.5004
  22316481.6904    2679053.24649   2070204.75847                  22316479.5364
        45.0004         31.5004
  20506160.9584     574658.85249    439428.00048                  20506157.4564
        51.0004         41.0004
  22629555.1314    1760730.16449   1361467.57847                  22629554.1374
        44.2504         29.7504
  23954817.8434    2076016.81358
        28.0004
  23338824.2984    1197417.00049    924573.65247                  23338821.3434
        40.5004         26.5004
  21230806.4004    -899289.45349   -695789.68047                  21230802.6204
        50.0004         39.2504
 04  6 30 15 52  0.0000000  0  9G 3G15G18G 6G21G26G29G16G22
  23385900.4074   -1690508.96949  -1314914.99247                  23385899.2574
        42.0004         27.0004
  21593404.7694   -1055952.66849   -817359.84447                  21593403.3874
        48.5004         36.0004
  20302820.8484     422095.09449    322249.19148                  20302817.9764
        47.5004         40.7504
  22327240.6304    2735592.84449   2114261.57047                  22327238.8884
        44.5004         32.0004
  20508740.8824     588215.20349    449991.39148                  20508737.0844
        50.7504         41.2504
  22637572.1954    1802860.12149   1394296.09847                  22637571.1474
        44.5004         30.7504
  23963969.6504
        30.5004
  23344343.8094    1226424.35949    947176.70447                  23344341.5114
        41.2504         26.2504
  21227645.0754    -915902.98849   -708735.28947                  21227641.1634
        50.5004         39.0004
 04  6 30 15 52 15.0000000  0  9G 3G15G18G 6G21G26G29G16G22
  23379283.4984   -1725283.09849  -1342011.70747                  23379281.6964
        43.7504         27.7504
  21589454.8164   -1076709.48449   -833533.98047                  21589453.1064
        49.5004         35.5004
  20304974.1294     433410.34049    331066.26648                  20304971.0314
        48.0004         41.2504
  22338014.0544    2792207.29349   2158376.70347                  22338012.3064
        43.7504         31.5004
  20511332.8284     601836.93849    460605.73048                  20511329.2104
        51.0004         41.2504
  22645616.6564    1845131.96549   1427235.18047                  22645615.6704
        44.0004         30.2504
  23973135.3094    2172270.16458
        29.0004
  23349885.3354    1255541.62149    969865.48847                  23349882.6604
        41.5004         26.2504
  21224502.3544    -932419.41449   -721605.21547                  21224497.8724
        50.5004         39.0004
 04  6 30 15 52 30.0000000  0  9G 3G15G18G 6G21G26G29G16G22
  23372679.4624   -1759988.34849  -1369054.77347                  23372677.3844
        43.7504         26.2504
  21585511.7354   -1097431.22349   -849680.76647                  21585509.4924
        48.7504         36.0004
  20307147.3734     444830.45349    339965.05148                  20307144.1694
        48.0004         41.0004
  22348801.3944    2848896.20349   2202549.86347                  22348799.4294
        45.2504         32.0004
  20513937.4264     615523.94949    471270.93048                  20513933.8744
        51.2504         41.5004
  22653687.3014    1887545.29349   1460284.52047                  22653686.6094
        43.7504         28.7504
  23982321.0584
        29.0004
  23355446.6374    1284768.43849    992639.60946                  23355444.2294
        41.2504         25.5004
  21221377.1484    -948838.59849   -734399.36747                  21221373.4204
        50.7504         39.0004
 04  6 30 15 52 45.0000000  0  9G 3G15G18G 6G21G26G29G16G22
  23366088.1454   -1794624.39549  -1396043.90247                  23366086.3274
        43.2504         26.0004
  21581574.8854   -1118117.86749   -865800.21547                  21581572.8594
        49.0004         36.0004
  20309340.8434     456355.27049    348945.42248                  20309337.3944
        47.0004         40.7504
  22359603.5704    2905659.53149   2246781.00847                  22359601.7994
        45.0004         32.0004
  20516554.6754     629276.28149    481987.02348                  20516550.6924
        50.2504         41.5004
  22661784.9814    1930099.94149   1493443.96947                  22661784.5144
        44.0004         30.0004
  23991527.1034    2268907.71958
        30.7504
  23361028.9694    1314104.66449   1015498.97346                  23361027.2474
        40.0004         25.0004
  21218271.6494    -965160.57849   -747117.78547                  21218267.1044
        51.0004         39.2504
 04  6 30 15 53  0.0000000  0  9G 3G15G18G 6G21G26G29G16G22
  23359510.2394   -1829190.90649  -1422978.80947                  23359508.8394
        43.5004         26.7504
  21577644.9414   -1138769.16049   -881892.13347                  21577642.9514
        49.7504         35.5004
  20311553.3134     467984.75849    358007.36348                  20311550.2404
        49.2504         40.5004
  22370419.2534    2962497.05949   2291069.96947                  22370418.1164
        45.0004         31.5004
  20519183.7834     643093.98449    492754.05948                  20519180.6184
        51.5004         41.2504
  22669910.1954    1972795.57849   1526713.28147                  22669909.2414
        43.0004         29.7504
  24000749.4884    2317369.98848
        29.0004
  23366632.5534    1343550.12549   1038443.47747                  23366630.9104
        40.2504         26.0004
  21215184.0604    -981385.25449   -759760.37547                  21215179.6854
        51.0004         39.2504
 04  6 30 15 53 15.0000000  0  9G 3G15G18G 6G21G26G29G16G22
  23352945.8154   -1863687.84449  -1449859.53547                  23352943.5174
        44.0004         26.5004
  21573722.1424   -1159385.36749   -897956.71547                  21573720.5554
        48.5004         36.0004
  20313786.2304     479718.29349    367150.37948                  20313783.6234
        48.5004         40.5004
  22381249.0664    3019408.14549   2335416.23447                  22381247.6224
        44.7504         32.5004
  20521825.6864     656976.84049    503571.87148                  20521822.0474
        51.5004         41.5004
  22678061.5174    2015631.62149   1560092.00447                  22678060.8024
        43.2504         29.2504
  24009988.0774
        28.0004
  23372256.5304    1373104.05549   1061472.48047                  23372255.4534
        39.5004         26.5004
  21212114.8084    -997512.94549   -772327.40248                  21212111.1854
        50.5004         39.5004
 04  6 30 15 53 30.0000000  0  9G 3G15G18G 6G21G26G29G16G22
  23346394.4384   -1898114.63749  -1476685.59846                  23346391.9334
        43.7504         24.7504
  21569805.4644   -1179966.13349   -913993.66847                  21569804.0114
        48.5004         35.5004
  20316039.1334     491556.30949    376374.80148                  20316036.0394
        47.5004         41.0004
  22392092.5904    3076392.67649   2379819.74247                  22392092.1414
        46.2504         33.0004
  20524479.8834     670925.40649    514440.88348                  20524476.7314
        51.0004         41.2504
  22686240.3414    2058608.10249   1593580.14547                  22686238.7314
        43.2504         29.5004
  24019246.9944
        26.5004
  23377901.1214    1402766.46149   1084586.03147                  23377899.4574
        40.5004         26.7504
  21209064.4544   -1013543.29349   -784818.57847                  21209060.3404
        50.5004         39.0004
 04  6 30 15 53 45.0000000  0  8G 3G15G18G 6G21G26G16G22
  23339856.4044   -1932471.26249  -1503456.96546                  23339854.7464
        44.0004         25.0004
  21565895.6924   -1200511.64849   -930003.15647                  21565894.3754
        48.5004         36.2504
  20318311.5204     503498.27049    385680.21948                  20318308.4794
        48.5004         40.5004
  22402950.8164    3133450.38349   2424280.27047                  22402949.5274
        46.0004         33.2504
  20527146.5424     684939.58249    525361.00848                  20527143.6804
        50.2504         41.2504
  22694444.6094    2101724.48049   1627177.30547                  22694443.3834
        43.0004         29.7504
  23383566.0204    1432536.98849   1107783.84046                  23383564.7234
        39.0004         25.5004
  21206032.6284   -1029476.47349   -797234.03147                  21206028.8284
        49.5004         39.2504
 04  6 30 15 54  0.0000000  0  8G 3G15G18G 6G21G26G16G22
  23333332.8514   -1966756.94549  -1530173.07447                  23333330.9274
        44.0004         27.7504
  21561992.7474   -1221021.32849   -945984.71547                  21561991.5684
        49.5004         35.7504
  20320603.8174     515544.46149    395066.85948                  20320600.5784
        49.0004         40.2504
  22413823.1114    3190581.37949   2468797.91047                  22413821.3924
        46.7504         33.5004
  20529826.0404     699019.79349    536332.59448                  20529823.0864
        51.0004         41.0004
  22702675.5904    2144980.93049   1660883.61747                  22702675.0274
        42.0004         29.0004
  23389252.0914    1462415.79749   1131066.00447                  23389249.5484
        41.0004         26.0004
  21203019.1704   -1045312.04349   -809573.43448                  21203015.2984
        50.2504         39.5004
 04  6 30 15 54 15.0000000  0  8G 3G15G18G 6G21G26G16G22
  23326820.8274   -2000972.68749  -1556834.68447                  23326819.3474
        43.7504         26.5004
  21558096.9184   -1241496.35549   -961939.26647                  21558094.6494
        48.7504         36.5004
  20322915.7594     527693.55949    404533.69148                  20322912.2454
        49.5004         40.5004
  22424707.5474    3247784.14849   2513371.48447                  22424707.0594
        46.2504         32.5004
  20532517.7384     713164.81349    547354.68048                  20532514.3044
        50.7504         40.7504
  22710933.6004    2188375.78149   1694697.78547                  22710932.8474
        42.2504         29.0004
  23394957.6854    1492401.25449   1154431.28947                  23394955.8754
        40.7504         26.2504
  21200024.3264   -1061051.19949   -821837.69948                  21200020.5054
        50.2504         39.5004
 04  6 30 15 54 30.0000000  0  8G 3G15G18G 6G21G26G16G22
  23320324.5344   -2035117.45349  -1583440.98447                  23320321.8804
        45.0004         27.2504
  21554207.1114   -1261935.93749   -977866.21547                  21554205.5394
        49.0004         36.2504
  20325247.2104     539946.16449    414081.18048                  20325244.0924
        48.5004         40.5004
  22435606.7534    3305059.18449   2558001.34447                  22435606.5484
        45.0004         32.2504
  20535222.4134     727375.37949    558427.84448                  20535218.3534
        50.2504         41.0004
  22719218.2324    2231909.61349   1728620.23447                  22719216.8904
        41.7504         28.7504
  23400684.1174    1522493.82849   1177880.01246                  23400682.2574
        40.5004         25.5004
  21197047.3054   -1076693.35949   -834026.37548                  21197043.4784
        49.5004         39.7504
 04  6 30 15 54 45.0000000  0  8G 3G15G18G 6G21G26G16G22
  23313839.5294   -2069191.18049  -1609991.94947                  23313838.1074
        44.5004         27.2504
  21550324.3484   -1282340.23049   -993765.65247                  21550322.6834
        49.5004         36.2504
  20327598.2184     552301.73449    423708.89548                  20327595.3534
        48.5004         41.0004
  22446519.2124    3362405.96949   2602687.12547                  22446519.0494
        45.0004         32.5004
  20537938.7584     741651.40249    569552.02748                  20537935.2214
        50.5004         41.5004
  22727528.3814    2275581.82449   1762650.51647                  22727527.8974
        42.0004         28.5004
  23406431.3644    1552693.03549   1201411.82846                  23406428.5934
        42.5004         23.2504
  21194088.9554   -1092238.63349   -846139.56647                  21194085.2414
        49.2504         39.0004
 04  6 30 15 55  0.0000000  0  8G 3G15G18G 6G21G26G16G22
  23307368.8804   -2103193.66849  -1636487.35947                  23307368.2164
        44.2504         28.5004
  21546448.3234   -1302709.27749  -1009637.63347                  21546446.7244
        50.0004         36.5004
  20329969.0544     564759.94949    433416.59048                  20329966.1304
        48.5004         41.0004
  22457445.2924    3419824.03949   2647428.44147                  22457445.8114
        45.5004         32.7504
  20540667.5944     755992.71949    580727.07048                  20540664.2454
        50.2504         41.2504
  22735865.6894    2319391.83649   1796788.16847                  22735864.5724
        41.5004         28.7504
  23412198.2424    1582998.27049   1225026.28947                  23412195.3474
        43.0004         26.0004
  21191149.5724   -1107687.09849   -858177.31647                  21191145.2454
        48.7504         39.0004
 04  6 30 15 55 15.0000000  0  8G 3G15G18G 6G21G26G16G22
  23300912.6224   -2137124.45749  -1662926.91447                  23300911.4684
        44.7504         27.7504
  21542578.7244   -1323042.80549  -1025481.93747                  21542577.7354
        48.7504         36.0004
  20332359.5264     577320.90249    443204.33248                  20332356.5634
        48.7504         40.7504
  22468385.5244    3477313.33249   2692225.25847                  22468385.4194
        44.2504         32.2504
  20543409.2624     770399.58249    591953.19948                  20543405.2824
        51.0004         40.7504
  22744228.7524    2363339.63349   1831033.18847                  22744227.0964
        41.5004         28.2504
  23417985.3404    1613409.59849   1248723.40246                  23417982.9964
        43.2504         25.5004
  21188228.4414   -1123038.61749   -870139.54348                  21188224.4134
        49.7504         39.5004
 04  6 30 15 55 30.0000000  0  8G 3G15G18G 6G21G26G16G22
  23294468.5114   -2170983.99649  -1689310.97747                  23294467.8284
        43.7504         27.7504
  21538716.4984   -1343341.44949  -1041299.05547                  21538714.5304
        49.0004         35.5004
  20334769.0714     589983.59849    453071.37548                  20334766.1504
        49.0004         41.0004
  22479338.6064    3534872.82049   2737076.76647                  22479338.0844
        44.5004         32.7504
  20546163.0374     784871.14149    603229.72748                  20546159.5314
        49.2504         40.7504
  22752617.0174    2407424.09849   1865384.73447                  22752616.4234
        42.2504         28.0004
  23423792.6164    1643925.95349   1272502.36347                  23423789.6964
        41.5004         26.0004
  21185325.4244   -1138293.93049   -882026.78148                  21185321.3344
        49.5004         39.7504
 04  6 30 15 55 45.0000000  0  8G 3G15G18G 6G21G26G16G22
  23288038.7504   -2204772.09049  -1715639.34447                  23288038.1064
        43.0004         26.5004
  21534860.0784   -1363605.18749  -1057088.98047                  21534858.3464
        50.2504         36.2504
  20337198.1224     602747.80949    463017.51248                  20337195.0914
        48.5004         41.0004
  22490304.9774    3592502.05949   2781982.64147                  22490304.7504
        45.2504         32.2504
  20548929.1684     799407.75849    614556.96548                  20548925.2554
        49.2504         40.5004
  22761032.4564    2451644.85549   1899842.44547                  22761031.3234
        41.7504         27.5004
  23429619.5104    1674546.87149   1296362.78547                  23429617.3284
        42.5004         26.0004
  21182440.6304   -1153453.17649   -893839.17248                  21182436.7124
        48.7504         40.0004
 04  6 30 15 56  0.0000000  0  8G 3G15G18G 6G21G26G16G22
  23281622.9174   -2238488.35249  -1741911.73847                  23281622.4834
        43.7504         27.2504
  21531010.7394   -1383833.96949  -1072851.66447                  21531009.1154
        49.5004         36.0004
  20339646.6964     615613.64149    473042.84048                  20339643.3104
        47.7504         40.7504
  22501285.2314    3650200.89149   2826942.75047                  22501284.7104
        44.0004         32.2504
  20551707.4884     814009.31349    625934.79348                  20551704.2954
        49.5004         40.5004
  22769472.9614    2496001.47749   1934406.03547                  22769472.2974
        42.5004         27.7504
  23435465.9884    1705272.00849   1320304.43447                  23435464.9844
        42.7504         26.2504
  21179573.9704   -1168516.44949   -905576.77348                  21179570.1104
        50.0004         39.5004
 04  6 30 15 56 15.0000000  0  8G 3G15G18G 6G21G26G16G22
  23275220.1794   -2272132.80149  -1768128.18447                  23275218.9604
        43.5004         26.2504
  21527168.5274   -1404027.99249  -1088587.25847                  21527166.1904
        49.5004         36.5004
  20342113.8774     628580.41849    483146.82448                  20342110.4364
        48.5004         40.7504
  22512278.1004    3707968.66449   2871956.58647                  22512277.7654
        45.7504         32.5004
  20554498.6384     828675.66049    637363.10248                  20554495.1254
        49.5004         41.0004
  22777939.3444    2540493.48849   1969075.10947                  22777938.4794
        41.5004         26.5004
  23441333.0594    1736100.89149   1344326.93847                  23441330.8454
        41.2504         26.5004
  21176726.0384   -1183483.84449   -917239.66448                  21176721.7104
        49.2504         40.5004
 04  6 30 15 56 30.0000000  0  8G 3G15G18G 6G21G26G16G22
  23268832.7144   -2305704.78949  -1794288.18047                  23268830.8454
        45.2504         27.5004
  21523331.7444   -1424186.68749  -1104295.32047                  21523330.2274
        49.7504         37.0004
  20344600.4094     641648.39149    493329.66448                  20344597.4564
        48.2504         40.7504
  22523284.5844    3765805.55549   2917024.25847                  22523283.9454
        46.0004         32.7504
  20557302.1064     843406.88749    648841.98048                  20557298.6464
        50.2504         41.7504
  22786432.0194    2585120.93449   2003849.72747                  22786431.1164
        43.0004         26.2504
  23447219.0344    1767033.60949   1368430.33247                  23447217.2994
        41.0004         26.0004
  21173896.2484   -1198355.02049   -928827.58648                  21173891.7864
        49.7504         40.0004
 04  6 30 15 56 45.0000000  0  8G 3G15G18G 6G21G26G16G22
  23262457.3384   -2339204.03149  -1820391.48447                  23262456.6794
        45.2504         27.2504
  21519502.8334   -1444309.98449  -1119975.82047                  21519500.9754
        49.7504         37.0004
  20347106.6414     654817.53949    503591.33248                  20347103.4284
        48.5004         40.5004
  22534303.8854    3823711.44949   2962145.70747                  22534302.3644
        46.5004         32.0004
  20560117.9394     858203.55149    660371.84448                  20560114.7244
        49.0004         41.0004
  22794949.9464    2629883.53549   2038729.65647                  22794948.8074
        41.2504         26.5004
  23453124.6254    1798069.85249   1392614.36347                  23453123.1844
        41.7504         26.2504
  21171084.5264   -1213129.89849   -940340.46947                  21171079.7954
        49.2504         39.2504
 04  6 30 15 57  0.0000000  0  8G 3G15G18G 6G21G26G16G22
  23256096.4894   -2372630.79349  -1846438.29347                  23256095.7824
        44.5004         28.0004
  21515680.5094   -1464398.39549  -1135629.12147                  21515677.9134
        49.7504         37.2504
  20349631.9384     668087.12949    513931.27048                  20349628.4344
        48.0004         40.7504
  22545335.6274    3881685.25049   3007320.08247                  22545335.0884
        45.2504         32.5004
  20562945.6584     873064.93849    671952.14148                  20562942.6284
        48.5004         42.0004
  22803493.4594    2674780.41049   2073714.21547                  22803492.6624
        41.5004         26.5004
  23459050.3554    1829208.69149   1416878.39547                  23459049.1824
        42.7504         26.2504
  21168290.8874   -1227809.07049   -951778.78548                  21168286.6264
        48.5004         39.7504
 04  6 30 15 57 15.0000000  0  8G 3G15G18G 6G21G26G16G22
  23249749.8484   -2405985.41049  -1872428.89847                  23249748.8894
        45.5004         28.2504
  21511864.0394   -1484452.53549  -1151255.71947                  21511861.6724
        50.0004         37.0004
  20352175.6874     681456.27049    524348.78148                  20352172.4124
        48.2504         40.5004
  22556380.0084    3939726.19949   3052546.77347                  22556379.4974
        45.0004         31.7504
  20565786.4514     887990.44549    683582.38748                  20565783.0134
        49.0004         41.7504
  22812062.2294    2719810.45749   2108802.54747                  22812061.1874
        42.0004         26.2504
  23464995.4954    1860449.19949   1441221.59447                  23464993.8764
        42.5004         27.5004
  21165515.8814   -1242393.18749   -963143.02347                  21165511.3474
        48.0004         39.2504
 04  6 30 15 57 30.0000000  0  8G 3G15G18G 6G21G26G16G22
  23243416.4674   -2439267.20749  -1898362.75047                  23243415.4304
        45.0004         28.5004
  21508054.0584   -1504471.97749  -1166855.27047                  21508052.5634
        50.2504         36.5004
  20354739.1594     694925.31349    534844.14548                  20354735.7254
        48.5004         40.5004
  22567437.6704    3997834.35949   3097825.85247                  22567437.3594
        46.0004         31.7504
  20568638.5714     902980.17649    695262.68848                  20568635.4234
        48.7504         42.0004
  22820656.9024    2764973.91449   2143994.84446                  22820656.0204
        42.2504         25.5004
  23470959.4754    1891791.52049   1465644.15647                  23470957.7734
        41.0004         25.7504
  21162758.4914   -1256881.94949   -974432.94947                  21162754.3504
        48.2504         39.0004
 04  6 30 15 57 45.0000000  0  8G 3G15G18G 6G21G26G16G22
  23237096.8174   -2472475.77749  -1924239.56647                  23237096.2664
        45.0004         28.0004
  21504251.4674   -1524456.49249  -1182427.62547                  21504249.5294
        49.0004         37.0004
  20357320.9054     708493.94149    545417.09848                  20357318.0994
        48.5004         40.5004
  22578507.7894    4056009.43449   3143157.05547                  22578507.7734
        45.2504         32.0004
  20571503.7924     918035.00049    706993.70748                  20571500.6154
        50.7504         41.7504
  22829276.5284    2810270.39549   2179290.78547                  22829275.0724
        42.0004         25.7504
  23476942.9624    1923235.44149   1490145.87946                  23476941.8794
        42.5004         25.5004
  21160020.0184   -1271275.17649   -985648.44147                  21160015.7534
        49.0004         39.2504
 04  6 30 15 58  0.0000000  0  8G 3G15G18G 6G21G26G16G22
  23230791.8354   -2505610.61749  -1950058.89547                  23230790.3784
        45.2504         28.0004
  21500455.3184   -1544405.80549  -1197972.54347                  21500453.9384
        49.5004         36.5004
  20359922.0584     722162.39149    556067.84448                  20359918.8064
        48.2504         40.0004
  22589591.0164    4114251.48449   3188540.44947                  22589590.5864
        45.7504         31.5004
  20574380.7574     933154.92649    718775.46948                  20574377.7954
        48.7504         41.7504
  22837921.7134    2855699.92249   2214690.39546                  22837920.4234
        42.0004         25.0004
  23482946.8274    1954780.78149   1514726.63747                  23482944.0934
        43.5004         26.0004
  21157299.0414   -1285572.63749   -996789.30948                  21157294.6354
        48.0004         39.5004
 04  6 30 15 58 15.0000000  0  8G 3G15G18G 6G21G26G16G22
  23224500.1794   -2538671.29749  -1975820.46147                  23224499.3784
        44.5004         27.7504
  21496665.3044   -1564319.68449  -1213489.83647                  21496664.2784
        49.0004         36.7504
  20362541.7384     735930.49249    566796.23048                  20362538.8214
        48.0004         40.7504
  22600686.9154    4172560.40649   3233975.93447                  22600685.9834
        45.2504         31.2504
  20577270.1784     948340.09049    730608.06648                  20577267.2914
        50.2504         41.2504
  22846592.3014    2901262.19949   2250193.44546                  22846590.7564
        42.2504         25.0004
  23488968.6854    1986427.32849   1539386.28547                  23488966.6564
        42.2504         25.7504
  21154596.7214   -1299774.25049  -1007855.49247                  21154592.4904
        49.5004         39.2504
 04  6 30 15 58 30.0000000  0  8G 3G15G18G 6G21G26G16G22
  23218223.0604   -2571657.46149  -2001523.95747                  23218222.2784
        44.0004         27.0004
  21492883.0304   -1584197.84449  -1228979.31647                  21492881.0404
        49.2504         36.0004
  20365181.0984     749798.38749    577602.37948                  20365178.1844
        48.2504         40.5004
  22611795.5604    4230935.98849   3279463.37947                  22611794.4394
        45.7504         31.5004
  20580172.1554     963590.68049    742491.62948                  20580169.1384
        50.0004         41.0004
  22855287.2664    2946957.01649   2285799.78147                  22855286.0744
        40.5004         26.5004
  23495009.8744    2018174.96549   1564124.67647                  23495007.4344
        42.5004         26.0004
  21151912.2094   -1313879.88749  -1018846.90248                  21151908.2654
        49.2504         39.7504
 04  6 30 15 58 45.0000000  0  8G 3G15G18G 6G21G26G16G22
  23211960.2914   -2604569.19949  -2027169.45347                  23211958.7244
        44.7504         27.0004
  21489106.9974   -1604040.77049  -1244441.34047                  21489105.1694
        49.5004         36.5004
  20367838.6044     763765.28549    588485.67648                  20367835.5384
        49.0004         41.0004
  22622916.5344    4289377.52749   3325002.21547                  22622915.7374
        45.2504         31.2504
  20583086.9074     978906.08649    754425.71148                  20583083.7984
        49.5004         41.0004
  22864007.5474    2992783.60549   2321508.80147                  22864006.5914
        41.5004         26.0004
  23501070.0764    2050022.81649   1588941.15247                  23501067.8024
        41.7504         25.7504
  21149246.1294   -1327890.09449  -1029763.93448                  21149242.3154
        49.0004         40.0004
 04  6 30 15 59  0.0000000  0  8G 3G15G18G 6G21G26G16G22
  23205711.8754   -2637405.87149  -2052756.47747                  23205710.1834
        44.2504         26.5004
  21485337.9194   -1623847.87949  -1259875.43747                  21485335.3614
        49.5004         36.2504
  20370515.6074     777831.60549    599446.44948                  20370512.3044
        48.5004         41.5004
  22634050.0104    4347884.93449   3370592.39147                  22634049.0134
        45.0004         31.5004
  20586013.4134     994287.09849    766410.91048                  20586010.1404
        48.2504         40.7504
  22872753.0294    3038742.00749   2357320.56646                  22872751.9554
        41.2504         24.0004
  23507149.5544    2081971.14549   1613835.93046                  23507147.2394
        42.5004         25.0004
  21146598.4364   -1341804.34449  -1040606.19948                  21146594.7354
        48.5004         39.7504
 04  6 30 15 59 15.0000000  0  8G 3G15G18G 6G21G26G16G22
  23199477.4644   -2670167.45749  -2078284.96147                  23199476.2634
        44.7504         27.2504
  21481575.4324   -1643619.37149  -1275281.79747                  21481573.3254
        49.5004         36.5004
  20373210.7174     791996.87549    610484.32448                  20373208.1054
        48.0004         40.7504
  22645196.0334    4406457.95349   3416233.65647                  22645195.0114
        44.7504         30.7504
  20588952.7424    1009733.46549    778447.03948                  20588949.6214
        47.7504         40.0004
  22881524.0594    3084831.76649   2393234.60946                  22881522.5694
        41.7504         25.5004
  23513248.1484    2114019.35249   1638808.52347                  23513246.2004
        42.5004         26.0004
  21143968.3634   -1355623.00049  -1051373.97348                  21143964.7224
        48.0004         39.5004
 04  6 30 15 59 30.0000000  0  8G 3G15G18G 6G21G26G16G22
  23193257.5224   -2702853.39549  -2103754.52747                  23193256.0964
        45.0004         27.5004
  21477819.7684   -1663355.08249  -1290660.26247                  21477817.8004
        50.0004         37.7504
  20375925.4784     806261.13349    621599.32048                  20375922.0334
        48.0004         41.2504
  22656354.8164    4465096.32449   3461925.87547                  22656353.2284
        45.7504         30.0004
  20591904.9284    1025245.37149    790534.23048                  20591901.3414
        48.5004         41.0004
  22890319.3544    3131052.53549   2429250.76646                  22890318.6144
        40.5004         24.0004
  23519365.7644    2146167.27349   1663858.83646                  23519363.7694
        41.5004         25.0004
  21141357.1434   -1369345.89849  -1062067.10948                  21141353.3244
        48.7504         40.0004
 04  6 30 15 59 45.0000000  0  8G 3G15G18G 6G21G26G16G22
  23187052.1544   -2735463.85949  -2129165.27047                  23187050.8044
        44.2504         28.2504
  21474071.0054   -1683055.24649  -1306011.04347                  21474068.4064
        49.7504         37.2504
  20378658.0394     820623.68849    632790.92648                  20378655.3584
        48.0004         41.2504
  22667525.9634    4523799.35249   3507668.46947                  22667523.5464
        45.2504         30.5004
  20594868.9144    1040822.28149    802672.08648                  20594865.3084
        50.5004         41.2504
  22899139.8064    3177403.60249   2465368.48046                  22899138.4374
        40.2504         24.0004
  23525502.5614    2178414.14549   1688986.25447                  23525500.4684
        42.0004         26.0004
  21138764.1974   -1382973.46549  -1072685.98448                  21138760.4114
        50.0004         40.5004
 04  6 30 16  0  0.0000000  0  8G 3G15G18G 6G21G26G16G22
  23180860.4984   -2767997.29349  -2154515.98447                  23180859.6274
        45.2504         27.5004
  21470329.1984   -1702718.57849  -1321333.11347                  21470327.3544
        50.2504         36.7504
  20381410.5524     835085.62949    644059.97348                  20381407.2564
        48.0004         40.7504
  22678708.5704    4582568.03549   3553462.22347                  22678707.6274
        44.5004         29.7504
  20597845.7394    1056465.57849    814861.66848                  20597842.1924
        47.7504         40.7504
  22907985.0684    3223885.91849   2501588.42646                  22907984.2004
        40.7504         22.2504
  23531657.2384    2210760.84849   1714191.44547                  23531656.0044
        42.7504         26.0004
  21136189.2844   -1396504.40249  -1083229.57048                  21136185.5394
        47.5004         40.0004
 04  6 30 16  0 15.0000000  0  8G 3G15G18G 6G21G26G16G22
  23174684.6944   -2800454.23449  -2179807.10547                  23174683.6064
        45.2504         29.0004
  21466594.2854   -1722345.64549  -1336626.92647                  21466592.5194
        49.7504         37.0004
  20384181.6084     849646.10949    655405.78948                  20384178.0634
        48.5004         40.5004
  22689904.1164    4641401.19949   3599306.21947                  22689903.4054
        45.0004         31.2504
  20600835.2474    1072174.92249    827102.71948                  20600831.6214
        50.2504         40.7504
  22916854.9264    3270498.40649   2537909.85546                  22916853.7874
        39.5004         23.0004
  23537832.2464    2243206.47749   1739473.71946                  23537829.6774
        42.0004         25.5004
  21133632.6524   -1409939.41449  -1093698.39548                  21133628.6204
        50.2504         40.0004
 04  6 30 16  0 30.0000000  0  8G 3G15G18G 6G21G26G16G22
  23168522.8714   -2832835.01649  -2205038.85947                  23168521.4894
        44.2504         28.2504
  21462866.3554   -1741937.03949  -1351892.94147                  21462864.3264
        49.5004         37.5004
  20386970.8074     864304.27749    666827.75048                  20386966.9974
        49.2504         40.7504
  22701112.0204    4700298.15249   3645199.91447                  22701111.3684
        44.7504         30.5004
  20603836.8694    1087949.26649    839394.41448                  20603833.7204
        48.5004         40.5004
  22925749.5114    3317240.11349   2574331.95746                  22925748.2954
        40.5004         22.7504
  23544024.4074    2275749.97349   1764832.25446                  23544023.0034
        42.5004         25.5004
  21131094.3504   -1423279.28949  -1104093.10248                  21131090.4384
        48.5004         40.0004
 04  6 30 16  0 45.0000000  0  8G 3G15G18G 6G21G26G16G22
  23162375.6264   -2865138.18749  -2230210.14847                  23162374.9744
        45.5004         28.5004
  21459145.3214   -1761491.58249  -1367130.24647                  21459143.5244
        50.0004         37.5004
  20389778.7524     879061.05949    678326.54348                  20389775.6764
        49.0004         40.7504
  22712332.3624    4759259.65249   3691143.90647                  22712332.0804
        44.7504         31.0004
  20606851.3714    1103790.12949    851737.94548                  20606847.6974
        50.2504         40.7504
  22934668.8684    3364111.73449   2610855.28946                  22934667.9004
        40.5004         22.0004
  23550236.6214    2308392.07449   1790267.62146                  23550234.5444
        42.5004         25.0004
  21128574.1244   -1436522.84049  -1114412.74648                  21128569.9044
        49.0004         39.7504
 04  6 30 16  1  0.0000000  0  8G 3G15G18G 6G21G26G16G22
  23156243.3684   -2897362.59049  -2255320.08647                  23156242.1114
        44.7504         27.2504
  21455431.1504   -1781008.31649  -1382338.09447                  21455429.4534
        50.2504         37.0004
  20392605.7804     893917.23449    689902.78148                  20392602.9694
        48.7504         41.0004
  22723564.6404    4818286.17249   3737138.56647                  22723564.3074
        45.0004         31.2504
  20609878.5944    1119697.94949    864133.65648                  20609875.1774
        49.0004         41.2504
  22943613.3744    3411113.77049   2647480.24646                  22943612.0314
        40.5004         22.2504
  23556466.7534    2341133.30549   1815780.22347                  23556464.4194
        42.0004         26.0004
  21126072.2014   -1449669.27749  -1124656.71148                  21126068.0564
        49.0004         40.0004
 04  6 30 16  1 15.0000000  0  8G 3G15G18G 6G21G26G16G22
  23150126.0794   -2929508.91849  -2280369.15247                  23150125.2904
        44.0004         28.0004
  21451724.2974   -1800488.10949  -1397517.14547                  21451722.4664
        50.2504         36.7504
  20395451.5064     908871.61749    701555.53948                  20395448.2044
        49.2504         41.0004
  22734809.1314    4877376.44949   3783182.90247                  22734808.6484
        45.5004         31.2504
  20612918.5364    1135672.16849    876581.09048                  20612915.1894
        49.7504         41.2504
  22952581.9804    3458244.90649   2684205.76246                  22952581.2724
        41.0004         22.2504
  23562715.8294    2373972.36349   1841369.07846                  23562713.9224
        42.2504         25.2504
  21123589.3114   -1462719.56249  -1134825.75848                  21123584.7114
        50.5004         39.5004
 04  6 30 16  1 30.0000000  0  8G 3G15G18G 6G21G26G16G22
  23144024.4404   -2961576.21549  -2305356.63747                  23144023.0264
        45.0004         28.0004
  21448024.3294   -1819930.17249  -1412666.80147                  21448022.7244
        49.7504         36.5004
  20398316.2684     923924.60949    713285.14148                  20398313.3664
        49.2504         40.7504
  22746065.5494    4936530.93449   3829277.28947                  22746064.6264
        44.5004         30.5004
  20615970.9234    1151713.49649    889080.81648                  20615967.8494
        50.7504         41.0004
  22961575.8644    3505505.55149   2721032.23446                  22961574.2554
        40.5004         22.5004
  23568983.9984    2406909.69149   1867034.49647                  23568981.4444
        41.7504         25.7504
  21121123.9114   -1475673.11749  -1144919.43048                  21121119.2774
        50.2504         39.7504
 04  6 30 16  1 45.0000000  0  8G 3G15G18G 6G21G26G16G22
  23137937.1454   -2993563.80549  -2330282.03147                  23137935.7594
        45.2504         27.0004
  21444332.2154   -1839334.13349  -1427786.77047                  21444330.2164
        50.5004         37.0004
  20401199.6554     939076.43049    725091.75448                  20401196.6964
        49.0004         41.2504
  22757334.9074    4995749.73449   3875421.77747                  22757334.0004
        46.2504         30.5004
  20619036.2644    1167822.52049    901633.30548                  20619032.7134
        50.5004         41.0004
  22970593.6734    3552895.66049   2757959.56646                  22970592.2564
        40.7504         21.5004
  23575269.8224    2439945.25449   1892776.48446                  23575268.2534
        42.0004         25.2504
  21118677.3794   -1488529.58649  -1154937.45348                  21118673.0054
        50.5004         39.7504
 04  6 30 16  2  0.0000000  0  8G 3G15G18G 6G21G26G16G22
  23131864.5384   -3025472.70749  -2355146.09047                  23131862.8904
        45.0004         27.7504
  21440646.8214   -1858701.12149  -1442877.92647                  21440645.1354
        50.0004         37.2504
  20404101.2894     954325.68449    736974.28948                  20404098.2694
        48.7504         41.5004
  22768615.5504    5055031.24249   3921615.14147                  22768615.0484
        44.5004         29.5004
  20622114.2984    1183997.89849    914237.48848                  20622111.0724
        50.7504         40.7504
  22979635.9724    3600413.63749   2794986.57046                  22979634.3814
        39.7504         21.7504
  23581575.1484    2473077.53949   1918593.84046                  23581573.3554
        41.5004         25.0004
  21116249.2754   -1501290.16449  -1164880.75048                  21116244.9144
        50.7504         39.5004
 04  6 30 16  2 15.0000000  0  8G 3G15G18G 6G21G26G16G22
  23125808.0724   -3057302.29749  -2379948.36347                  23125806.3934
        45.5004         27.0004
  21436968.7844   -1878030.76249  -1457939.97347                  21436966.1834
        50.7504         37.7504
  20407021.6814     969672.52049    748932.86348                  20407018.7054
        49.0004         40.7504
  22779908.4654    5114375.46949   3967857.37147                  22779908.0464
        45.0004         30.7504
  20625205.2094    1200239.91449    926893.60548                  20625201.7984
        51.2504         41.5004
  22988702.5514    3648059.48049   2832113.17646                  22988701.3664
        40.5004         21.0004
  23587898.5364    2506306.45749   1944486.47347                  23587897.0384
        41.5004         25.7504
  21113839.1134   -1513954.65249  -1174749.17648                  21113834.8694
        51.0004         39.7504
 04  6 30 16  2 30.0000000  0  8G 3G15G18G 6G21G26G16G22
  23119765.5914   -3089052.29349  -2404688.61347                  23119764.6514
        45.0004         28.2504
  21433297.2584   -1897322.94149  -1472972.83647                  21433295.4174
        50.0004         37.0004
  20409960.3594     985116.76249    760967.34448                  20409957.1874
        48.0004         40.7504
  22791213.0024    5173782.16849   4014148.26647                  22791212.9114
        45.2504         30.0004
  20628308.3684    1216548.39849    939601.51648                  20628305.4494
        51.0004         41.5004
  22997793.4024    3695832.73449   2869339.08646                  22997792.4314
        40.0004         21.0004
  23594239.5754    2539631.75849   1970454.20347                  23594239.2004
        41.2504         26.2504
  21111447.4314   -1526523.02749  -1184542.71148                  21111443.2434
        51.2504         40.5004
 04  6 30 16  2 45.0000000  0  8G 3G15G18G 6G21G26G16G22
  23113739.4584   -3120721.90649  -2429366.22747                  23113738.3924
        45.0004         28.7504
  21429633.3904   -1916577.15249  -1487976.10947                  21429631.4984
        50.0004         37.7504
  20412917.7484    1000658.69549    773077.93848                  20412914.5934
        48.0004         40.7504
  22802529.5004    5233251.45749   4060487.94547                  22802529.4034
        44.7504         30.2504
  20631424.5774    1232924.39849    952362.03148                  20631421.9774
        50.2504         41.2504
  23006908.8614    3743733.55549   2906664.38346                  23006907.5694
        39.7504         20.5004
  23600599.8284    2573053.49649   1996497.10246                  23600598.6794
        41.5004         25.0004
  21109074.4244   -1538994.71149  -1194260.89848                  21109070.5144
        50.7504         40.2504
 04  6 30 16  3  0.0000000  0  8G 3G15G18G 6G21G26G16G22
  23107728.0544   -3152311.32049  -2453981.35547                  23107727.0184
        44.5004         28.5004
  21425976.4214   -1935793.76649  -1502950.09047                  21425974.6814
        51.2504         37.5004
  20415894.3224    1016297.72749    785264.19548                  20415891.0644
        49.0004         41.0004
  22813858.5904    5292782.59449   4106875.80947                  22813857.3804
        44.5004         30.7504
  20634553.5404    1249366.96949    965174.42248                  20634550.5184
        51.0004         41.2504
  23016048.5554    3791761.19949   2944088.52046                  23016046.7644
        40.0004         21.0004
  23606977.9114    2606570.80149   2022614.44147                  23606977.1334
        41.7504         26.2504
  21106719.3694   -1551370.37549  -1203904.26648                  21106715.2064
        51.2504         40.2504
 04  6 30 16  3 15.0000000  0  8G 3G15G18G 6G21G26G16G22
  23101732.5364   -3183820.09849  -2478533.61747                  23101731.8124
        45.0004         29.7504
  21422327.0004   -1954972.37549  -1517894.46147                  21422325.0884
        49.5004         37.2504
  20418888.4344    1032033.89849    797526.14148                  20418885.5444
        45.0004         41.0004
  22825198.0344    5352375.55549   4153311.84447                  22825197.6384
        45.0004         30.5004
  20637695.3344    1265876.72349    978039.15248                  20637692.4664
        48.5004         41.2504
  23025211.9404    3839915.47749   2981611.32446                  23025210.9454
        38.0004         21.0004
  23613374.5044    2640183.76649   2048806.33647                  23613373.5704
        41.5004         26.2504
  21104382.5904   -1563649.72349  -1213472.57848                  21104378.6484
        52.0004         40.7504
 04  6 30 16  3 30.0000000  0  8G 3G15G18G 6G21G26G16G22
  23095752.1414   -3215247.40249  -2503022.41447                  23095751.1204
        44.5004         29.2504
  21418684.4764   -1974112.44549  -1532808.79347                  21418683.0984
        50.0004         37.2504
  20421901.3994    1047867.50049    809864.00848                  20421898.3794
        44.0004         40.7504
  22836550.7034    5412030.58649   4199796.24647                  22836549.9554
        44.7504         29.2504
  20640849.8674    1282454.34849    990956.78548                  20640846.8624
        46.2504         41.2504
  23034399.4184    3888196.54749   3019232.91046                  23034398.1364
        37.7504         20.0004
  23619788.8754    2673892.45349   2075072.80547                  23619787.5834
        42.0004         25.7504
  21102064.3314   -1575832.19549  -1222965.39848                  21102060.4974
        51.5004         39.7504
 04  6 30 16  3 45.0000000  0  9G 3G15G18G 6G21G26G14G16G22
  23089787.0874   -3246593.82449  -2527448.17647                  23089785.7804
        45.2504         29.0004
  21415049.8014   -1993214.69549  -1547693.65647                  21415048.0314
        50.5004         37.5004
  20424933.0954    1063797.56649    822277.04748                  20424929.5844
        43.7504         40.2504
  22847913.6784    5471746.45749   4246328.07447                  22847913.3694
        44.7504         29.7504
  20644017.5844    1299098.90649   1003926.57848                  20644014.0244
        46.5004         41.2504
  23043610.4724    3936603.24249   3056952.40646                  23043609.9694
        37.2504         20.0004
  24696217.0354     -21210.28159
        40.5004
  23626221.4614    2707695.71149   2101412.98046                  23626219.9754
        42.5004         25.0004
  21099764.0884   -1587918.77049  -1232383.50848                  21099760.1724
        51.5004         40.2504
 04  6 30 16  4  0.0000000  0  9G 3G15G18G 6G21G26G14G16G22
  23083837.0934   -3277859.59049  -2551811.10547                  23083835.9514
        44.7504         29.0004
  21411421.6264   -2012279.62949  -1562549.44947                  21411419.6254
        50.5004         37.5004
  20427982.7444    1079823.23049    834764.57448                  20427979.2444
        44.0004         41.2504
  22859288.9584    5531522.36749   4292906.67247                  22859288.5424
        44.7504         29.5004
  20647197.5654    1315809.62949   1016947.91848                  20647193.8784
        46.5004         41.0004
  23052846.9314    3985134.58649   3094769.02746                  23052845.1934
        39.0004         19.5004
  24687315.1484     -67993.41849    -44141.65656                  24687314.0714
        41.7504         24.0004
  23632672.1814    2741592.62149   2127826.14546                  23632670.4524
        41.5004         25.5004
  21097482.3674   -1599910.04749  -1241727.35248                  21097478.0544
        51.0004         39.7504
 04  6 30 16  4 15.0000000  0  9G 3G15G18G 6G21G26G14G16G22
  23077903.0584   -3309044.23849  -2576110.81247                  23077902.0474
        44.7504         29.0004
  21407800.8444   -2031306.88349  -1577375.87147                  21407798.6034
        50.5004         37.0004
  20431050.4644    1095944.69949    847326.76248                  20431047.0904
        45.0004         41.2504
  22870674.4824    5591358.28149   4339532.03947                  22870674.4604
        43.5004         29.0004
  20650389.9504    1332587.19149   1030021.34048                  20650386.6944
        48.0004         40.2504
  23062104.6784    4033790.56349   3132682.73846                  23062104.1504
        38.5004         20.0004
  24678411.0804    -114779.08649    -80597.96946                  24678411.0694
        40.7504         23.0004
  23639139.9964    2775583.17249   2154312.24646                  23639138.5014
        42.2504         22.5004
  21095218.9134   -1611805.70749  -1250996.69548                  21095214.8264
        51.5004         40.2504
 04  6 30 16  4 30.0000000  0  9G 3G15G18G 6G21G26G14G16G22
  23071983.9104   -3340147.91049  -2600347.43447                  23071983.1954
        45.0004         29.0004
  21404187.1814   -2050296.91849  -1592173.29747                  21404184.4554
        50.7504         37.0004
  20434136.3754    1112161.11349    859962.93048                  20434133.3944
        48.7504         41.0004
  22882072.5884    5651253.43049   4386203.52747                  22882072.0824
        43.7504         28.7504
  20653595.2634    1349431.11349   1043146.47348                  20653592.0664
        51.0004         40.2504
  23071387.3104    4082570.26649   3170692.90246                  23071386.9844
        37.7504         19.5004
  24669507.2514    -161567.62149   -117056.50846                  24669507.1714
        41.0004         22.2504
  23645625.8994    2809666.38349   2180870.56646                  23645624.2274
        41.5004         24.7504
  21092973.0594   -1623606.37549  -1260192.00848                  21092968.9674
        51.7504         39.7504
 04  6 30 16  4 45.0000000  0  9G 3G15G18G 6G21G26G14G16G22
  23066080.8124   -3371171.06249  -2624521.30947                  23066079.4804
        45.0004         28.2504
  21400580.6834   -2069250.30149  -1606942.16847                  21400577.9004
        50.2504         37.2504
  20437240.2244    1128471.68849    872672.46148                  20437237.0474
        49.0004         41.2504
  22893482.4594    5711206.68849   4432920.32847                  22893480.4524
        44.2504         28.0004
  20656812.9554    1366340.69149   1056322.77048                  20656809.9364
        51.2504         41.0004
  23080693.0784    4131472.52349   3208798.53146                  23080692.0934
        37.0004         18.5004
  24660603.4874    -208359.37149   -153517.57446                  24660602.7844
        40.7504         22.2504
  23652129.3754    2843841.23849   2207500.29746                  23652127.1664
        42.2504         22.7504
  21090745.5884   -1635312.80949  -1269313.89548                  21090741.2554
        51.2504         40.0004
 04  6 30 16  5  0.0000000  0  9G 3G15G18G 6G21G26G14G16G22
  23060193.0684   -3402113.31249  -2648632.13747                  23060191.7134
        45.0004         29.5004
  21396980.7694   -2088167.01649  -1621682.46147                  21396978.2954
        50.0004         37.5004
  20440361.7034    1144876.16849    885455.16048                  20440358.8284
        49.5004         41.0004
  22904901.5734    5771217.84449   4479682.23047                  22904899.9744
        44.2504         28.5004
  20660043.5344    1383315.95749   1069550.24248                  20660040.1714
        51.7504         41.5004
  23090022.4014    4180497.02349   3246999.43846                  23090020.9554
        38.2504         19.2504
  24651698.5704    -255153.93449   -189980.81646                  24651697.6954
        41.2504         21.7504
  23658649.9174    2878107.49249   2234201.24646                  23658647.3304
        42.7504         24.7504
  21088535.7084   -1646925.03549  -1278362.37548                  21088531.6654
        51.5004         40.2504
 04  6 30 16  5 15.0000000  0  9G 3G15G18G 6G21G26G14G16G22
  23054320.0754   -3432974.70749  -2672679.97747                  23054318.7204
        45.0004         28.2504
  21393388.1154   -2107047.19949  -1636394.28547                  21393385.8304
        50.0004         37.5004
  20443500.9154    1161374.13749    898310.72348                  20443498.1854
        49.0004         40.7504
  22916332.4434    5831286.24249   4526488.74647                  22916331.0904
        44.0004         28.0004
  20663286.4094    1400356.70349   1082828.74248                  20663283.1544
        51.2504         41.7504
  23099374.9144    4229643.18849   3285295.12546                  23099373.4194
        36.7504         18.2504
  24642793.5494    -301951.29349   -226446.25046                  24642792.6924
        40.7504         22.0004
  23665187.3714    2912464.57849   2260972.97346                  23665185.7114
        43.0004         24.5004
  21086343.8734   -1658443.34049  -1287337.67248                  21086339.7624
        51.5004         40.2504
 04  6 30 16  5 30.0000000  0  9G 3G15G18G 6G21G26G14G16G22
  23048462.6574   -3463755.40249  -2696664.91447                  23048461.2884
        45.0004         30.2504
  21389802.3234   -2125891.11349  -1651077.84447                  21389800.1724
        51.0004         37.7504
  20446658.7234    1177965.13749    911238.77348                  20446655.3654
        48.0004         40.5004
  22927774.3524    5891411.32049   4573339.42247                  22927772.1334
        44.5004         28.2504
  20666541.1924    1417462.48849   1096157.92648                  20666538.0634
        50.5004         40.5004
  23108748.6254    4278910.20349   3323685.00446                  23108748.6114
        36.5004         17.5004
  24633888.2504    -348751.53549   -262913.93446                  24633887.0024
        40.5004         21.5004
  23671743.1894    2946911.69549   2287814.84046                  23671739.9834
        43.2504         25.5004
  21084169.9054   -1669868.03549  -1296240.01248                  21084165.9124
        51.5004         40.0004
 04  6 30 16  5 45.0000000  0  9G 3G15G18G 6G21G26G14G16G22
  23042620.6454   -3494455.03949  -2720586.69547                  23042619.8634
        45.0004         29.5004
  21386223.0504   -2144698.68449  -1665733.09447                  21386221.1154
        49.7504         37.0004
  20449833.2354    1194648.82449    924239.05548                  20449829.8594
        45.5004         40.7504
  22939226.1914    5951592.77049   4620234.03947                  22939224.3394
        45.0004         29.2504
  20669808.9124    1434633.03949   1109537.57448                  20669805.3014
        48.2504         40.7504
  23118148.5104    4328297.79749   3362168.86746                  23118147.2024
        37.5004         17.7504
  24624980.7004    -395554.35549   -299383.62146                  24624980.5824
        40.0004         21.0004
  23678314.9674    2981448.55549   2314726.66046                  23678312.4774
        42.2504         24.5004
  21082013.6124   -1681199.25049  -1305069.52348                  21082009.6394
        52.0004         40.5004
 04  6 30 16  6  0.0000000  0  9G 3G15G18G 6G21G26G14G16G22
  23036794.6034   -3525072.45749  -2744444.40647                  23036793.1364
        44.2504         28.7504
  21382651.3814   -2163468.89849  -1680359.22347                  21382649.1374
        50.2504         37.5004
  20453025.7264    1211426.13349    937312.28948                  20453022.2224
        44.2504         40.5004
  22950689.3504    6011831.11749   4667172.96947                  22950687.0184
        45.0004         30.2504
  20673088.5514    1451870.01249   1122968.98448                  20673084.9344
        46.2504         40.2504
  23127569.2834    4377806.55549   3400747.05546                  23127568.1444
        36.7504         17.0004
  24616074.6954    -442358.55149   -335854.37546                  24616073.7454
        39.5004         20.0004
  23684904.6794    3016075.69149   2341708.82446                  23684902.1854
        42.7504         25.2504
  21079875.0804   -1692436.02049  -1313825.44548                  21079870.9574
        51.7504         40.2504
 04  6 30 16  6 15.0000000  0  9G 3G15G18G 6G21G26G14G16G22
  23030983.5694   -3555607.40249  -2768237.85947                  23030982.9584
        44.5004         29.5004
  21379086.6244   -2182201.75449  -1694956.24647                  21379084.5284
        50.0004         37.0004
  20456235.9214    1228296.84849    950458.29748                  20456232.7354
        44.0004         41.2504
  22962163.5664    6072126.05149   4714156.00047                  22962160.7094
        45.0004         28.0004
  20676381.2074    1469173.21549   1136451.99248                  20676377.9374
        46.5004         40.0004
  23137013.0564    4427435.81648   3439419.20346                  23137012.1764
        35.7504         17.5004
  24607167.3394    -489163.79349   -372325.98046                  24607166.9104
        40.0004         20.0004
  23691510.9344    3050792.70349   2368761.00446                  23691508.8074
        41.7504         24.2504
  21077754.9114   -1703578.46549  -1322507.86748                  21077750.5444
        51.2504         40.2504
 04  6 30 16  6 30.0000000  0  9G 3G15G18G 6G21G26G14G16G22
  23025188.3154   -3586059.78949  -2791966.96947                  23025187.7304
        44.5004         29.2504
  21375528.7344   -2200897.32049  -1709524.22347                  21375526.7984
        51.0004         37.2504
  20459464.4204    1245260.35949    963676.61348                  20459461.5054
        45.5004         41.5004
  22973647.8754    6132477.15649   4761182.80147                  22973645.8674
        45.5004         29.0004
  20679686.4364    1486542.49649   1149986.49648                  20679683.1994
        49.0004         40.5004
  23146480.9174    4477185.36349   3478185.08246                  23146479.4364
        38.0004         17.7504
  24598261.4164    -535970.03549   -408798.32846                  24598259.9364
        41.0004         20.5004
  23698134.6614    3085599.03949   2395882.81346                  23698132.9304
        42.2504         24.5004
  21075652.3254   -1714626.84049  -1331116.98848                  21075648.3974
        51.0004         40.0004
 04  6 30 16  6 45.0000000  0  9G 3G15G18G 6G21G26G14G16G22
  23019409.3184   -3616428.95749  -2815631.25447                  23019407.9144
        44.5004         29.2504
  21371978.5794   -2219555.09849  -1724062.73847                  21371976.2734
        50.2504         37.5004
  20462710.1584    1262317.02049    976967.51648                  20462707.0184
        48.7504         41.0004
  22985143.5354    6192884.42249   4808253.37147                  22985140.7694
        46.0004         29.7504
  20683004.7094    1503978.25849   1163572.80148                  20683001.0704
        51.0004         40.7504
  23155969.9894    4527054.96549   3517044.49246                  23155969.5014
        38.0004         17.0004
  24589354.4524    -582776.60249   -445270.95346                  24589353.5284
        41.0004         20.5004
  23704774.8384    3120494.75849   2423074.25447                  23704773.0014
        41.7504         25.7504
  21073568.0134   -1725580.90249  -1339652.61748                  21073563.5314
        51.7504         40.5004
 04  6 30 16  7  0.0000000  0  9G 3G15G18G 6G21G26G14G16G22
  23013646.3394   -3646714.75449  -2839230.55947                  23013645.5834
        44.2504         30.0004
  21368435.1344   -2238174.93449  -1738571.69947                  21368432.8584
        51.0004         37.2504
  20465973.5524    1279466.46149    990330.71548                  20465970.8034
        50.0004         40.5004
  22996648.6174    6253347.61749   4855367.52047                  22996647.0354
        45.7504         29.5004
  20686335.2734    1521480.51649   1177210.93048                  20686332.0274
        52.0004         40.5004
  23165483.0274    4577044.28149   3555997.20746                  23165482.4344
        37.0004         16.2504
  24580447.5884    -629583.17649   -481743.55546                  24580445.9714
        41.5004         21.0004
  23711431.9804    3155479.51249   2450335.07846                  23711430.4804
        41.5004         24.5004
  21071501.2764   -1736440.58649  -1348114.69548                  21071497.1974
        51.5004         40.0004
 04  6 30 16  7 15.0000000  0  9G 3G15G18G 6G21G26G14G16G22
  23007899.5274   -3676916.44149  -2862764.33647                  23007897.5364
        45.0004         29.7504
  21364898.8064   -2256756.50049  -1753050.82847                  21364896.7764
        50.2504         37.2504
  20469254.4774    1296708.96149   1003766.42648                  20469251.3944
        49.7504         41.0004
  23008165.3764    6313866.64849   4902525.18447                  23008163.5874
        45.0004         30.2504
  20689678.3294    1539049.30949   1190900.89148                  20689675.1034
        51.7504         40.2504
  23175018.2444    4627153.37949   3595043.18046                  23175017.3774
        37.2504         16.2504
  24571540.6794    -676389.13349   -518215.71146                  24571538.8184
        41.2504         21.7504
  23718106.6434    3190553.10949   2477665.12946                  23718104.6764
        40.7504         24.7504
  21069452.8664   -1747205.68749  -1356503.07848                  21069448.7214
        52.5004         40.2504
 04  6 30 16  7 30.0000000  0  9G 3G15G18G 6G21G26G14G16G22
  23002168.0114   -3707033.74649  -2886232.35947                  23002166.4344
        45.2504         30.0004
  21361370.7494   -2275299.49249  -1767499.91447                  21361368.3604
        50.2504         37.0004
  20472553.1374    1314044.46549   1017274.60948                  20472550.3734
        49.7504         40.7504
  23019692.4384    6374441.39849   4949726.24247                  23019690.9364
        45.0004         29.0004
  20693034.3104    1556685.30549   1204643.22348                  20693031.0834
        52.2504         40.0004
  23184575.7884    4677381.76249   3634182.17646                  23184575.3944
        37.0004         16.2504
  24562633.0434    -723194.03149   -554687.00446                  24562632.1074
        40.7504         21.7504
  23724797.8514    3225715.49249   2505064.37146                  23724796.0654
        42.5004         25.0004
  21067422.2224   -1757875.96149  -1364817.57048                  21067418.3184
        52.0004         40.0004
 04  6 30 16  7 45.0000000  0  9G 3G15G18G 6G21G26G14G16G22
  22996452.9194   -3737066.12949  -2909634.20747                  22996452.0714
        44.5004         29.2504
  21357849.2024   -2293803.68449  -1781918.75847                  21357847.3574
        50.2504         37.0004
  20475870.1084    1331472.87549   1030855.18848                  20475866.6564
        49.5004         41.0004
  23031229.4214    6435071.83649   4996970.70347                  23031227.8944
        45.0004         29.0004
  20696403.2444    1574388.73049   1218438.08648                  20696400.1814
        51.0004         40.5004
  23194157.6034    4727729.56649   3673414.23446                  23194155.8814
        37.7504         17.0004
  24553727.2954    -769997.30949   -591157.03946                  24553725.7764
        41.5004         21.0004
  23731505.7694    3260966.59849   2532532.74646                  23731504.5564
        41.5004         25.0004
  21065409.9824   -1768451.31249  -1373058.09848                  21065405.8224
        51.7504         40.0004
 04  6 30 16  8  0.0000000  0  9G 3G15G18G 6G21G26G14G16G22
  22990754.1534   -3767013.50049  -2932969.80147                  22990752.9354
        44.7504         29.7504
  21354335.2874   -2312269.10249  -1796307.38347                  21354333.2884
        50.2504         37.7504
  20479203.8834    1348994.05549   1044508.05948                  20479200.9544
        49.7504         41.0004
  23042777.3114    6495757.44149   5044258.15647                  23042775.7564
        44.0004         28.5004
  20699784.8944    1592159.50849   1232285.44548                  20699781.7824
        51.5004         40.2504
  23203761.0084    4778196.17249   3712738.86346                  23203759.3674
        37.7504         17.5004
  24544821.2464    -816798.74649   -627625.66446                  24544819.8584
        42.0004         21.0004
  23738230.5984    3296305.83249   2560069.77046                  23738229.3604
        41.2504         25.2504
  21063415.6164   -1778932.00449  -1381224.85548                  21063411.1464
        51.5004         40.0004
 04  6 30 16  8 15.0000000  0  9G 3G15G18G 6G21G26G14G16G22
  22985071.3654   -3796875.98849  -2956239.27047                  22985070.6544
        45.2504         29.7504
  21350828.8794   -2330696.24249  -1810666.18447                  21350827.2494
        50.5004         37.5004
  20482555.9104    1366607.22749   1058232.60548                  20482552.6694
        50.0004         40.7504
  23054336.2144    6556497.44949   5091587.99647                  23054334.7424
        44.0004         29.7504
  20703179.0944    1609997.05149   1246184.82048                  20703175.7914
        50.7504         39.7504
  23213386.9304    4828780.61349   3752155.32446                  23213385.3174
        38.0004         17.0004
  24535915.5604    -863598.66449   -664093.09846                  24535913.9754
        42.5004         21.0004
  23744971.8914    3331732.36749   2587674.84046                  23744970.7034
        40.0004         24.7504
  21061438.8404   -1789318.45349  -1389318.18448                  21061435.0674
        52.0004         40.0004
 04  6 30 16  8 30.0000000  0  9G 3G15G18G 6G21G26G14G16G22
  22979405.0724   -3826653.16449  -2979442.25047                  22979403.8054
        45.2504         29.2504
  21347329.5684   -2349084.68049  -1824994.83247                  21347328.2584
        50.5004         37.5004
  20485924.9564    1384312.38749   1072028.83248                  20485922.3254
        50.0004         41.2504
  23065904.7074    6617291.69949   5138960.09847                  23065903.7844
        44.2504         29.0004
  20706586.3174    1627901.60949   1260136.42248                  20706582.8154
        51.5004         40.0004
  23223035.4384    4879482.87949   3791663.51246                  23223033.8384
        36.2504         17.5004
  24527010.3484    -910396.49249   -700558.91446                  24527008.3904
        42.5004         22.0004
  23751730.3394    3367246.05149   2615347.80546                  23751729.0464
        42.0004         22.5004
  21059480.6354   -1799610.57849  -1397338.00848                  21059476.3834
        52.0004         40.5004
 04  6 30 16  8 45.0000000  0  9G 3G15G18G 6G21G26G14G16G22
  22973755.4294   -3856344.37949  -3002578.25047                  22973754.6474
        45.0004         29.7504
  21343837.9364   -2367434.12549  -1839293.10547                  21343836.5394
        50.2504         37.7504
  20489311.5164    1402109.55149   1085896.75048                  20489308.6164
        50.2504         41.5004
  23077483.6734    6678140.31649   5186374.56647                  23077482.8864
        44.0004         28.5004
  20710006.3154    1645873.56649   1274140.54748                  20710003.1534
        51.5004         40.0004
  23232705.5694    4930302.71949   3831263.41446                  23232704.7254
        36.0004         17.0004
  24518105.2414    -957191.66449   -737022.66446                  24518103.7824
        43.2504         22.0004
  23758505.2454    3402846.80949   2643088.62946                  23758503.3464
        42.0004         25.2504
  21057540.0714   -1809808.21549  -1405284.21548                  21057536.2314
        52.2504         40.2504
 04  6 30 16  9  0.0000000  0  9G 3G15G18G 6G21G26G14G16G22
  22968121.4394   -3885949.77049  -3025647.36747                  22968120.2004
        45.0004         29.0004
  21340353.4394   -2385744.91049  -1853561.24647                  21340351.9054
        50.2504         38.0004
  20492715.7674    1419998.09449   1099835.86748                  20492712.4104
        49.5004         42.0004
  23089072.8364    6739042.35249   5233830.67247                  23089072.0944
        43.0004         28.2504
  20713439.1564    1663912.41049   1288196.78148                  20713435.9094
        51.0004         40.2504
  23242398.2764    4981239.34849   3870954.29746                  23242397.1494
        36.0004         17.0004
  24509200.9554   -1003984.34849   -773484.46946                  24509199.7224
        42.0004         22.5004
  23765295.7994    3438533.74649   2670896.60946                  23765294.1904
        41.0004         24.5004
  21055617.1864   -1819911.71549  -1413157.06248                  21055613.5524
        51.5004         40.2504
 04  6 30 16  9 15.0000000  0  9G 3G15G18G 6G21G26G14G16G22
  22962504.2894   -3915468.26649  -3048648.79747                  22962502.8374
        44.7504         30.7504
  21336876.5194   -2404016.12149  -1867798.54347                  21336875.0194
        50.5004         38.2504
  20496137.6774    1437978.75449   1113846.76248                  20496133.9174
        50.2504         41.5004
  23100672.6344    6799998.48049   5281328.90247                  23100672.3014
        42.5004         28.2504
  20716884.4934    1682019.16449   1302305.93848                  20716881.3224
        51.5004         40.7504
  23252113.9594    5032293.20748   3910736.52046                  23252112.8114
        35.2504         15.5004
  24500296.9934   -1050773.39149   -809943.42646                  24500295.4154
        42.5004         22.0004
  23772103.3034    3474307.52349   2698772.24646                  23772101.9434
        41.5004         23.5004
  21053712.7954   -1829920.39149  -1420956.02348                  21053708.5014
        51.5004         40.2504
 04  6 30 16  9 30.0000000  0  9G 3G15G18G 6G21G26G14G16G22
  22956903.3644   -3944900.17649  -3071582.72347                  22956902.6794
        45.5004         30.2504
  21333407.1734   -2422248.16449  -1882005.32047                  21333405.2394
        50.7504         37.7504
  20499576.6394    1456050.93849   1127928.98048                  20499573.3164
        49.7504         41.5004
  23112282.0114    6861007.75049   5328868.55147                  23112281.6174
        43.7504         29.2504
  20720342.9544    1700193.33649   1316467.62948                  20720339.5914
        51.2504         40.0004
  23261851.5224    5083463.52349   3950609.41446                  23261850.4494
        37.5004         16.2504
  24491394.4944   -1097558.95349   -846399.66446                  24491392.4524
        43.0004         21.5004
  23778927.6704    3510167.13749   2726714.75446                  23778925.4054
        42.0004         24.0004
  21051826.1784   -1839834.69549  -1428681.46148                  21051821.6864
        51.2504         40.2504
 04  6 30 16  9 45.0000000  0  9G 3G15G18G 6G21G26G14G16G22
  22951319.1674   -3974245.98049  -3094449.59047                  22951317.0034
        45.0004         28.5004
  21329944.8074   -2440441.73449  -1896182.12147                  21329943.6164
        50.5004         38.2504
  20503032.6094    1474213.61349   1142081.72748                  20503029.2364
        50.2504         41.5004
  23123901.7304    6922069.09449   5376448.79347                  23123900.7904
        43.5004         29.0004
  20723814.1754    1718434.27049   1330681.33248                  20723810.8564
        51.2504         40.0004
  23271610.5484    5134748.92248   3990572.09846                  23271609.8244
        35.2504         17.0004
  24482491.6294   -1144341.56649   -882853.60546                  24482490.2294
        43.0004         21.7504
  23785767.0714    3546111.50849   2754723.32046                  23785765.6764
        41.0004         22.2504
  21049957.3734   -1849655.49649  -1436334.03548                  21049953.0384
        51.0004         40.5004
 04  6 30 16 10  0.0000000  0  9G 3G15G18G 6G21G26G14G16G22
  22945751.3264   -4003504.20749  -3117248.19947                  22945750.4064
        45.2504         29.7504
  21326490.2664   -2458595.55949  -1910327.94547                  21326489.0324
        50.0004         37.7504
  20506506.4594    1492467.58649   1156305.60248                  20506503.2324
        50.2504         41.2504
  23135531.3744    6983183.57049   5424070.43047                  23135530.7954
        44.0004         27.5004
  20727298.0094    1736742.96949   1344947.84848                  20727294.5644
        51.5004         40.5004
  23281392.4774    5186150.40649   4030625.14846                  23281391.4144
        37.2504         15.5004
  24473589.8994   -1191119.62949   -919304.01646                  24473588.3944
        43.2504         22.2504
  23792623.4934    3582141.44949   2782798.60946                  23792621.5614
        41.2504         23.0004
  21048106.6544   -1859381.75849  -1443912.93448                  21048102.3804
        51.2504         40.2504
 04  6 30 16 10 15.0000000  0  9G 3G15G18G 6G21G26G14G16G22
  22940199.9914   -4032675.85549  -3139979.33647                  22940199.1314
        45.7504         29.0004
  21323043.2714   -2476710.73849  -1924443.65647                  21323041.3644
        50.2504         37.7504
  20509997.4154    1510811.52749   1170599.57448                  20509994.1214
        50.5004         40.7504
  23147171.4054    7044349.56649   5471732.20347                  23147169.9304
        44.5004         28.2504
  20730794.8264    1755118.27349   1359266.27348                  20730791.1054
        51.7504         39.7504
  23291194.6084    5237666.10548   4070767.27746                  23291193.8964
        34.5004         14.7504
  24464688.5944   -1237894.15649   -955751.65246                  24464687.2694
        42.2504         21.7504
  23799495.6524    3618255.38349   2810939.28946                  23799493.8654
        41.0004         24.0004
  21046273.4094   -1869014.67649  -1451419.09448                  21046269.1974
        51.5004         40.0004
 04  6 30 16 10 30.0000000  0  9G 3G15G18G 6G21G26G14G16G22
  22934666.1164   -4061759.74649  -3162642.09847                  22934664.2264
        45.2504         29.5004
  21319603.3524   -2494786.27049  -1938528.47747                  21319601.5324
        50.5004         38.0004
  20513504.9484    1529246.07449   1184964.14548                  20513501.6294
        50.5004         41.2504
  23158820.9224    7105567.56649   5519434.50447                  23158819.3984
        44.5004         29.0004
  20734304.5764    1773561.39549   1373637.54348                  20734301.3664
        51.7504         40.5004
  23301020.6294    5289296.82449   4110998.99246                  23301018.7944
        36.5004         14.7504
  24455788.8774   -1284663.95749   -992195.62146                  24455788.0404
        41.5004         21.2504
  23806384.3604    3654453.83249   2839145.85946                  23806382.7334
        41.5004         22.5004
  21044458.1894   -1878553.39849  -1458851.85948                  21044454.0944
        51.2504         40.0004
 04  6 30 16 10 45.0000000  0  9G 3G15G18G 6G21G26G14G16G22
  22929147.5814   -4090756.63349  -3185237.06647                  22929146.0074
        45.0004         29.5004
  21316171.1364   -2512823.18749  -1952583.21947                  21316169.5014
        49.5004         37.5004
  20517029.9104    1547769.91449   1199398.30148                  20517027.0424
        50.2504         41.2504
  23170480.3874    7166836.11749   5567176.19147                  23170478.7704
        45.2504         28.7504
  20737826.9114    1792071.13749   1388060.71948                  20737823.3884
        50.7504         40.5004
  23310866.2354    5341040.96549   4151319.08246                  23310865.2874
        36.0004         16.2504
  24446889.2844   -1331429.85549  -1028636.52746                  24446888.3774
        40.7504         21.0004
  23813288.2644    3690735.23849   2867417.04346                  23813286.8684
        42.0004         24.0004
  21042660.6444   -1887999.18449  -1466212.20348                  21042656.6424
        51.2504         40.0004
 04  6 30 16 11  0.0000000  0  9G 3G15G18G 6G21G26G14G16G22
  22923646.4554   -4119665.49249  -3207763.43447                  22923645.7174
        46.0004         30.0004
  21312746.2914   -2530820.60249  -1966607.16847                  21312744.1884
        50.5004         38.0004
  20520571.9374    1566383.77349   1213902.60948                  20520568.9034
        50.2504         41.0004
  23182148.4684    7228155.88349   5614957.79747                  23182147.4254
        45.0004         29.0004
  20741361.8274    1810648.30549   1402536.43048                  20741358.6104
        51.2504         40.5004
  23320734.6654    5392898.86349   4191727.77746                  23320733.1654
        37.5004         16.2504
  24437991.2254   -1378190.56249  -1065073.40246                  24437990.3624
        41.5004         20.5004
  23820207.7834    3727100.22749   2895753.38746                  23820207.1574
        42.0004         24.7504
  21040880.8044   -1897351.19149  -1473499.48048                  21040877.0524
        51.2504         40.2504
 04  6 30 16 11 15.0000000  0  9G 3G15G18G 6G21G26G14G16G22
  22918162.5084   -4148485.93049  -3230220.89547                  22918161.2374
        46.5004         29.7504
  21309328.8874   -2548778.29349  -1980600.16447                  21309327.4934
        50.0004         37.5004
  20524131.3174    1585087.41049   1228476.87148                  20524127.6144
        50.2504         40.7504
  23193827.5444    7289526.57049   5662779.09447                  23193826.1384
        45.7504         28.2504
  20744909.9814    1829292.97749   1417064.74648                  20744906.5054
        51.7504         40.0004
  23330624.8434    5444870.31649   4232224.96946                  23330623.2964
        37.0004         16.2504
  24429094.0004   -1424945.84449  -1101506.04346                  24429093.2044
        41.2504         21.7504
  23827144.5714    3763548.43449   2924154.55146                  23827143.3104
        41.0004         22.5004
  21039119.4034   -1906609.37149  -1480713.63748                  21039115.1894
        51.5004         40.5004
 04  6 30 16 11 30.0000000  0  9G 3G15G18G 6G21G26G14G16G22
  22912694.8474   -4177217.25049  -3252608.94147                  22912692.9624
        45.0004         29.7504
  21305919.8604   -2566695.61749  -1994561.71147                  21305917.6134
        50.7504         37.5004
  20527707.6354    1603881.28549   1243121.44548                  20527703.9904
        50.0004         41.0004
  23205515.2544    7350948.35549   5710640.20347                  23205514.7984
        45.5004         28.2504
  20748470.7634    1848005.95349   1431646.27748                  20748467.7344
        52.0004         40.0004
  23340536.9424    5496955.51249   4272810.85946                  23340535.2914
        37.2504         15.5004
  24420197.4904   -1471694.82049  -1137933.78146                  24420197.0044
        42.0004         22.5004
  23834096.0574    3800079.96949   2952620.66846                  23834094.7434
        40.2504         23.2504
  21037375.4404   -1915773.31249  -1487854.36348                  21037371.3874
        51.2504         40.0004
 04  6 30 16 11 45.0000000  0  9G 3G15G18G 6G21G26G14G16G22
  22907243.9224   -4205861.05549  -3274928.77347                  22907244.0094
        45.7504         30.0004
  21302517.4274   -2584574.55949  -2008493.35247                  21302515.2834
        50.0004         38.0004
  20531300.6254    1622763.05949   1257834.52048                  20531297.0554
        49.2504         41.0004
  23217212.8704    7412419.07449   5758539.43047                  23217212.4654
        45.0004         28.7504
  20752044.6594    1866785.28549   1446279.50848                  20752041.2144
        51.0004         40.0004
  23350468.9384    5549152.04749   4313483.44946                  23350467.9574
        36.5004         15.5004
  24411302.7984   -1518439.17649  -1174357.93446                  24411302.3344
        41.7504         22.5004
  23841063.8974    3836692.59449   2981149.95746                  23841062.5904
        41.0004         22.5004
  21035649.0144   -1924845.00449  -1494923.19548                  21035644.9554
        51.5004         40.2504
 04  6 30 16 12  0.0000000  0  9G 3G15G18G 6G21G26G14G16G22
  22901810.1034   -4234415.96149  -3297179.33247                  22901809.1544
        44.7504         29.0004
  21299122.6534   -2602413.84049  -2022394.08247                  21299120.7724
        50.7504         38.2504
  20534910.8144    1641733.86749   1272616.96548                  20534907.3384
        50.2504         41.2504
  23228919.2884    7473939.47749   5806477.36347                  23228919.3824
        45.0004         27.5004
  20755630.7154    1885631.93449   1460965.20348                  20755627.5814
        51.5004         40.7504
  23360422.8164    5601460.57449   4354243.33246                  23360421.7944
        37.7504         14.7504
  24402408.6324   -1565177.53149  -1210777.39146                  24402408.4554
        41.5004         22.2504
  23848045.4894    3873387.00849   3009742.97746                  23848044.4314
        41.5004         24.5004
  21033940.7674   -1933823.32849  -1501919.28948                  21033936.4974
        51.5004         39.7504
 04  6 30 16 12 15.0000000  0  9G 3G15G18G 6G21G26G14G16G22
  22896393.6784   -4262880.97749  -3319359.86747                  22896392.8454
        46.2504         30.0004
  21295735.4774   -2620212.68749  -2036263.31247                  21295733.6084
        50.0004         37.5004
  20538537.8434    1660794.14149   1287469.11748                  20538534.3624
        50.5004         41.2504
  23240636.3814    7535509.77749   5854454.17647                  23240636.1244
        45.5004         28.5004
  20759230.2904    1904546.78149   1475704.04748                  20759227.0944
        52.0004         41.0004
  23370398.7654    5653881.48049   4395090.80546                  23370397.1844
        37.0004         15.5004
  24393516.3014   -1611908.82049  -1247191.32846                  24393516.0744
        41.2504         21.7504
  23855044.5934    3910163.48449   3038399.96946                  23855042.5604
        42.0004         23.2504
  21032249.9884   -1942707.71949  -1508842.18048                  21032245.8784
        51.7504         40.0004
 04  6 30 16 12 30.0000000  0  9G 3G15G18G 6G21G26G14G16G22
  22890993.6394   -4291257.16849  -3341471.16047                  22890993.3444
        44.5004         29.0004
  21292356.2394   -2637972.28949  -2050101.96147                  21292353.7244
        50.2504         37.5004
  20542181.8784    1679942.20749   1302389.69148                  20542178.6704
        51.0004         41.7504
  23252361.9474    7597128.40649   5902468.65247                  23252361.8094
        44.7504         28.0004
  20762842.3484    1923528.49649   1490494.98448                  20762839.1124
        51.0004         40.5004
  23380395.2684    5706412.98849   4436024.41046                  23380394.1694
        37.5004         17.0004
  24384624.6194   -1658634.04349  -1283600.56246                  24384624.9044
        42.0004         22.5004
  23862058.1774    3947020.35549   3067119.56346                  23862056.3334
        41.5004         24.2504
  21030576.6884   -1951499.59449  -1515692.99648                  21030573.1754
        51.0004         40.5004
 04  6 30 16 12 45.0000000  0  9G 3G15G18G 6G21G26G14G16G22
  22885611.2774   -4319543.72349  -3363512.62947                  22885609.6124
        46.5004         29.7504
  21288984.2124   -2655692.03949  -2063909.54347                  21288982.3524
        50.5004         38.0004
  20545841.9814    1699178.68049   1317379.14848                  20545839.6434
        50.2504         41.2504
  23264096.7094    7658795.74649   5950521.10547                  23264096.3534
        44.7504         27.5004
  20766467.3824    1942577.73849   1505338.54348                  20766463.6704
        50.7504         40.2504
  23390411.3934    5759055.27349   4477044.35946                  23390411.4984
        36.5004         14.7504
  24375734.2534   -1705352.29749  -1320004.35246                  24375734.1734
        41.0004         22.5004
  23869086.8294    3983957.88749   3095902.02346                  23869086.0684
        41.5004         23.7504
  21028921.7104   -1960198.40649  -1522471.27748                  21028917.5654
        51.7504         40.7504
 04  6 30 16 13  0.0000000  0  9G 3G15G18G 6G21G26G14G16G22
  22880245.6114   -4347740.58249  -3385484.18447                  22880244.1534
        46.5004         29.7504
  21285619.8464   -2673371.95749  -2077686.09847                  21285617.7794
        50.7504         38.2504
  20549519.4764    1718503.08649   1332437.10948                  20549516.7214
        50.0004         41.0004
  23275840.8964    7720511.25849   5998611.08647                  23275840.5774
        43.7504         27.5004
  20770105.2214    1961694.31349   1520234.57048                  20770101.6244
        51.0004         40.2504
  23400450.8674    5811807.84049   4518150.25446                  23400450.5454
        37.2504         16.2504
  24366845.6254   -1752063.44549  -1356402.60546                  24366845.2494
        41.5004         22.2504
  23876131.9594    4020975.60249   3124746.94146                  23876129.6354
        41.2504         22.5004
  21027284.1274   -1968804.27049  -1529177.14148                  21027280.0134
        51.2504         41.0004
 04  6 30 16 13 15.0000000  0  9G 3G15G18G 6G21G26G14G16G22
  22874897.1194   -4375846.82049  -3407385.13347                  22874895.3404
        45.7504         30.0004
  21282263.1054   -2691011.27049  -2091431.00847                  21282261.2694
        50.7504         38.2504
  20553213.6324    1737915.80949   1347563.90648                  20553210.2754
        50.2504         40.5004
  23287593.9194    7782275.32049   6046738.87947                  23287594.3084
        43.2504         27.2504
  20773755.7034    1980878.98049   1535183.66048                  20773752.3684
        51.7504         39.7504
  23410509.7134    5864670.94548   4559342.26646                  23410509.3664
        35.5004         15.5004
  24357958.1294   -1798766.53949  -1392794.59446                  24357958.3544
        39.7504         22.5004
  23883190.5154    4058073.76249   3153654.58646                  23883189.1274
        42.0004         23.0004
  21025664.1934   -1977316.72749  -1535810.21148                  21025659.9324
        51.5004         41.2504
 04  6 30 16 13 30.0000000  0  9G 3G15G18G 6G21G26G14G16G22
  22869565.4274   -4403862.69149  -3429215.68747                  22869564.2644
        46.2504         29.7504
  21278914.3164   -2708610.35249  -2105144.57047                  21278912.0064
        50.0004         37.5004
  20556924.2014    1757416.34049   1362759.12948                  20556920.7954
        50.2504         40.7504
  23299356.3464    7844087.12549   6094903.88747                  23299356.6884
        42.5004         27.0004
  20777419.4334    2000131.36349   1550185.51648                  20777416.0254
        50.7504         40.0004
  23420590.4424    5917643.73048   4600619.75046                  23420590.0264
        35.7504         14.7504
  24349072.1014   -1845461.80149  -1429180.47746                  24349072.2254
        40.2504         21.7504
  23890265.1074    4095251.49649   3182624.21146                  23890263.3754
        42.0004         22.2504
  21024062.1194   -1985736.30149  -1542370.91048                  21024057.9254
        52.0004         40.7504
 04  6 30 16 13 45.0000000  0  9G 3G15G18G 6G21G26G14G16G22
  22864251.8934   -4431788.35249  -3450975.92247                  22864250.2174
        45.5004         30.0004
  21275572.4464   -2726169.69149  -2118827.16447                  21275570.6384
        50.2504         37.5004
  20560651.8514    1777003.84449   1378022.12148                  20560647.9604
        49.7504         41.0004
  23311128.3554    7905945.84049   6143105.43047                  23311128.0104
        43.7504         28.0004
  20781096.0464    2019450.76649   1565239.58248                  20781092.3254
        51.5004         40.5004
  23430691.4324    5970725.23849   4641981.96146                  23430690.6044
        36.7504         16.2504
  24340188.1984   -1892149.37949  -1465560.35246                  24340187.5564
        41.2504         21.7504
  23897355.3044    4132507.88749   3211655.13746                  23897352.7054
        41.0004         23.5004
  21022477.3734   -1994063.55949  -1548859.66848                  21022473.0264
        52.0004         41.0004
 04  6 30 16 14  0.0000000  0  9G 3G15G18G 6G21G26G14G16G22
  22858954.7864   -4459623.12149  -3472665.34847                  22858952.8974
        44.7504         29.5004
  21272238.9854   -2743688.91449  -2132478.49647                  21272236.5564
        50.0004         37.7504
  20564395.4824    1796678.44149   1393352.97748                  20564392.3344
        49.5004         40.5004
  23322907.6004    7967851.37949   6191343.48047                  23322907.8644
        43.0004         27.0004
  20784785.0694    2038837.68449   1580346.26648                  20784781.3784
        50.7504         40.0004
  23440813.3214    6023915.41048   4683428.87546                  23440812.2604
        34.5004         14.0004
  24331305.1914   -1938828.69549  -1501933.83646                  24331304.2334
        40.0004         23.0004
  23904459.5304    4169842.82049   3240747.28946                  23904457.4434
        40.5004         23.0004
  21020910.1924   -2002298.28149  -1555276.33248                  21020905.9664
        51.5004         40.7504
 04  6 30 16 14 15.0000000  0  9G 3G15G18G 6G21G26G14G16G22
  22853675.2284   -4487367.10249  -3494284.02347                  22853673.3674
        45.0004         29.5004
  21268912.5414   -2761168.02049  -2146098.57847                  21268910.4424
        50.5004         38.0004
  20568155.8984    1816439.68449   1408751.34848                  20568152.7244
        49.5004         40.7504
  23334697.3264    8029803.32449   6239617.69547                  23334697.3354
        43.2504         28.0004
  20788487.5204    2058292.15649   1595505.60548                  20788483.4764
        51.5004         40.2504
  23450956.5294    6077213.64548   4724959.86746                  23450955.0994
        35.0004         14.7504
  24322423.3004   -1985499.63349  -1538300.73446                  24322422.9524
        40.0004         22.2504
  23911579.4414    4207255.98849   3269900.39546                  23911576.7704
        40.2504         22.7504
  21019360.8374   -2010440.69549  -1561621.06248                  21019356.8364
        51.5004         40.5004
 04  6 30 16 14 30.0000000  0  9G 3G15G18G 6G21G26G14G16G22
  22848413.0404   -4515019.79749  -3515831.57447                  22848411.5564
        44.2504         30.5004
  21265594.2474   -2778606.77049  -2159687.21147                  21265592.0294
        51.0004         38.2504
  20571932.8474    1836287.64849   1424217.28548                  20571929.9654
        48.0004         40.5004
  23346494.9864    8091801.52349   6287927.94947                  23346495.3204
        42.5004         28.7504
  20792201.9184    2077814.37949   1610717.72348                  20792198.5324
        50.7504         40.0004
  23461118.8234    6130619.69548   4766574.91446                  23461118.1984
        35.7504         16.2504
  24313544.0504   -2032161.74649  -1574660.78946                  24313543.5134
        41.5004         22.7504
  23918713.8854    4244746.87949   3299114.02746                  23918711.3464
        41.5004         22.2504
  21017828.9304   -2018490.69549  -1567893.78948                  21017824.6804
        51.2504         40.5004
 04  6 30 16 14 45.0000000  0  9G 3G15G18G 6G21G26G14G16G22
  22843168.0104   -4542581.79349  -3537308.43747                  22843166.5674
        45.5004         29.0004
  21262283.3614   -2796005.82449  -2173244.90247                  21262281.1004
        51.0004         38.2504
  20575726.4914    1856221.23449   1439749.94548                  20575723.2814
        46.2504         40.5004
  23358301.7714    8153844.86749   6336273.36747                  23358301.8934
        43.7504         28.2504
  20795929.7124    2097403.44549   1625981.92648                  20795926.4834
        49.5004         39.7504
  23471300.9434    6184132.44548   4808273.20746                  23471301.1334
        34.2504         14.7504
  24304666.3084   -2078815.52749  -1611014.35946                  24304665.8904
        41.5004         23.0004
  23925862.0714    4282314.41049   3328387.42646                  23925860.3934
        39.2504         22.7504
  21016314.3644   -2026449.21549  -1574095.22348                  21016310.5774
        51.0004         41.0004
 04  6 30 16 15  0.0000000  0  9G 3G15G18G 6G21G26G14G16G22
  22837940.2044   -4570052.16449  -3558713.91047                  22837939.5444
        45.0004         30.0004
  21258979.8534   -2813364.59849  -2186771.21147                  21258977.9884
        51.0004         38.5004
  20579535.8554    1876240.61349   1455349.45748                  20579532.7344
        44.2504         40.0004
  23370116.9094    8215933.40249   6384654.01647                  23370117.1024
        43.0004         28.0004
  20799670.2874    2117059.90249   1641298.63748                  20799667.0994
        47.5004         40.0004
  23481505.7244    6237751.86748   4850054.55946                  23481504.6134
        35.0004         14.0004
  24295790.2944   -2125460.08249  -1647360.72746                  24295789.2754
        41.0004         23.7504
  23933026.5274    4319958.81349   3357720.66846                  23933024.1454
        41.7504         22.5004
  21014817.4474   -2034315.69149  -1580224.94948                  21014813.9224
        51.0004         40.7504
 04  6 30 16 15 15.0000000  0  9G 3G15G18G 6G21G26G14G16G22
  22832730.5704   -4597430.08249  -3580047.34047                  22832729.3034
        46.0004         30.5004
  21255684.5894   -2830682.28949  -2200265.51647                  21255682.6574
        51.0004         38.5004
  20583361.8064    1896346.44149   1471016.33248                  20583358.9934
        44.2504         40.2504
  23381940.4324    8278067.75049   6433070.32847                  23381940.8514
        42.5004         29.0004
  20803423.7434    2136784.46149   1656668.41448                  20803420.5404
        46.5004         40.0004
  23491729.9224    6291478.45748   4891919.42646                  23491728.2434
        34.7504         14.7504
  24286915.8494   -2172094.47749  -1683699.17646                  24286915.5364
        40.0004         22.2504
  23940203.9804    4357680.36349   3387114.05946                  23940202.6474
        41.5004         23.5004
  21013338.2354   -2042089.53549  -1586282.49248                  21013334.5474
        51.0004         40.2504
 04  6 30 16 15 30.0000000  0  9G 3G15G18G 6G21G26G14G16G22
  22827538.6754   -4624715.77349  -3601308.91447                  22827537.5984
        46.0004         31.0004
  21252397.0314   -2847959.36349  -2213728.16047                  21252395.0164
        50.7504         39.2504
  20587204.1794    1916538.10949   1486750.10548                  20587200.8454
        44.7504         40.2504
  23393772.7054    8340246.98049   6481521.64547                  23393772.6764
        42.7504         27.5004
  20807189.7204    2156576.74249   1672090.97348                  20807186.7974
        47.2504         39.7504
  23501972.5774    6345311.08648   4933866.87146                  23501972.6834
        34.0004         12.5004
  24278042.9994   -2218718.88749  -1720029.86346                  24278042.4384
        39.5004         21.7504
  23947396.4794    4395478.21149   3416566.91046                  23947395.8404
        40.5004         22.2504
  21011876.3154   -2049771.35549  -1592268.31648                  21011872.1904
        50.7504         40.2504
 04  6 30 16 15 45.0000000  0  9G 3G15G18G 6G21G26G14G16G22
  22822363.7844   -4651908.69149  -3622498.18747                  22822362.3124
        46.0004         31.0004
  21249116.9064   -2865195.44149  -2227158.86347                  21249115.0534
        50.0004         39.2504
  20591062.6224    1936815.58649   1502550.73048                  20591059.1264
        47.0004         40.0004
  23405613.6484    8402471.04349   6530007.88747                  23405614.1764
        43.0004         28.0004
  20810969.0514    2176437.05549   1687566.53548                  20810966.2104
        49.0004         40.5004
  23512237.7264    6399249.88748
        34.2504
  24269173.4814   -2265332.65249  -1756352.22346                  24269172.4174
        39.5004         22.7504
  23954603.8344    4433352.08649   3446078.96546                  23954603.1874
        40.5004         22.5004
  21010432.2164   -2057360.95349  -1598182.28148                  21010427.7474
        51.7504         40.2504
 04  6 30 16 16  0.0000000  0  9G 3G15G18G 6G21G26G14G16G22
  22817207.2934   -4679008.77049  -3643615.12147                  22817205.5754
        46.7504         31.0004
  21245844.9764   -2882390.61349  -2240557.69147                  21245843.0964
        50.5004         39.2504
  20594937.7004    1957178.48849   1518417.93048                  20594934.4384
        49.2504         39.7504
  23417463.6874    8464739.41449   6578528.64847                  23417463.0134
        43.0004         28.0004
  20814761.5764    2196365.24649   1703094.98848                  20814758.6504
        50.7504         40.2504
  23522521.7824    6453294.02748
        33.5004
  24260305.4434   -2311935.74649  -1792666.28546                  24260304.1644
        40.7504         21.7504
  23961825.3644    4471301.56349   3475649.97346                  23961824.9104
        39.7504         22.5004
  21009005.1124   -2064858.57849  -1604024.58248                  21009000.8454
        51.5004         40.7504
 04  6 30 16 16 15.0000000  0  9G 3G15G18G 6G21G26G14G16G22
  22812068.0594   -4706015.94949  -3664659.66047                  22812066.3334
        46.2504         30.5004
  21242580.2634   -2899544.84049  -2253924.61347                  21242578.4924
        50.2504         38.7504
  20598828.8724    1977626.41849   1534351.38348                  20598825.4294
        49.7504         40.7504
  23429321.0084    8527051.61749   6627083.54747                  23429320.5834
        43.5004         26.7504
  20818566.4774    2216361.24649   1718676.27348                  20818563.5744
        51.2504         40.0004
  23532826.4794    6507443.01248
        33.7504
  24251438.5274   -2358528.06649  -1828971.97746                  24251438.3584
        41.0004         22.5004
  23969061.7584    4509326.02349   3505279.37546                  23969060.7354
        40.0004         22.0004
  21007596.1114   -2072264.48049  -1609795.41448                  21007591.5824
        52.0004         40.7504
 04  6 30 16 16 30.0000000  0  9G 3G15G18G 6G21G26G14G16G22
  22806945.8964   -4732929.49249  -3685631.24647                  22806944.3564
        46.2504         30.7504
  21239323.9454   -2916657.61349  -2267259.23847                  21239321.6674
        50.5004         38.7504
  20602736.4634    1998159.73049   1550351.36348                  20602732.8594
        50.0004         41.0004
  23441187.1374    8589407.66049   6675672.63747                  23441186.5004
        43.7504         27.7504
  20822384.6994    2236425.41849   1734310.69148                  20822381.6044
        52.0004         40.2504
  23543149.2434    6561696.77048
        34.0004
  24242575.3524   -2405108.74249  -1865268.56646                  24242573.9224
        41.2504         22.7504
  23976311.8694    4547425.65249   3534967.39846                  23976311.3074
        40.7504         23.5004
  21006204.4144   -2079578.26649  -1615494.45748                  21006199.9704
        51.0004         40.5004
 04  6 30 16 16 45.0000000  0  9G 3G15G18G 6G21G26G14G16G22
  22801842.4924   -4759748.71549  -3706529.32847                  22801841.3084
        45.5004         30.2504
  21236075.3574   -2933728.37149  -2280561.11747                  21236073.4734
        50.7504         38.7504
  20606659.7164    2018778.59049   1566418.00848                  20606656.7534
        50.0004         41.0004
  23453061.3914    8651807.85949   6724296.14847                  23453060.6034
        44.5004         27.2504
  20826215.8594    2256558.34049   1749998.67648                  20826212.6064
        51.0004         40.5004
  23553493.4114    6616055.66448
        33.2504
  24233713.1564   -2451677.00449  -1901555.48846                  24233711.8814
        40.5004         22.2504
  23983575.4824    4585600.48849   3564713.96546                  23983575.1364
        40.2504         22.5004
  21004830.3994   -2086799.57449  -1621121.44548                  21004825.7714
        51.2504         40.5004
 04  6 30 16 17  0.0000000  0  9G 3G15G18G 6G21G26G14G16G22
  22796757.0824   -4786473.73449  -3727354.01247                  22796755.3884
        45.0004         31.0004
  21232834.8614   -2950757.31649  -2293830.41847                  21232833.2214
        50.5004         38.2504
  20610599.8164    2039482.35949   1582550.80148                  20610596.7534
        49.2504         41.0004
  23464944.1684    8714251.57849   6772953.54347                  23464943.2344
        43.7504         27.0004
  20830059.9874    2276759.74649   1765740.02348                  20830056.7054
        52.0004         40.5004
  23563858.6304    6670518.78148
        32.5004
  24224853.7614   -2498232.85949  -1937832.74646                  24224852.8374
        42.0004         22.5004
  23990854.5944    4623849.82449   3594518.62146                  23990853.6254
        40.5004         22.7504
  21003473.4994   -2093928.79749  -1626676.68448                  21003469.0254
        51.2504         40.2504
 04  6 30 16 17 15.0000000  0  9G 3G15G18G 6G21G26G14G16G22
  22791689.4894   -4813104.30549  -3748105.09447                  22791687.6444
        46.5004         31.0004
  21229602.3894   -2967744.54349  -2307067.21147                  21229600.4884
        50.0004         38.2504
  20614555.3474    2060270.59849   1598749.43048                  20614552.7484
        46.2504         41.0004
  23476834.9394    8776738.08649   6821644.31347                  23476833.4714
        43.7504         26.7504
  20833917.4084    2297029.53549   1781534.67248                  20833914.1464
        50.0004         40.2504
  23574241.7544    6725085.55148
        33.7504
  24215996.5644   -2544776.29749  -1974100.32846                  24215995.9234
        40.7504         23.0004
  23998146.8914    4662173.07049   3624380.85946                  23998146.1884
        39.5004         24.0004
  21002134.2694   -2100966.21149  -1632160.38748                  21002130.1974
        52.0004         39.7504
 04  6 30 16 17 30.0000000  0  9G 3G15G18G 6G21G26G14G16G22
  22786639.5434   -4839639.53149  -3768781.88347                  22786638.7654
        45.7504         31.2504
  21226377.9024   -2984689.32849  -2320270.94147                  21226375.9084
        50.5004         38.5004
  20618527.7474    2081143.92649   1615014.34848                  20618524.3144
        44.5004         41.0004
  23488734.4804    8839268.02349   6870368.91447                  23488732.8324
        43.2504         26.5004
  20837787.7634    2317368.37149   1797383.11348                  20837784.8034
        46.7504         39.7504
  23584645.3614    6779756.21948
        34.0004
  24207142.9054   -2591306.27349  -2010357.42646                  24207140.6644
        42.5004         23.0004
  24005454.2924    4700570.61349   3654300.99246                  24005452.7554
        39.7504         23.0004
  21000812.7854   -2107911.05149  -1637571.94148                  21000808.6944
        51.0004         40.5004
 04  6 30 16 17 45.0000000  0  9G 3G15G18G 6G21G26G14G16G22
  22781608.9174   -4866078.80549  -3789383.90647                  22781607.4084
        46.7504         31.2504
  21223161.5864   -3001591.16849  -2333441.19547                  21223160.0704
        50.0004         38.5004
  20622515.9054    2102102.56349   1631345.76648                  20622512.5184
        44.5004         40.5004
  23500640.9914    8901841.29749   6919127.25047                  23500639.8884
        43.2504         26.0004
  20841671.2204    2337776.62949   1813285.64548                  20841667.9084
        46.0004         40.0004
  23595069.2694    6834530.85548
        33.7504
  24198290.8654   -2637822.10949  -2046603.48846                  24198289.1314
        41.0004         22.5004
  24012774.9964    4739042.34049   3684278.93446                  24012773.8894
        38.5004         22.7504
  20999508.8234   -2114763.09049  -1642911.19548                  20999504.8514
        51.0004         40.7504
 04  6 30 16 18  0.0000000  0  9G 3G15G18G 6G21G26G14G16G22
  22776595.8754   -4892421.00449  -3809910.28547                  22776594.6194
        46.0004         31.7504
  21219953.7594   -3018449.12149  -2346577.25847                  21219952.0974
        50.0004         38.5004
  20626520.7154    2123147.14849   1647744.14548                  20626517.0484
        44.7504         40.5004
  23512556.8474    8964458.59449   6967919.91047                  23512556.1744
        44.0004         26.0004
  20845568.2714    2358255.25849   1829243.01248                  20845565.0434
        46.0004         40.2504
  23605511.9904    6889409.87148
        31.2504
  24189441.9294   -2684322.52049  -2082837.55946                  24189440.3864
        40.5004         24.0004
  24020110.3514    4777588.93849   3714315.21546                  24020108.6734
        38.2504         23.0004
  20998222.9064   -2121521.62149  -1648177.59048                  20998218.4894
        51.2504         41.0004
 04  6 30 16 18 15.0000000  0  9G 3G15G18G 6G21G26G14G16G22
  22771602.0454   -4918664.87149  -3830360.04347                  22771600.8564
        47.0004         31.2504
  21216754.0974   -3035262.07849  -2359678.25847                  21216752.3824
        50.0004         38.7504
  20630541.6254    2144278.59449   1664210.20748                  20630538.1504
        44.5004         40.2504
  23524481.2584    9027120.41449   7016747.25047                  23524480.6214
        44.2504         26.7504
  20849478.6494    2378805.29349   1845256.02348                  20849475.9134
        46.2504         40.2504
  23615975.2494    6944393.75848
        32.5004
  24180596.8364   -2730806.32049  -2119058.66846                  24180594.9834
        39.2504         22.5004
  24027460.5574    4816210.89849   3744410.21146                  24027458.0794
        38.7504         23.0004
  20996954.6744   -2128185.66849  -1653370.35248                  20996950.6004
        52.0004         40.7504
 04  6 30 16 18 30.0000000  0  9G 3G15G18G 6G21G26G14G16G22
  22766626.7934   -4944809.58649  -3850732.51647                  22766625.5674
        45.7504         30.7504
  21213563.2164   -3052029.38349  -2372743.68447                  21213561.7924
        50.2504         39.0004
  20634579.2844    2165497.11349   1680744.11748                  20634575.7174
        44.5004         41.2504
  23536413.7064    9089827.17249   7065609.59447                  23536413.6754
        44.7504         26.7504
  20853402.8434    2399427.47349   1861325.23848                  20853400.1824
        46.0004         40.5004
  23626459.7324    6999482.94948
        31.5004
  24171753.5314   -2777272.59449  -2155266.09446                  24171752.6184
        40.7504         22.5004
  24034824.1934    4854908.31649   3774564.00846                  24034821.6854
        40.0004         22.7504
  20995704.7064   -2134754.81249  -1658489.15248                  20995700.0954
        51.7504         40.5004
 04  6 30 16 18 45.0000000  0  9G 3G15G18G 6G21G26G14G16G22
  22461877.7694   -4970856.97349  -3871029.18047                  22461875.9674
        47.0004         31.0004
  20910588.7064   -3068752.39549  -2385774.60247                  20910586.9904
        50.0004         38.5004
  20338841.4344    2186803.55149   1697346.52748                  20338838.2364
        46.7504         41.0004
  23248563.2524    9152582.22349   7114509.60247                  23248563.0784
        44.0004         27.0004
  20557549.0394    2420122.80549   1877451.46548                  20557545.5884
        49.5004         40.5004
  23337170.9624    7054680.11348
        32.5004
  23863121.8334   -2823724.39849  -2191462.25846                  23863120.9114
        40.5004         22.2504
  23742409.3184    4893683.12949   3804778.11746                  23742408.1434
        38.5004         22.2504
  20694679.8504   -2141229.82049  -1663534.61748                  20694675.7314
        51.7504         40.2504
 04  6 30 16 19  0.0000000  0  9G 3G15G18G 6G21G26G14G16G22
  22456942.7834   -4996788.59849  -3891235.62147                  22456941.2074
        46.7504         31.2504
  20907418.1944   -3085413.89149  -2398757.58247                  20907416.6464
        50.7504         38.7504
  20342915.0634    2208209.45349   1714026.44148                  20342911.8824
        49.7504         41.0004
  23260515.1554    9215391.76249   7163452.04747                  23260514.8314
        43.2504         25.7504
  20561503.2074    2440903.37549   1893644.10948                  20561499.9564
        52.0004         40.5004
  23347696.3484    7109992.30148
        30.5004
  23854289.4564   -2870140.62149  -2227630.71946                  23854287.9844
        41.0004         23.0004
  23749804.6864    4932544.52749   3835059.68446                  23749803.3274
        38.7504         22.5004
  20693468.6054   -2147595.18049  -1668494.63348                  20693464.6954
        51.2504         40.2504
 04  6 30 16 19 15.0000000  0  9G 3G15G18G 6G21G26G14G16G22
  22452022.9394   -5022645.25849  -3911383.66047                  22452020.7624
        47.2504         31.2504
  20904251.6604   -3102054.40249  -2411724.19947                  20904250.2684
        50.5004         38.2504
  20347000.3444    2229676.77749   1730754.21948                  20346997.1604
        50.0004         41.0004
  23272471.1044    9278220.05949   7212409.14546                  23272470.5164
        44.0004         23.7504
  20565466.7934    2461731.03549   1909873.45748                  20565463.3024
        52.5004         40.2504
  23358234.1724
        28.0004
  23845456.0754   -2916563.41449  -2263804.30546                  23845453.9934
        41.7504         22.5004
  23757209.8194    4971455.25049   3865379.71146                  23757207.9094
        40.0004         23.7504
  20692270.7924   -2153890.87149  -1673400.36348                  20692266.8104
        51.5004         40.7504
 04  6 30 16 19 30.0000000  0  8G 3G15G18G 6G21G14G16G22
  22447119.0474   -5048414.57449  -3931463.63747                  22447116.9914
        47.2504         31.0004
  20901090.9984   -3118661.56649  -2424664.84847                  20901089.8214
        49.5004         39.0004
  20351099.0274    2251217.42649   1747539.13748                  20351096.0124
        50.2504         41.2504
  23284432.3974    9341079.06649   7261390.13746                  23284431.6534
        43.0004         24.7504
  20569441.5874    2482618.00849   1926149.01648                  20569437.8024
        51.7504         40.0004
  23836622.4474   -2962980.36749  -2299973.33246                  23836621.0424
        40.7504         23.0004
  23764626.0334    5010427.03149   3895747.27746                  23764624.0614
        39.7504         24.0004
  20691087.9224   -2160104.75049  -1678242.32848                  20691083.9464
        51.2504         41.7504
 04  6 30 16 19 45.0000000  0  8G 3G15G18G 6G21G14G16G22
  22442239.4574   -5074056.47349  -3951444.34047                  22442236.8914
        47.0004         30.5004
  20897945.0194   -3135195.44949  -2437548.38747                  20897943.2274
        50.5004         39.0004
  20355219.7944    2272870.96149   1764412.00448                  20355216.6024
        50.7504         41.0004
  23296407.2094    9404008.22349   7310425.80946                  23296407.1464
        43.5004         24.2504
  20573434.9714    2503604.12949   1942501.83248                  20573431.1464
        52.2504         40.2504
  23827798.3334   -3009351.33649  -2336106.50846                  23827796.7024
        39.7504         23.0004
  23772061.0604    5049499.46149   3926193.28546                  23772059.7584
        38.7504         22.5004
  20689928.8644   -2166197.13749  -1682989.64548                  20689924.8614
        51.5004         40.7504
 04  6 30 16 20  0.0000000  0  8G 3G15G18G 6G21G14G16G22
  22437380.4934   -5099590.34049  -3971340.84047                  22437378.5164
        47.2504         31.2504
  20894809.0414   -3151675.63349  -2450390.08247                  20894807.4224
        50.7504         38.5004
  20359357.9294    2294617.62149   1781357.45348                  20359354.4654
        49.2504         40.7504
  23308392.8024    9466987.69149   7359500.70347                  23308391.4834
        44.0004         25.7504
  20577443.9344    2524669.88349   1958916.71548                  20577439.8674
        53.5004         41.0004
  23818979.6104   -3055695.56649  -2372218.86746                  23818977.6694
        40.5004         22.5004
  23779512.0354    5088652.42249   3956702.05946                  23779510.0874
        40.0004         23.0004
  20688788.7454   -2172187.70749  -1687657.62148                  20688784.6654
        51.5004         40.7504
 04  6 30 16 20 15.0000000  0  8G 3G15G18G 6G21G14G16G22
  22432540.8234   -5125021.89549  -3991157.63747                  22432538.8224
        46.5004         31.0004
  20891681.8754   -3168108.01649  -2463194.52347                  20891680.4124
        50.7504         38.7504
  20363512.7394    2316451.32449   1798370.73448                  20363509.5434
        49.7504         40.2504
  23320385.5854    9530011.22749   7408609.89146                  23320384.9554
        44.2504         23.7504
  20581466.2924    2545809.37549   1975389.04748                  20581462.6764
        52.2504         41.0004
  23810164.4814   -3102018.75849  -2408314.82846                  23810163.3244
        40.7504         22.5004
  23786976.2474    5127879.65249   3987268.69146                  23786974.7864
        39.0004         22.2504
  20687667.1884   -2178082.41849  -1692250.90648                  20687662.8004
        51.2504         41.2504
 04  6 30 16 20 30.0000000  0  9G 3G15G18G 6G21G26G14G16G22
  22427720.5724   -5150352.75849  -4010895.95347                  22427718.9684
        46.7504         31.0004
  20888563.7394   -3184494.25449  -2475963.01247                  20888562.1694
        50.0004         39.0004
  20367683.6804    2338370.08649   1815450.28548                  20367680.3044
        49.2504         40.5004
  23332386.8874    9593076.60249   7457751.69546                  23332386.7514
        43.2504         24.7504
  20585502.4784    2567020.80549   1991917.43448                  20585498.7454
        52.0004         40.5004
  23411244.8384    7443947.87958
        29.0004
  23801353.4484   -3148322.29749  -2444395.46946                  23801351.5634
        41.0004         22.5004
  23794454.3064    5167178.99249   4017891.50846                  23794453.7774
        38.0004         22.2504
  20686563.1894   -2183883.26649  -1696771.04748                  20686559.1844
        52.0004         40.5004
 04  6 30 16 20 45.0000000  0  8G 3G15G18G 6G21G14G16G22
  22422919.5414   -5175583.77349  -4030556.47347                  22422917.1244
        46.7504         31.2504
  20885454.0804   -3200835.43449  -2488696.39147                  20885452.3584
        50.0004         38.7504
  20371870.4894    2360372.40649   1832594.94948                  20371867.7244
        50.0004         41.0004
  23344394.6554    9656182.35549   7506924.97346                  23344395.7124
        43.0004         23.5004
  20589552.5954    2588303.07849   2008501.02748                  20589548.7654
        52.0004         40.0004
  23792545.6204   -3194607.07849  -2480461.48446                  23792543.5824
        39.5004         24.0004
  23801946.4094    5206548.86349   4048569.33246                  23801945.3284
        38.5004         22.5004
  20685477.1154   -2189591.49649  -1701219.00448                  20685472.5754
        52.0004         41.0004
 04  6 30 16 21  0.0000000  0  8G 3G15G18G 6G21G14G16G22
  22418137.1624   -5200714.18749  -4050138.60547                  22418135.4324
        46.5004         31.2504
  20882353.3464   -3217130.85249  -2501394.11747                  20882351.1744
        50.0004         38.7504
  20376073.7504    2382458.69949   1849805.03548                  20376070.7014
        50.2504         41.0004
  23356411.0364    9719328.71949   7556129.86346                  23356411.2394
        42.7504         24.5004
  20593616.2144    2609656.91849   2025140.38748                  20593612.4124
        52.2504         40.5004
  23783740.8754   -3240872.22349  -2516512.23046                  23783739.9504
        40.7504         23.2504
  23809451.7814    5245989.37949   4079302.17246                  23809450.6864
        38.7504         22.5004
  20684408.2224   -2195206.52049  -1705594.34448                  20684404.3444
        51.2504         40.5004
 04  6 30 16 21 15.0000000  0  8G 3G15G18G 6G21G14G16G22
  22413374.2014   -5225743.10949  -4069641.64147                  22413373.0354
        46.7504         31.5004
  20879261.2684   -3233379.81249  -2514055.64547                  20879259.6874
        50.2504         39.0004
  20380292.5524    2404629.28949   1867080.81648                  20380289.7454
        50.0004         41.2504
  23368435.4834    9782516.08649   7605366.73046                  23368435.9314
        42.7504         25.2504
  20597693.5524    2631082.87549   2041835.93048                  20597690.0794
        52.5004         40.7504
  23774941.3614   -3287116.78949  -2552546.89546                  23774939.7144
        41.2504         23.0004
  23816970.2714    5285500.90249   4110090.34446                  23816969.6654
        38.0004         22.7504
  20683357.7424   -2200727.82849  -1709896.66048                  20683353.7654
        51.5004         40.7504
 04  6 30 16 21 30.0000000  0  8G 3G15G18G 6G21G14G16G22
  22408630.7164   -5250670.44149  -4089065.52747                  22408629.2304
        46.2504         31.2504
  20876177.8144   -3249582.37949  -2526681.01247                  20876176.3894
        49.7504         39.0004
  20384527.2214    2426883.90649   1884422.07048                  20384524.4404
        50.5004         41.5004
  23380467.2004    9845743.73049   7654634.97746                  23380466.9084
        42.5004         25.2504
  20601784.3124    2652580.89149   2058587.62548                  20601781.1114
        52.0004         40.5004
  23766145.5194   -3333340.69549  -2588565.49246                  23766143.3914
        40.2504         23.2504
  23824501.8894    5325082.71149   4140933.27746                  23824501.8924
        39.5004         21.7504
  20682325.1184   -2206155.69949  -1714126.16048                  20682320.7184
        51.7504         40.5004
 04  6 30 16 21 45.0000000  0  8G 3G15G18G 6G21G14G16G22
  22403906.8784   -5275494.14149  -4108408.66847                  22403905.6354
        46.2504         31.7504
  20873103.8134   -3265736.64849  -2539268.73847                  20873102.2724
        50.5004         39.0004
  20388779.1324    2449223.99649   1901829.93448                  20388775.3164
        50.5004         41.5004
  23392507.8954    9909013.11349   7703935.75446                  23392506.8824
        43.2504         23.5004
  20605889.1624    2674152.61349   2075396.74648                  20605885.9324
        51.5004         40.0004
  23757353.5054   -3379541.87149  -2624566.37946                  23757351.1994
        42.5004         22.2504
  23832048.5224    5364736.25049   4171832.10546                  23832047.6304
        39.2504         22.2504
  20681310.1244   -2211488.59849  -1718281.65248                  20681305.8284
        51.2504         41.0004
 04  6 30 16 22  0.0000000  0  8G 3G15G18G 6G21G14G16G22
  22399203.4034   -5300214.08649  -4127670.94947                  22399201.4654
        46.2504         31.2504
  20870038.9904   -3281842.72349  -2551818.93047                  20870037.2794
        50.5004         38.7504
  20393046.0434    2471649.29749   1919304.19148                  20393042.8374
        50.0004         40.7504
  23404556.0034    9972323.98849   7753268.87946                  23404554.6904
        45.0004         24.7504
  20610008.0454    2695797.94549   2092263.23848                  20610004.8814
        51.7504         39.7504
  23748565.8694   -3425720.23449  -2660549.46946                  23748563.9414
        42.0004         22.5004
  23839607.8284    5404460.91049   4202786.37146                  23839607.1104
        40.2504         22.7504
  20680313.2544   -2216726.65249  -1722363.25448                  20680309.1434
        51.5004         41.5004
 04  6 30 16 22 15.0000000  0  8G 3G15G18G 6G21G14G16G22
  22394518.5664   -5324830.32049  -4146852.42247                  22394517.0374
        46.2504         30.7504
  20866983.2254   -3297900.75849  -2564331.67648                  20866981.3344
        50.5004         39.5004
  20397329.8464    2494159.19549   1936844.36348                  20397326.4824
        50.0004         41.5004
  23416610.6954   10035675.60249   7802633.74647                  23416610.0694
        44.5004         26.7504
  20614141.1234    2717516.64149   2109186.89148                  20614137.9204
        51.7504         40.2504
  23739782.2804   -3471875.68049  -2696514.70346                  23739780.6774
        42.0004         23.0004
  23847180.2774    5444256.12149   4233795.59446                  23847179.1784
        39.7504         22.5004
  20679334.6074   -2221870.31249  -1726371.28548                  20679330.0584
        52.5004         40.7504
 04  6 30 16 22 30.0000000  0  8G 3G15G18G 6G21G14G16G22
  22389853.7924   -5349342.99249  -4165953.19947                  22389852.8224
        46.0004         30.7504
  20863936.1304   -3313910.95749  -2576807.14548                  20863934.8194
        49.0004         39.5004
  20401629.1384    2516753.11749   1954450.02048                  20401625.7944
        50.2504         41.2504
  23428674.0644   10099067.30549   7852029.83647                  23428673.6274
        45.0004         26.7504
  20618287.8324    2739308.30949   2126167.40248                  20618284.8704
        51.5004         40.2504
  23731003.5214   -3518008.32449  -2732462.19546                  23731001.6844
        39.7504         25.0004
  23854767.2434    5484121.09449   4264859.17246                  23854765.6634
        40.0004         21.7504
  20678373.3814   -2226920.03149  -1730306.12148                  20678369.5394
        51.0004         41.0004
 04  6 30 16 22 45.0000000  0  8G 3G15G18G 6G21G14G16G22
  22385209.2564   -5373751.68049  -4184972.93447                  22385207.0844
        46.0004         32.0004
  20860899.2294   -3329873.09049  -2589245.16847                  20860896.8704
        50.0004         38.5004
  20405944.5164    2539431.12149   1972121.18448                  20405941.1744
        50.5004         41.5004
  23440744.6544   10162498.89549   7901457.00046                  23440744.2924
        44.0004         25.5004
  20622448.5064    2761173.29349   2143205.04348                  20622445.6244
        51.5004         40.7504
  23722228.6664   -3564117.55949  -2768391.43046                  23722227.3574
        40.0004         22.5004
  23862366.2664    5524055.55149   4295976.89846                  23862364.4464
        40.2504         22.2504
  20677430.6134   -2231875.67649  -1734167.66048                  20677426.6044
        51.2504         41.7504
 04  6 30 16 23  0.0000000  0  8G 3G15G18G 6G21G14G16G22
  22380584.1494   -5398056.58249  -4203911.82047                  22380582.4264
        46.5004         31.7504
  20857870.6864   -3345787.41449  -2601645.93447                  20857868.9204
        50.5004         38.7504
  20410275.7824    2562192.48049   1989857.31348                  20410272.7904
        50.0004         42.0004
  23452822.0904   10225969.61749   7950914.65247                  23452822.2424
        43.5004         26.0004
  20626623.7204    2783111.27349   2160299.56648                  20626620.1764
        52.0004         41.2504
  23713458.8074   -3610203.64549  -2804302.63346                  23713457.2354
        41.5004         24.0004
  23869978.9984    5564058.67249   4327148.11746                  23869977.4294
        40.5004         22.0004
  20676505.6954   -2236737.69949  -1737956.24648                  20676501.5234
        51.5004         41.2504
 04  6 30 16 23 15.0000000  0  8G 3G15G18G 6G21G14G16G22
  22375979.1934   -5422256.74249  -4222769.07447                  22375977.7014
        46.5004         31.7504
  20854851.2784   -3361653.11349  -2614008.80147                  20854849.6164
        49.7504         39.0004
  20414622.7634    2585037.66049   2007658.74248                  20414620.2324
        49.2504         41.0004
  23464907.9784   10289479.81349   8000403.07847                  23464908.1644
        43.5004         26.7504
  20630812.3814    2805122.88349   2177451.46548                  20630809.0344
        51.7504         41.2504
  23704694.3894   -3656265.43749  -2840194.89846                  23704692.0134
        39.5004         22.7504
  23877603.6024    5604130.78949   4358373.11746                  23877602.8614
        40.0004         22.2504
  20675597.7114   -2241505.59849  -1741671.49248                  20675594.3414
        51.5004         41.7504
 04  6 30 16 23 30.0000000  0  8G 3G15G18G 6G21G14G16G22
  22371393.2994   -5446352.11349  -4241544.66847                  22371392.2584
        45.5004         32.0004
  20851841.6924   -3377470.38749  -2626333.94947                  20851839.7824
        50.7504         38.7504
  20418986.1814    2607966.30149   2025525.20748                  20418983.4854
        44.7504         41.2504
  23477001.5554   10353028.94949   8049921.84046                  23477001.7184
        43.0004         25.2504
  20635014.8534    2827208.01249   2194660.65248                  20635011.6704
        48.0004         41.0004
  23695933.4864   -3702302.89849  -2876068.20346                  23695931.6704
        41.7504         23.0004
  23885242.6864    5644271.35249   4389651.41046                  23885241.6284
        39.7504         22.0004
  20674708.7244   -2246179.64849  -1745313.60248                  20674704.9224
        51.5004         41.2504
 04  6 30 16 23 45.0000000  0  8G 3G15G18G 6G21G14G16G22
  22366828.8994   -5470342.45749  -4260238.44547                  22366827.2724
        46.0004         32.0004
  20848841.0854   -3393239.01249  -2638621.18047                  20848839.2564
        50.5004         39.2504
  20423365.3664    2630978.16049   2043456.51648                  20423362.2944
        45.5004         41.5004
  23489101.7074   10416616.83649   8099470.79747                  23489101.5094
        42.0004         25.7504
  20639231.4604    2849366.53149   2211927.02048                  20639228.2254
        48.0004         40.2504
  23687177.6344   -3748315.73849  -2911922.33646                  23687176.0584
        41.7504         23.2504
  23892894.3194    5684479.95749   4420982.76646                  23892892.1384
        39.5004         21.5004
  20673837.1844   -2250759.99649  -1748882.69948                  20673833.1134
        52.0004         41.2504
 04  6 30 16 24  0.0000000  0  8G 3G15G18G 6G21G14G16G22
  22362282.8544   -5494227.84049  -4278850.42647                  22362281.9104
        46.2504         31.7504
  20845849.2034   -3408959.25849  -2650870.71548                  20845847.7894
        50.5004         39.5004
  20427760.5034    2654072.69549   2061452.25848                  20427757.3714
        50.2504         41.2504
  23501209.2694   10480242.82849   8149049.41846                  23501209.5694
        42.5004         25.0004
  20643461.8374    2871598.35249   2229250.51248                  20643458.7764
        51.7504         40.2504
  23678426.5394   -3794303.87949  -2947757.24246                  23678425.3214
        40.5004         23.5004
  23900558.4364    5724755.99249   4452366.66046                  23900556.1584
        38.7504         22.2504
  20672983.0894   -2255246.93449  -1752379.00448                  20672979.2954
        51.7504         40.7504
 04  6 30 16 24 15.0000000  0  8G 3G15G18G 6G21G14G16G22
  22357757.8384   -5518008.37549  -4297380.71147                  22357756.2774
        46.5004         32.0004
  20842867.1694   -3424631.32449  -2663082.71147                  20842865.6904
        50.2504         39.2504
  20432170.5584    2677249.42249   2079512.05148                  20432167.7994
        51.2504         41.7504
  23513324.3354   10543906.17649   8198657.19546                  23513324.4404
        43.7504         24.7504
  20647706.5284    2893903.18449   2246630.89848                  20647703.0094
        51.5004         40.2504
  23669679.2514   -3840267.35549  -2983572.89547                  23669678.5704
        41.0004         25.7504
  23908236.1274    5765098.59849   4483802.44146                  23908233.3984
        40.7504         22.2504
  20672146.9854   -2259640.90249  -1755802.87148                  20672142.7364
        51.5004         41.0004
 04  6 30 16 24 30.0000000  0  8G 3G15G18G 6G21G14G16G22
  22353252.7264   -5541683.78149  -4315829.05147                  22353251.2674
        45.2504         32.0004
  20839894.0744   -3440255.03949  -2675257.03547                  20839892.0844
        50.2504         39.0004
  20436596.2374    2700508.04349   2097635.64548                  20436593.8644
        50.5004         41.5004
  23525445.5244   10607606.63349   8248293.85246                  23525445.9614
        42.5004         24.0004
  20651964.5904    2916281.14849   2264068.26248                  20651961.6604
        50.7504         40.0004
  23660937.4554   -3886205.92249  -3019369.14147                  23660936.8384
        41.7504         25.7504
  23915925.4164    5805507.43449   4515289.80546                  23915922.6854
        40.0004         22.5004
  20671328.5374   -2263942.02749  -1759154.39148                  20671324.1854
        51.0004         41.2504
 04  6 30 16 24 45.0000000  0  8G 3G15G18G 6G21G14G16G22
  22348767.2974   -5565254.01649  -4334195.46947                  22348765.8574
        44.2504         32.0004
  20836930.1324   -3455830.59849  -2687393.82447                  20836927.9654
        50.5004         38.7504
  20441038.1574    2723848.18449   2115822.76248                  20441034.8974
        49.5004         41.5004
  23537575.2604   10671343.57049   8297958.94146                  23537574.1564
        43.7504         24.0004
  20656236.9654    2938731.80549   2281562.27748                  20656233.3984
        51.5004         39.7504
  23652200.8544   -3932119.46949  -3055145.88346                  23652200.0564
        41.7504         25.5004
  23923627.3174    5845981.88349   4546828.30946                  23923625.2484
        40.0004         21.7504
  20670527.5614   -2268150.62149  -1762433.81248                  20670523.2964
        51.5004         41.2504
 04  6 30 16 25  0.0000000  0  8G 3G15G18G 6G21G14G16G22
  22344302.0234   -5588718.97349  -4352479.84447                  22344300.1574
        46.0004         31.0004
  20833975.3084   -3471357.89549  -2699493.01647                  20833973.3194
        50.5004         38.7504
  20445494.7934    2747269.64549   2134073.23848                  20445491.4674
        50.0004         41.5004
  23549710.3644   10735116.57849   8347652.14846                  23549709.6704
        43.2504         25.5004
  20660523.1584    2961255.28549   2299113.03548                  20660519.9244
        51.5004         40.0004
  23643468.8324   -3978007.55549  -3090902.80946                  23643467.4084
        42.2504         25.5004
  23931342.0914    5886521.45749   4578417.55546                  23931340.1034
        40.2504         22.2504
  20669744.1814   -2272266.80149  -1765641.22348                  20669739.7694
        51.2504         41.0004
 04  6 30 16 25 15.0000000  0  8G 3G15G18G 6G21G14G16G22
  22339856.9634   -5612077.74649  -4370681.46547                  22339855.3714
        46.2504         32.0004
  20831029.9644   -3486836.20749  -2711554.03147                  20831028.1344
        50.0004         39.2504
  20449967.4324    2770772.75449   2152387.35548                  20449964.2274
        50.2504         41.0004
  23561853.2614   10798926.16449   8397373.85546                  23561852.2374
        43.2504         23.0004
  20664823.0324    2983852.20749   2316721.03148                  20664819.7034
        51.7504         39.5004
  23634741.2214   -4023869.52049  -3126639.38746                  23634740.0584
        42.5004         25.5004
  23939068.1044    5927126.47349   4610057.79346                  23939067.5004
        39.7504         22.5004
  20668978.6284   -2276290.03949  -1768776.20348                  20668974.6344
        52.0004         41.0004
 04  6 30 16 25 30.0000000  0  8G 3G15G18G 6G21G14G16G22
  22335432.5194   -5635330.62149  -4388800.58647                  22335430.5304
        44.7504         31.5004
  20828094.0254   -3502265.98049  -2723577.21547                  20828091.8974
        50.7504         39.0004
  20454454.9074    2794356.71149   2170764.45348                  20454452.1224
        50.0004         41.5004
  23574002.0124   10862771.23049   8447123.22746                  23574001.2824
        42.2504         21.7504
  20669136.8784    3006522.15249   2334385.91848                  20669133.4984
        50.7504         39.5004
  23626019.2694   -4069705.55149  -3162355.73047                  23626017.2694
        41.0004         25.7504
  23946807.2574    5967795.96549   4641748.28546                  23946806.5884
        39.0004         22.2504
  20668230.4934   -2280221.05949  -1771839.32848                  20668226.8184
        51.0004         41.0004
 04  6 30 16 25 45.0000000  0  8G 3G15G18G 6G21G14G16G22
  22331027.7514   -5658477.85949  -4406837.38747                  22331025.6954
        46.2504         32.2504
  20825166.6024   -3517647.53149  -2735562.83247                  20825165.0564
        50.5004         39.0004
  20458958.3124    2818020.92249   2189204.10248                  20458955.3704
        50.5004         41.0004
  23586158.4304   10926651.03549   8496899.64846                  23586157.4544
        42.0004         23.2504
  20673464.8804    3029264.71949   2352107.39148                  20673461.5734
        51.0004         40.0004
  23617301.9604   -4115515.63349  -3198051.87147                  23617300.1214
        43.5004         27.5004
  23954559.1844    6008529.03949   4673488.30546                  23954557.5614
        39.2504         22.0004
  20667500.0694   -2284060.35249  -1774830.98448                  20667495.9634
        51.2504         40.5004
 04  6 30 16 26  0.0000000  0  8G 3G15G18G 6G21G14G16G22
  22326642.8614   -5681519.63749  -4424792.00847                  22326641.0034
        45.5004         32.7504
  20822248.9634   -3532981.23449  -2747511.18048                  20822246.8584
        51.2504         39.5004
  20463476.7844    2841764.65649   2207705.69148                  20463474.0514
        50.2504         41.2504
  23598321.1904   10990564.83249   8546702.56346                  23598320.4734
        43.0004         24.2504
  20677806.3844    3052079.30149   2369884.98448                  20677802.8094
        51.0004         40.0004
  23608588.9514   -4161300.03549  -3233727.98847                  23608587.8884
        43.2504         26.5004
  23962321.5544    6049324.83249   4705277.20346                  23962320.9934
        39.5004         23.0004
  20666786.8294   -2287808.46949  -1777751.59048                  20666782.8944
        52.0004         41.0004
 04  6 30 16 26 15.0000000  0  8G 3G15G18G 6G21G14G16G22
  22322278.1474   -5704455.75449  -4442664.29347                  22322276.3804
        45.7504         32.0004
  20819340.2694   -3548267.09449  -2759422.23047                  20819337.9534
        51.0004         39.0004
  20468010.1694    2865587.67249   2226269.08648                  20468007.2194
        50.5004         41.2504
  23610489.6744   11054512.16449   8596531.61346                  23610489.2604
        43.5004         22.5004
  20682161.5324    3074965.96149   2387718.73847                  20682157.9164
        51.2504         39.0004
  23599881.7394   -4207058.52349  -3269383.91846                  23599879.9674
        42.2504         25.5004
  23970096.9984    6090182.89549   4737114.63346                  23970096.6424
        38.5004         22.5004
  20666091.0254   -2291465.59049  -1780601.27748                  20666086.6614
        52.0004         41.2504
 04  6 30 16 26 30.0000000  0  8G 3G15G18G 6G21G14G16G22
  22317933.7044   -5727285.77749  -4460453.91447                  22317932.0534
        45.7504         32.5004
  20816440.5694   -3563504.64849  -2771295.64847                  20816438.4294
        51.0004         39.2504
  20472558.3884    2889489.88749   2244894.19148                  20472555.5534
        46.0004         41.5004
  23622664.2194   11118493.03949   8646386.77746                  23622664.3204
        43.5004         25.0004
  20686530.6584    3097925.04749   2405608.93048                  20686527.1464
        48.7504         39.7504
  23591178.5754   -4252790.47349  -3305019.21646                  23591177.4944
        42.0004         25.0004
  23977883.9804    6131103.02749   4769000.40646                  23977883.0914
        38.7504         23.2504
  20665412.2274   -2295031.50849  -1783379.92248                  20665408.4954
        51.5004         41.5004
 04  6 30 16 26 45.0000000  0  8G 3G15G18G 6G21G14G16G22
  22313609.3514   -5750009.57049  -4478160.75847                  22313608.5174
        45.2504         32.0004
  20813550.0644   -3578693.92249  -2783131.44147                  20813547.9854
        50.5004         39.0004
  20477122.0284    2913470.94149   2263580.71948                  20477119.0714
        47.5004         41.2504
  23634846.0924   11182506.97349   8696267.69946                  23634846.0244
        43.0004         24.2504
  20690913.3474    3120956.44149   2423555.47348                  20690910.1664
        49.0004         40.0004
  23582481.8094   -4298495.75449  -3340633.66446                  23582479.9664
        43.0004         25.0004
  23985682.0064    6172084.78149   4800934.22346                  23985681.6154
        37.7504         22.2504
  20664751.3004   -2298506.56249  -1786087.74248                  20664747.4974
        51.5004         41.5004
 04  6 30 16 27  0.0000000  0  8G 3G15G18G 6G21G14G16G22
  22309305.2624   -5772627.30549  -4495784.96547                  22309303.9394
        45.5004         32.0004
  20810668.7094   -3593835.19949  -2794929.82447                  20810666.5624
        50.5004         39.0004
  20481700.2484    2937530.46949   2282328.40248                  20481697.0444
        49.7504         40.7504
  23647034.0354   11246553.31649   8746173.91046                  23647034.0964
        43.5004         24.2504
  20695309.6584    3144059.79349   2441558.07848                  20695306.3874
        51.0004         40.0004
  23573788.9864   -4344174.36349  -3376227.35546                  23573787.7034
        42.2504         25.2504
  23993492.5584    6213127.46549   4832915.48446                  23993491.9894
        39.5004         22.5004
  20664106.9114   -2301891.17649  -1788725.10948                  20664103.1564
        52.0004         41.5004
 04  6 30 16 27 15.0000000  0  8G 3G15G18G 6G21G14G16G22
  22305021.4374   -5795138.68449  -4513326.29747                  22305019.8684
        46.5004         32.5004
  20807796.8294   -3608928.23449  -2806690.63348                  20807794.4574
        50.5004         39.5004
  20486293.4834    2961668.19549   2301137.01648                  20486290.4134
        49.7504         41.0004
  23659228.1854   11310631.76249   8796105.11346                  23659227.6144
        43.5004         24.0004
  20699719.7944    3167235.07849   2459616.73848                  20699716.6954
        51.0004         40.0004
  23565101.4944   -4389825.98849  -3411800.01646                  23565100.8314
        42.2504         25.2504
  24001314.9324    6254230.60549   4864943.86746                  24001313.2604
        40.0004         22.2504
  20663480.1054   -2305185.35949  -1791291.98848                  20663475.8574
        52.0004         41.5004
 04  6 30 16 27 30.0000000  0  8G 3G15G18G 6G21G14G16G22
  22300758.0144   -5817543.94549  -4530784.93047                  22300756.3534
        46.5004         32.2504
  20804933.6744   -3623973.60549  -2818414.29347                  20804931.4174
        51.2504         39.0004
  20490901.6854    2985883.28149   2320005.91048                  20490898.3174
        50.7504         41.2504
  23671427.4694   11374741.34849   8846060.59846                  23671427.2154
        43.5004         24.0004
  20704143.2864    3190481.83249   2477731.08248                  20704140.3384
        50.7504         40.5004
  23556419.5414   -4435450.92649  -3447351.89546                  23556418.3724
        42.7504         24.0004
  24009147.8384    6295393.35549   4897018.69946                  24009146.3554
        40.7504         22.0004
  20662870.1154   -2308389.85249  -1793788.99248                  20662866.1944
        52.0004         41.7504
 04  6 30 16 27 45.0000000  0  8G 3G15G18G 6G21G14G16G22
  22296514.7974   -5839842.98849  -4548160.80947                  22296513.3944
        45.7504         32.5004
  20802079.7554   -3638971.28149  -2830100.78947                  20802077.5694
        50.2504         39.2504
  20495524.3184    3010175.44949   2338934.86748                  20495521.2124
        50.5004         41.2504
  23683633.2024   11438881.65649   8896039.99646                  23683632.3864
        44.2504         23.0004
  20708580.8684    3213799.98449   2495901.05948                  20708577.7714
        50.7504         40.0004
  23547742.8064   -4481048.91049  -3482882.75846                  23547741.4594
        38.7504         24.5004
  24016992.2534    6336615.03149   4929139.45346                  24016990.5504
        40.0004         22.5004
  20662277.6844   -2311504.87549  -1796216.28548                  20662273.3834
        52.0004         41.5004
 04  6 30 16 28  0.0000000  0  8G 3G15G18G 6G21G14G16G22
  22292291.9804   -5862035.33649  -4565453.54747                  22292290.1864
        46.2504         33.0004
  20799234.8744   -3653920.86349  -2841749.80548                  20799232.7244
        51.5004         40.0004
  20500161.3984    3034544.80949   2357923.97748                  20500158.6444
        48.5004         41.5004
  23695844.7344   11503052.75449   8946043.43446                  23695843.4154
        44.2504         22.5004
  20713031.5854    3237189.96549   2514127.01648                  20713028.5234
        49.7504         40.2504
  23539071.1804   -4526619.32849  -3518392.16446                  23539069.2304
        41.5004         24.7504
  24024846.8714    6377895.66049   4961306.13346                  24024845.5724
        41.0004         22.2504
  20661701.8434   -2314530.19549  -1798573.66448                  20661697.4934
        52.0004         41.2504
 04  6 30 16 28 15.0000000  0  8G 3G15G18G 6G21G14G16G22
  22288089.0074   -5884120.70349  -4582662.91847                  22288087.6324
        44.5004         32.7504
  20796399.2124   -3668822.05149  -2853361.11748                  20796396.9164
        50.7504         39.5004
  20504813.1864    3058991.21949   2376973.12548                  20504810.5864
        46.5004         41.2504
  23708061.8144   11567254.37949   8996070.61746                  23708060.6164
        44.0004         24.0004
  20717496.2674    3260651.83249   2532408.99248                  20717493.0414
        47.5004         40.0004
  23530404.6584   -4572161.76649  -3553879.75447                  23530402.9804
        41.2504         26.0004
  24032713.7314    6419234.98849   4993518.55946                  24032712.8014
        41.0004         22.5004
  20661143.3174   -2317465.75049  -1800861.10248                  20661138.9944
        51.7504         41.2504
 04  6 30 16 28 30.0000000  0  8G 3G15G18G 6G21G14G16G22
  22283906.7624   -5906099.23449  -4599789.03147                  22283905.2254
        45.2504         32.5004
  20793572.7804   -3683675.25049  -2864935.02748                  20793570.5154
        50.5004         39.7504
  20509480.0864    3083513.98449   2396081.77348                  20509476.9294
        50.2504         41.2504
  23720284.7084   11631485.76249   9046120.99646                  23720284.5934
        43.5004         24.0004
  20721974.7444    3284185.53549   2550746.94148                  20721971.5134
        50.7504         40.5004
  23521743.0674   -4617676.35549  -3589345.63747                  23521742.0084
        42.0004         25.7504
  24040591.5724    6460632.14549   5025776.05146                  24040590.2814
        40.7504         22.5004
  20660601.6274   -2320312.11349  -1803079.05148                  20660597.3684
        51.2504         41.7504
 04  6 30 16 28 45.0000000  0  8G 3G15G18G 6G21G14G16G22
  22279744.8734   -5927970.39549  -4616831.49247                  22279743.4124
        44.7504         32.7504
  20790755.3894   -3698480.04349  -2876471.22748                  20790753.6464
        50.7504         39.5004
  20514161.3764    3108113.14149   2415249.94548                  20514158.1414
        51.2504         40.7504
  23732513.2314   11695746.70749   9096194.39847                  23732512.8254
        44.5004         26.0004
  20726466.6954    3307790.79749   2569140.64148                  20726463.7374
        50.5004         40.2504
  23513087.9674   -4663162.57049  -3624789.43047                  23513086.2444
        43.7504         27.0004
  24048480.3234    6502086.99649   5058078.50046                  24048479.1504
        39.5004         22.5004
  20660077.2554   -2323069.17649  -1805227.40248                  20660072.6964
        51.2504         41.0004
 04  6 30 16 29  0.0000000  0  8G 3G15G18G 6G21G14G16G22
  22275603.2044   -5949733.74249  -4633789.93047                  22275602.3854
        45.0004         32.7504
  20787947.7964   -3713235.92649  -2887969.32048                  20787945.4904
        50.7504         39.7504
  20518856.6384    3132788.93449   2434477.82448                  20518853.5544
        50.5004         40.5004
  23744746.8754   11760037.36749   9146290.98047                  23744747.5954
        43.0004         26.2504
  20730972.3224    3331468.15649   2587590.53148                  20730969.1704
        50.7504         39.7504
  23504437.9434   -4708619.64549  -3660210.51647                  23504435.9534
        42.5004         27.2504
  24056379.6854    6543599.37949   5090425.77346                  24056378.7404
        40.2504         22.5004
  20659569.0934   -2325736.67249  -1807305.96548                  20659565.2084
        51.5004         41.2504
 04  6 30 16 29 15.0000000  0  8G 3G15G18G 6G21G14G16G22
  22271482.1314   -5971389.17649  -4650664.28947                  22271480.4214
        46.0004         32.5004
  20785148.8074   -3727943.11749  -2899429.46148                  20785146.9024
        50.5004         39.7504
  20523566.9394    3157540.81649   2453765.00848                  20523564.2184
        50.7504         40.7504
  23756986.8074   11824357.06649   9196410.14846                  23756988.0414
        43.2504         24.2504
  20735491.7904    3355217.41049   2606096.43848                  20735488.5544
        52.0004         40.2504
  23495792.4874   -4754047.71949  -3695608.98846                  23495791.6534
        42.5004         25.5004
  24064290.4164    6585168.74249   5122817.45346                  24064288.9564
        40.2504         22.0004
  20659078.7894   -2328315.07849  -1809315.11348                  20659074.5894
        52.0004         41.2504
 04  6 30 16 29 30.0000000  0  8G 3G15G18G 6G21G14G16G22
  22267382.2744   -5992936.93049  -4667454.73447                  22267380.7974
        46.5004         32.5004
  20782359.5454   -3742601.75849  -2910851.77748                  20782357.3744
        51.0004         39.5004
  20528291.4244    3182368.23849   2473111.03948                  20528288.6144
        49.5004         40.7504
  23769231.9834   11888705.09049   9246551.44146                  23769232.1454
        44.0004         25.2504
  20740024.4684    3379038.26249   2624658.12948                  20740021.6634
        51.7504         39.5004
  23487153.6974   -4799446.82049  -3730984.88747                  23487152.2954
        43.0004         26.7504
  24072211.2304    6626794.25449   5155252.87946                  24072209.7714
        40.5004         22.2504
  20658605.0124   -2330804.81249  -1811255.16048                  20658600.5264
        52.5004         42.0004
 04  6 30 16 29 45.0000000  0  8G 3G15G18G 6G21G14G16G22
  22263302.3414   -6014377.37149  -4684161.55947                  22263300.7404
        45.5004         33.0004
  20779578.9584   -3757212.35249  -2922236.65247                  20779577.4234
        50.7504         39.2504
  20533029.9434    3207270.34849   2492515.28148                  20533026.8814
        50.5004         41.5004
  23781482.5584   11953080.58249   9296714.10946                  23781482.3254
        43.0004         24.5004
  20744570.9454    3402930.13749   2643275.16848                  20744567.7434
        51.0004         40.2504
  23478519.7294   -4844817.14849  -3766338.35247                  23478519.3144
        42.5004         26.7504
  24080142.2034    6668474.90249   5187731.24646                  24080141.0684
        40.2504         22.7504
  20658148.0134   -2333206.44149  -1813126.55948                  20658143.8244
        52.2504         41.7504
 04  6 30 16 30  0.0000000  0  8G 3G15G18G 6G21G14G16G22
  22259242.7354   -6035709.41049  -4700783.93447                  22259241.4804
        47.0004         32.7504
  20776808.0124   -3771773.93749  -2933583.33648                  20776806.2284
        50.7504         39.7504
  20537783.2944    3232247.67249   2511978.12948                  20537780.0404
        50.7504         40.7504
  23793737.7404   12017484.05149   9346898.53547                  23793738.3404
        42.2504         25.7504
  20749131.2114    3426893.88749   2661948.21548                  20749127.8064
        51.7504         40.0004
  23469892.0134   -4890157.53549  -3801668.49647                  23469891.0714
        43.0004         26.0004
  24088085.2194    6710211.17249   5220252.98846                  24088083.3544
        40.2504         22.0004
  20657707.6874   -2335519.35249  -1814928.83248                  20657703.8594
        51.5004         41.0004
 04  6 30 16 30 15.0000000  0  8G 3G15G18G 6G21G14G16G22
  22255203.8074   -6056933.28949  -4717322.00047                  22255202.7884
        46.5004         32.7504
  20774046.1584   -3786286.85549  -2944892.10248                  20774044.4704
        50.7504         39.7504
  20542550.3024    3257299.47349   2531499.02048                  20542547.0104
        50.7504         40.0004
  23805998.3584   12081914.68449   9397104.18046                  23805998.6964
        42.7504         25.0004
  20753704.5864    3450928.96549   2680676.84448                  20753701.6564
        50.7504         40.0004
  23461269.5814   -4935468.19549  -3836975.49647                  23461268.2944
        41.5004         26.7504
  24096037.6324    6752002.13749   5252817.34046                  24096036.3224
        40.5004         22.5004
  20657284.5024   -2337744.10949  -1816662.40248                  20657280.4244
        52.2504         41.2504
 04  6 30 16 30 30.0000000  0  8G 3G15G18G 6G21G14G16G22
  22251185.9174   -6078048.59449  -4733775.48847                  22251184.5444
        45.7504         33.0004
  20771293.7544   -3800750.83649  -2956162.73847                  20771292.3074
        51.0004         39.2504
  20547331.6384    3282425.75849   2551077.93048                  20547328.6204
        50.5004         40.5004
  23818263.9724   12146372.28949   9447330.85246                  23818264.2474
        42.5004         24.0004
  20758292.2214    3475035.86349   2699461.43448                  20758288.9764
        50.7504         40.0004
  23452652.6844   -4980748.59049  -3872258.89547                  23452651.3534
        43.5004         26.2504
  24104000.5494    6793847.61349   5285424.17646                  24103999.1704
        40.2504         21.0004
  20656878.1904   -2339880.68449  -1818327.25848                  20656873.8584
        52.0004         41.2504
 04  6 30 16 30 45.0000000  0  8G 3G15G18G 6G21G14G16G22
  22247188.4384   -6099054.96949  -4750144.07847                  22247187.1674
        46.2504         33.0004
  20768550.9494   -3815165.53949  -2967394.96548                  20768549.0364
        50.7504         39.5004
  20552127.3454    3307626.59849   2570714.94548                  20552123.8614
        48.5004         40.0004
  23830535.8114   12210856.73449   9497578.44546                  23830534.7414
        43.0004         24.5004
  20762893.4184    3499214.75849   2718302.11748                  20762890.3904
        49.2504         39.7504
  23444042.4084   -5025998.20349  -3907518.32447                  23444041.0434
        42.0004         26.5004
  24111973.4144    6835747.41449   5318073.34046                  24111972.2194
        40.0004         21.0004
  20656487.9764   -2341928.90649  -1819923.27048                  20656483.5804
        52.0004         41.5004
 04  6 30 16 31  0.0000000  0  8G 3G15G18G 6G21G14G16G22
  22243212.3134   -6119950.41849  -4766426.23447                  22243211.0134
        45.5004         33.2504
  20765817.5464   -3829529.07849  -2978587.33248                  20765815.7234
        51.0004         39.7504
  20556937.2664    3332903.60549   2590411.30948                  20556934.3624
        48.0004         41.0004
  23842811.9664   12275369.60249   9547848.15646                  23842811.0824
        43.0004         22.7504
  20767508.7484    3523467.35249   2737200.24648                  20767505.6554
        49.0004         40.5004
  23435437.7034   -5071214.96549  -3942752.13347                  23435436.1804
        43.0004         27.2504
  24119957.4524    6877703.04749   5350765.98846                  24119956.4554
        39.5004         21.7504
  20656115.3064   -2343887.15249  -1821449.17648                  20656110.8494
        51.0004         41.7504
 04  6 30 16 31 15.0000000  0  8G 3G15G18G 6G21G14G16G22
  22239256.9044   -6140736.14849  -4782622.90647                  22239255.1854
        46.2504         33.2504
  20763093.8834   -3843842.95349  -2989741.00448                  20763092.3264
        50.5004         39.5004
  20561761.6164    3358255.00849   2610165.64548                  20561758.4244
        50.5004         41.0004
  23855093.5314   12339908.81649   9598138.36746                  23855092.9654
        42.2504         22.0004
  20772137.2614    3547792.13749   2756154.60948                  20772134.3134
        50.7504         40.0004
  23426839.6984   -5116400.15649  -3977961.36747                  23426837.9704
        43.2504         27.5004
  24127951.9054    6919712.38349   5383500.49246                  24127950.5634
        39.2504         21.0004
  20655759.4524   -2345757.04349  -1822906.22748                  20655755.5724
        51.7504         41.2504
 04  6 30 16 31 30.0000000  0  8G 3G15G18G 6G21G14G16G22
  22235321.8704   -6161412.07449  -4798734.00847                  22235321.0924
        46.7504         32.7504
  20760379.1604   -3858107.18449  -3000855.98048                  20760377.5754
        51.0004         40.0004
  20566599.8634    3383680.44949   2629977.67248                  20566596.9234
        50.5004         40.5004
  23867380.0414   12404474.09049   9648448.98046                  23867377.8284
        42.7504         21.5004
  20776779.9144    3572189.04349   2775165.16848                  20776776.9184
        51.0004         40.0004
  23418246.5534   -5161553.50049  -4013145.77747                  23418245.6204
        44.2504         27.2504
  24135956.3534    6961774.98449   5416276.52346                  24135955.1434
        40.2504         21.0004
  20655420.2714   -2347538.80949  -1824294.61348                  20655416.2494
        52.0004         41.5004
 04  6 30 16 31 45.0000000  0  8G 3G15G18G 6G21G14G16G22
  22231409.0654   -6181976.80549  -4814758.46147                  22231407.3554
        46.5004         33.2504
  20757674.6634   -3872320.47749  -3011931.26248                  20757672.5494
        50.0004         39.5004
  20571452.3764    3409180.74249   2649848.02748                  20571449.3114
        50.7504         40.7504
  23879670.8294   12469066.20749   9698780.47746                  23879669.6944
        41.7504         21.5004
  20781436.2134    3596659.26249   2794232.85548                  20781433.6804
        51.5004         40.0004
  23409660.5194   -5206673.61349  -4048304.30547                  23409659.7894
        42.7504         26.5004
  24143970.5024    7003891.59049   5449094.63346                  24143969.9254
        40.0004         20.0004
  20655098.2544   -2349231.54749  -1825613.62548                  20655094.0184
        52.0004         41.0004
 04  6 30 16 32  0.0000000  0  8G 3G15G18G 6G21G14G16G22
  22227516.4144   -6202430.64149  -4830696.50047                  22227515.3854
        46.0004         32.7504
  20754979.6914   -3886483.10949  -3022967.08647                  20754977.3324
        51.5004         39.2504
  20576319.0504    3434755.32849   2669776.28548                  20576315.6714
        50.2504         41.0004
  23891967.5004   12533684.29349   9749132.16446                  23891966.1064
        42.2504         21.7504
  20786106.7434    3621202.30949   2813357.30548                  20786104.0384
        51.0004         40.0004
  23401080.9804   -5251760.56249  -4083436.96147                  23401079.4914
        44.0004         25.7504
  24151996.0524    7046061.15249   5481954.01246                  24151993.3904
        40.7504         20.5004
  20654793.1904   -2350835.69149  -1826863.60248                  20654788.6354
        52.0004         41.5004
 04  6 30 16 32 15.0000000  0  8G 3G15G18G 6G21G14G16G22
  22223645.4844   -6222773.04749  -4846547.73047                  22223644.0844
        47.0004         33.2504
  20752294.4064   -3900594.56249  -3033963.01647                  20752292.6184
        50.5004         39.0004
  20581199.2914    3460404.36749   2689762.55948                  20581196.9214
        50.0004         41.0004
  23904268.6864   12598328.57449   9799504.29346                  23904267.4814
        42.2504         22.0004
  20790790.9144    3645818.51649   2832538.75448                  20790788.2794
        50.7504         39.7504
  23392507.6124   -5296813.72749  -4118543.32447                  23392506.4144
        44.0004         27.0004
  24160030.3724    7088283.83249   5514854.75046                  24160028.9324
        41.0004         21.2504
  20654504.6754   -2352351.03949  -1828044.38348                  20654500.4654
        51.5004         41.2504
 04  6 30 16 32 30.0000000  0  8G 3G15G18G 6G21G14G16G22
  22219796.1894   -6243003.05549  -4862311.35547                  22219794.4434
        45.7504         33.2504
  20749618.7954   -3914654.10249  -3044918.50048                  20749616.9774
        50.2504         39.5004
  20586094.9504    3486128.20749   2709807.10948                  20586092.0804
        49.7504         40.0004
  23916574.3924   12662999.21949   9849896.96946                  23916575.1454
        40.5004         22.2504
  20795489.5444    3670508.79349   2851777.92648                  20795486.2934
        51.7504         40.5004
  23383940.6774   -5341832.14149  -4153622.60247                  23383939.5854
        44.0004         26.7504
  24168074.7794    7130559.84849   5547797.09446                  24168073.3194
        41.0004         21.7504
  20654233.1014   -2353777.10549  -1829155.60548                  20654228.9924
        51.7504         41.0004
 04  6 30 16 32 45.0000000  0  8G 3G15G18G 6G21G14G16G22
  22215967.6814   -6263120.99249  -4877987.66847                  22215965.8204
        46.5004         33.0004
  20746953.1804   -3928662.02049  -3055833.75848                  20746951.0624
        50.7504         39.5004
  20591004.0054    3511926.10249   2729909.35248                  20591000.7374
        49.5004         40.2504
  23928885.6974   12727695.53949   9900309.59846                  23928887.0844
        41.0004         22.2504
  20800202.1014    3695272.48449   2871074.30148                  20800199.0094
        51.7504         40.5004
  23375380.5214   -5386815.96549  -4188674.91446                  23375379.5224
        43.0004         25.5004
  24176129.7254    7172888.30549   5580780.27046                  24176128.4154
        41.5004         21.0004
  20653978.7024   -2355114.34049  -1830197.60948                  20653974.6724
        52.2504         41.2504
 04  6 30 16 33  0.0000000  0  8G 3G15G18G 6G21G14G16G22
  22212160.4974   -6283126.83649  -4893576.63747                  22212158.4214
        45.5004         32.0004
  20744297.3234   -3942618.58649  -3066709.00048                  20744295.1514
        50.5004         39.5004
  20595927.3014    3537797.74249   2750069.05948                  20595924.0364
        49.5004         40.0004
  23941202.5744   12792416.80149   9950741.70346                  23941203.2124
        41.2504         22.2504
  20804928.4734    3720109.48849   2890427.80948                  20804925.3254
        51.5004         40.5004
  23366827.3104   -5431765.10549  -4223700.20747                  23366825.6924
        42.5004         27.5004
  24184194.8124    7215268.69549   5613803.90646                  24184193.3124
        42.2504         21.0004
  20653741.0214   -2356363.16849  -1831170.71148                  20653737.0324
        51.2504         41.0004
 04  6 30 16 33 15.0000000  0  8G 3G15G18G 6G21G14G16G22
  22208375.5654   -6303020.31649  -4909078.03147                  22208373.0844
        45.0004         33.0004
  20741651.4544   -3956523.60949  -3077544.08248                  20741649.3054
        49.5004         39.5004
  20600864.2264    3563742.79749   2770285.99248                  20600861.2034
        50.0004         41.0004
  23953523.2024   12857162.72349  10001193.00846                  23953523.7014
        41.5004         22.2504
  20809668.9124    3745019.79749   2909838.43448                  20809665.4724
        51.2504         40.0004
  23358279.7384   -5476679.27049  -4258698.23446                  23358279.1244
        42.7504         25.2504
  24192269.2724    7257700.48049   5646867.56346                  24192267.4854
        41.7504         21.7504
  20653520.3344   -2357523.80949  -1832075.10248                  20653516.4124
        51.0004         41.5004
 04  6 30 16 33 30.0000000  0  8G 3G15G18G 6G21G14G16G22
  22204610.9824   -6322801.18049  -4924491.69547                  22204609.1264
        46.2504         33.2504
  20739014.8834   -3970376.94949  -3088338.89147                  20739013.2294
        50.7504         39.2504
  20605815.5804    3589761.17649   2790560.05148                  20605812.6564
        51.0004         41.2504
  23965848.6944   12921933.06649  10051663.36746                  23965849.1934
        42.7504         22.5004
  20814422.8794    3770003.50049   2929306.24648                  20814420.1114
        51.5004         40.0004
  23349739.8204   -5521558.18049  -4293668.78947                  23349738.2914
        41.7504         25.7504
  24200353.3494    7300183.20749   5679970.95346                  24200351.9164
        40.7504         21.5004
  20653316.1634   -2358596.23849  -1832910.76648                  20653312.2454
        51.0004         41.5004
 04  6 30 16 33 45.0000000  0  8G 3G15G18G 6G21G14G16G22
  22200868.0714   -6342469.59049  -4939817.72347                  22200866.2734
        44.5004         33.0004
  20736388.6214   -3984178.72349  -3099093.52348                  20736386.9754
        50.2504         40.0004
  20610780.6474    3615852.21949   2810890.73448                  20610777.8664
        46.7504         41.0004
  23978179.3254   12986727.20349  10102152.25846                  23978179.5094
        44.0004         24.5004
  20819191.2554    3795060.48849   2948831.18048                  20819188.1974
        50.0004         40.2504
  23341206.6944   -5566401.77749  -4328611.84047                  23341204.9394
        41.7504         25.7504
  24208447.6614    7342716.20749   5713113.48446                  24208446.0174
        40.5004         21.0004
  20653129.1404   -2359580.89849  -1833678.02348                  20653124.6514
        51.2504         41.2504
 04  6 30 16 34  0.0000000  0  8G 3G15G18G 6G21G14G16G22
  22197146.6824   -6362025.17249  -4955055.82447                  22197144.7854
        45.7504         33.5004
  20733772.1444   -3997928.64149  -3109807.74248                  20733769.9364
        50.7504         39.5004
  20615759.2654    3642015.84049   2831277.96148                  20615756.0704
        48.2504         40.2504
  23990513.5694   13051544.84049  10152659.46146                  23990513.8224
        43.0004         23.7504
  20823973.2404    3820190.76249   2968413.19548                  20823970.4684
        50.2504         39.7504
  23332679.5634   -5611209.49649  -4363526.93047                  23332678.2414
        42.5004         26.7504
  24216550.2854    7385299.34849   5746295.10546                  24216549.5384
        40.5004         21.5004
  20652958.1694   -2360477.71149  -1834376.83648                  20652954.0734
        51.0004         42.0004
 04  6 30 16 34 15.0000000  0  8G 3G15G18G 6G21G14G16G22
  22193447.0324   -6381467.19549  -4970205.44947                  22193445.1064
        43.7504         33.0004
  20731165.2894   -4011626.12149  -3120481.10248                  20731163.4694
        51.0004         39.5004
  20620751.9824    3668252.55549   2851722.16048                  20620748.5324
        49.7504         39.7504
  24002852.6114   13116386.25449  10203185.18446                  24002853.3344
        43.0004         22.5004
  20828769.7334    3845394.91449   2988052.78948                  20828766.2464
        51.2504         40.5004
  23324160.3824   -5655980.61349  -4398413.50447                  23324158.6774
        43.0004         27.7504
  24224662.9904    7427932.63349   5779515.82046                  24224662.0474
        40.2504         21.0004
  20652804.3014   -2361286.34449  -1835006.93448                  20652800.4614
        51.2504         41.5004
 04  6 30 16 34 30.0000000  0  8G 3G15G18G 6G21G14G16G22
  22189768.4914   -6400796.38349  -4985267.14847                  22189766.9154
        44.5004         32.7504
  20728568.8284   -4025271.88749  -3131114.16048                  20728566.9984
        51.0004         39.5004
  20625758.5974    3694561.02049   2872222.25848                  20625755.1274
        49.2504         40.0004
  24015196.1734   13181250.14849  10253728.41846                  24015196.2824
        43.7504         22.7504
  20833579.4654    3870671.89849   3007749.13748                  20833575.9804
        51.5004         40.0004
  23315647.4124   -5700715.72749  -4433272.00847                  23315645.9864
        43.0004         27.0004
  24232785.1364    7470614.82849   5812774.61746                  24232784.7534
        40.0004         20.5004
  20652667.0214   -2362007.84849  -1835569.14548                  20652662.9224
        51.2504         41.5004
 04  6 30 16 34 45.0000000  0  8G 3G15G18G 6G21G14G16G22
  22186112.0914   -6420011.91849  -5000240.27747                  22186110.5174
        44.2504         33.0004
  20725982.3834   -4038865.32449  -3141706.44948                  20725980.6064
        50.7504         40.0004
  20630778.4364    3720941.66849   2892778.60948                  20630774.9074
        50.2504         40.7504
  24027543.5944   13246136.85549  10304289.46146                  24027543.9374
        42.7504         23.0004
  20838403.7204    3896022.43849   3027502.79748                  20838400.3434
        51.2504         39.7504
  23307141.8024   -5745413.94949  -4468101.77747                  23307139.8354
        42.5004         26.5004
  24240916.4044    7513345.95349   5846071.54746                  24240915.8084
        40.5004         20.5004
  20652546.3754   -2362641.78949  -1836063.11748                  20652541.9794
        51.5004         42.0004
 04  6 30 16 35  0.0000000  0  8G 3G15G18G 6G21G14G16G22
  22182476.9994   -6439113.78949  -5015124.83647                  22182475.3874
        44.2504         33.0004
  20723405.3614   -4052406.47749  -3152258.00048                  20723404.0564
        51.0004         40.0004
  20635812.3704    3747393.98849   2913390.81348                  20635809.2244
        50.2504         41.0004
  24039895.7604   13311045.73849  10354867.75846                  24039895.1944
        41.5004         22.2504
  20843241.6134    3921446.22749   3047313.52348                  20843238.3344
        50.7504         39.7504
  23298642.8704   -5790075.20749  -4502902.74247                  23298641.3894
        41.7504         27.2504
  24249057.1534    7556125.54349   5879406.25046                  24249057.2134
        40.0004         21.2504
  20652442.3234   -2363188.37549  -1836489.03148                  20652437.6894
        51.2504         42.0004
 04  6 30 16 35 15.0000000  0  8G 3G15G18G 6G21G14G16G22
  22178863.5284   -6458101.97749  -5029920.82047                  22178862.0274
        44.7504         33.5004
  20720838.3594   -4065895.43749  -3162768.86748                  20720836.6364
        51.5004         40.2504
  20640859.6264    3773917.55549   2934058.51648                  20640856.4814
        47.5004         40.5004
  24052250.5604   13375976.30949  10405462.94146                  24052251.5624
        41.7504         21.7504
  20848093.7714    3946943.23049   3067181.31648                  20848089.9974
        49.0004         40.2504
  23290151.0664   -5834699.39149  -4537674.82047                  23290150.0254
        42.0004         26.2504
  24257207.4164    7598953.00049   5912778.24646                  24257206.7324
        41.5004         21.2504
  20652354.8654   -2363648.05149  -1836847.20748                  20652350.6774
        51.5004         41.7504
 04  6 30 16 35 30.0000000  0  8G 3G15G18G 6G21G14G16G22
  22175271.9654   -6476976.21949  -5044628.02047                  22175270.8334
        44.7504         33.2504
  20718281.3974   -4079331.97749  -3173238.90248                  20718280.1364
        50.5004         39.7504
  20645920.4474    3800512.34049   2954781.71948                  20645916.8074
        45.7504         40.5004
  24064609.7614   13440928.30549  10456074.83646                  24064611.1954
        42.0004         21.5004
  20852959.2914    3972513.45349   3087106.15648                  20852955.9584
        48.0004         39.7504
  23281667.1914   -5879286.25049  -4572417.81247                  23281665.6394
        42.0004         28.2504
  24265366.5954    7641827.87149   5946187.16046                  24265365.0254
        40.2504         21.2504
  20652284.1374   -2364020.91049  -1837137.74248                  20652279.7274
        51.2504         41.7504
 04  6 30 16 35 45.0000000  0  8G 3G15G18G 6G21G14G16G22
  22171702.1074   -6495736.27349  -5059246.24647                  22171701.8284
        44.0004         34.0004
  20715735.1194   -4092715.93749  -3183667.95748                  20715733.2314
        51.2504         40.0004
  20650994.7304    3827178.18849   2975560.30148                  20650991.4414
        46.7504         40.2504
  24076974.7274   13505901.44949  10506703.22346                  24076974.4634
        40.7504         20.0004
  20857838.9104    3998157.14549   3107088.25447                  20857835.5674
        47.5004         39.2504
  23273189.2744   -5923835.25449  -4607131.31647                  23273188.1174
        41.2504         27.0004
  24273534.5554    7684749.82449   5979632.79746                  24273533.1024
        40.5004         22.5004
  20652229.5714   -2364306.92249  -1837360.60548                  20652225.5784
        51.5004         41.2504
 04  6 30 16 36  0.0000000  0  8G 3G15G18G 6G21G14G16G22
  22168154.1804   -6514381.75049  -5073775.18447                  22168152.8304
        46.0004         33.5004
  20713198.0644   -4106046.98049  -3194055.79348                  20713196.3904
        51.2504         40.0004
  20656082.5464    3853914.91049   2996394.10548                  20656079.4954
        49.2504         40.0004
  24089342.8064   13570895.48049  10557347.85546                  24089342.7494
        41.0004         21.5004
  20862732.9414    4023874.46949   3127127.72748                  20862729.2844
        51.0004         39.5004
  23264719.2784   -5968345.81649  -4641814.85547                  23264717.9264
        41.7504         27.0004
  24281710.5994    7727718.63749   6013114.94146                  24281709.5564
        40.7504         22.2504
  20652191.6144   -2364505.96949  -1837515.70348                  20652187.7754
        52.0004         41.7504
 04  6 30 16 36 15.0000000  0  8G 3G15G18G 6G21G14G16G22
  22164628.3604   -6532912.45349  -5088214.68047                  22164626.9464
        45.0004         34.0004
  20710671.5244   -4119325.07449  -3204402.34848                  20710669.5354
        51.2504         40.0004
  20661183.9434    3880722.39549   3017283.04748                  20661180.7854
        50.0004         40.5004
  24101714.7744   13635910.18449  10608008.62146                  24101715.0134
        41.0004         20.5004
  20867641.0404    4049665.37949   3147224.53148                  20867637.4484
        51.0004         39.7504
  23256256.4134   -6012817.77349  -4676468.30947                  23256255.3954
        42.7504         27.7504
  24289896.6084    7770733.93049   6046633.32046                  24289895.6984
        40.0004         21.5004
  20652170.4824   -2364618.31649  -1837603.25448                  20652166.1834
        52.0004         41.5004
 04  6 30 16 36 30.0000000  0  8G 3G15G18G 6G21G14G16G22
  22161123.8784   -6551328.06249  -5102564.48847                  22161122.5334
        44.2504         33.2504
  20708154.4224   -4132550.05549  -3214707.52348                  20708152.3764
        51.0004         39.5004
  20666298.8354    3907600.49249   3038227.00848                  20666295.5414
        49.7504         40.5004
  24114089.6374   13700945.41849  10658685.37546                  24114090.1514
        39.2504         21.0004
  20872562.8894    4075529.99249   3167378.78148                  20872559.2474
        51.0004         39.7504
  23247801.4134   -6057250.70349  -4711091.35547                  23247799.4424
        43.0004         28.2504
  24298091.0094    7813795.43449   6080187.70346                  24298089.4494
        39.5004         21.5004
  20652165.2194   -2364643.90649  -1837623.18448                  20652161.1724
        51.7504         41.2504
 04  6 30 16 36 45.0000000  0  8G 3G15G18G 6G21G14G16G22
  22157640.8474   -6569628.37949  -5116824.47347                  22157639.7604
        45.0004         33.5004
  20705648.1564   -4145721.70349  -3224971.14548                  20705645.9434
        51.0004         40.0004
  20671427.0514    3934549.03949   3059225.87948                  20671423.6904
        48.2504         40.2504
  24126469.6504   13766000.59049  10709377.65646                  24126469.5804
        40.2504         20.5004
  20877498.6944    4101468.40649   3187590.53147                  20877495.7754
        48.5004         39.2504
  23239353.4444   -6101644.23049  -4745683.70747                  23239351.9414
        43.2504         28.0004
  24306294.3794    7856902.68049   6113777.73046                  24306292.4064
        40.2504         19.0004
  20652176.9084   -2364582.86749  -1837575.61748                  20652172.6864
        51.2504         41.2504
 04  6 30 16 37  0.0000000  0  8G 3G15G18G 6G21G14G16G22
  22154180.3414   -6587813.77049  -5130994.89847                  22154179.0134
        45.0004         33.0004
  20703151.7944   -4158840.48849  -3235193.56648                  20703149.7494
        51.5004         40.0004
  20676568.2544    3961567.23049   3080279.02348                  20676564.8334
        48.2504         40.7504
  24138853.1234   13831074.83649  10760084.83646                  24138853.3614
        41.2504         22.2504
  20882448.7594    4127480.00049   3207859.28947                  20882445.3964
        49.0004         39.2504
  23230913.0784   -6145998.73449  -4780245.65247                  23230911.3584
        43.5004         27.7504
  24314505.8144    7900054.70349   6147402.65246                  24314504.1554
        38.5004         21.0004
  20652205.1804   -2364435.81249  -1837461.02748                  20652200.4524
        51.5004         41.2504
 04  6 30 16 37 15.0000000  0  8G 3G15G18G 6G21G14G16G22
  22150742.3034   -6605882.58649  -5145074.48447                  22150740.2794
        46.0004         33.5004
  20700665.6204   -4171904.77349  -3245373.52348                  20700663.4954
        51.2504         39.7504
  20681723.2034    3988656.28549   3101387.37548                  20681719.6914
        50.7504         40.5004
  24151240.4884   13896169.60949  10810807.98046                  24151240.3644
        42.0004         22.5004
  20887412.8604    4153566.24249   3228186.22747                  20887409.1564
        51.0004         39.2504
  23222480.4144   -6190312.42249  -4814775.79347                  23222478.3354
        43.2504         28.0004
  24322725.8934    7943252.70349   6181063.36746                  24322725.0034
        39.5004         21.0004
  20652249.2314   -2364201.48049  -1837278.43048                  20652245.0954
        51.7504         41.5004
 04  6 30 16 37 30.0000000  0  8G 3G15G18G 6G21G14G16G22
  22147325.7774   -6623834.90649  -5159063.29747                  22147323.9244
        45.0004         33.5004
  20698189.7634   -4184914.76649  -3255511.18048                  20698187.9274
        51.5004         40.2504
  20686890.8914    4015815.70349   3122550.56348                  20686888.3534
        51.0004         40.7504
  24163630.9414   13961283.83249  10861546.27746                  24163630.9284
        42.5004         22.5004
  20892390.5774    4179726.89149   3248571.14148                  20892387.7594
        51.0004         40.0004
  23214055.3594   -6234585.21949  -4849274.06247                  23214053.2374
        43.5004         27.0004
  24330954.2854    7986495.75849   6214759.23846                  24330953.7874
        38.7504         20.5004
  20652310.9124   -2363880.36349  -1837028.20748                  20652306.1204
        51.0004         41.2504
 04  6 30 16 37 45.0000000  0  8G 3G15G18G 6G21G14G16G22
  22143931.8414   -6641671.15649  -5172961.66447                  22143929.9694
        45.2504         33.5004
  20695724.5384   -4197870.97349  -3265606.92648                  20695722.3114
        51.5004         39.7504
  20692072.4524    4043044.54749   3143767.83648                  20692069.9474
        49.7504         40.2504
  24176026.4264   14026416.79749  10912299.19146                  24176025.8784
        42.0004         22.5004
  20897383.0684    4205961.25849   3269013.49648                  20897379.6914
        51.0004         40.0004
  23205638.2534   -6278817.44149  -4883740.71547                  23205636.1814
        43.5004         28.0004
  24339191.8804    8029782.84849   6248489.40646                  24339190.8464
        39.5004         20.5004
  20652388.3504   -2363473.21549  -1836710.94548                  20652384.1074
        51.0004         40.7504
 04  6 30 16 38  0.0000000  0  8G 3G15G18G 6G21G14G16G22
  22140559.8884   -6659390.85249  -5186769.21947                  22140558.2324
        46.5004         33.0004
  20693269.0964   -4210772.95349  -3275660.41048                  20693266.8234
        51.5004         40.0004
  20697267.2414    4070342.96149   3165039.31648                  20697264.3724
        50.7504         40.0004
  24188424.1824   14091568.52749  10963066.72346                  24188423.8994
        41.7504         22.5004
  20902389.2214    4232269.86749   3289513.69948                  20902386.6514
        51.0004         39.5004
  23197229.3074   -6323008.48049  -4918175.28147                  23197226.8644
        44.0004         27.7504
  24347437.8704    8073113.86349   6282253.81346                  24347436.2054
        38.5004         21.0004
  20652482.1474   -2362979.82849  -1836326.48048                  20652477.6024
        51.0004         41.0004
 04  6 30 16 38 15.0000000  0  8G 3G15G18G 6G21G14G16G22
  22137210.6344   -6676993.44149  -5200485.52047                  22137208.6154
        47.2504         33.5004
  20690824.4974   -4223620.11349  -3285671.18448                  20690822.4074
        51.5004         39.5004
  20702475.5014    4097711.02049   3186365.06348                  20702472.3684
        51.5004         40.2504
  24200825.6204   14156738.98049  11013848.84046                  24200825.4624
        41.7504         21.2504
  20907410.0174    4258652.89549   3310071.89848                  20907407.0044
        51.2504         39.7504
  23188827.8414   -6367157.69149  -4952577.25447                  23188825.5204
        43.2504         26.5004
  24355691.7204    8116488.93049   6316052.52346                  24355690.2894
        38.7504         19.2504
  20652592.6034   -2362399.96949  -1835874.64848                  20652588.2704
        51.2504         41.7504
 04  6 30 16 38 30.0000000  0  8G 3G15G18G 6G21G14G16G22
  22133882.6934   -6694477.96549  -5214109.81647                  22133881.5854
        45.5004         33.7504
  20688390.4684   -4236411.67649  -3295638.62948                  20688388.3424
        51.0004         40.0004
  20707697.1854    4125149.26649   3207745.51648                  20707693.5704
        50.2504         40.7504
  24213230.9374   14221928.42649  11064645.78546                  24213230.9044
        42.5004         22.2504
  20912444.6004    4285111.16449   3330688.72348                  20912441.6724
        50.0004         39.5004
  23180434.4994   -6411264.13349  -4986945.89547                  23180432.5254
        43.2504         26.7504
  24363953.4844    8159908.21149   6349885.68046                  24363952.8194
        38.7504         19.2504
  20652719.4194   -2361733.04749  -1835354.96148                  20652714.7564
        51.0004         41.5004
 04  6 30 16 38 45.0000000  0  8G 3G15G18G 6G21G14G16G22
  22130577.9794   -6711844.87949  -5227642.46547                  22130576.9404
        47.0004         33.7504
  20685966.5464   -4249148.16049  -3305563.16048                  20685964.8034
        51.2504         40.0004
  20712931.3984    4152656.82849   3229179.98448                  20712928.0034
        51.2504         40.7504
  24225639.1784   14287135.89849  11115456.77746                  24225639.4384
        41.7504         24.0004
  20917493.5594    4311644.08249   3351363.71547                  20917491.1524
        51.2504         39.0004
  23172049.6064   -6455328.02349  -5021281.39147                  23172047.6654
        44.5004         28.0004
  24372224.8154    8203370.67249   6383752.50846                  24372223.0374
        38.0004         20.0004
  20652862.8654   -2360979.85949  -1834768.05948                  20652858.1714
        51.5004         41.7504
 04  6 30 16 39  0.0000000  0  8G 3G15G18G 6G21G14G16G22
  22127296.1224   -6729093.26649  -5241082.75847                  22127295.0074
        46.0004         34.0004
  20683553.5174   -4261828.67249  -3315444.07448                  20683551.6514
        51.7504         40.5004
  20718179.3084    4180234.30549   3250668.93448                  20718176.1324
        50.2504         41.0004
  24238051.2314   14352362.07049  11166282.30546                  24238051.8924
        41.0004         22.2504
  20922557.1434    4338252.44549   3372097.49647                  20922554.0124
        51.5004         39.2504
  23163672.8214   -6499348.32049  -5055582.90647                  23163671.2034
        44.0004         29.0004
  24380503.6484    8246876.80149   6417653.34446                  24380502.5144
        37.7504         19.2504
  20653022.7554   -2360139.67649  -1834113.36748                  20653017.9084
        51.2504         41.7504
 04  6 30 16 39 15.0000000  0  8G 3G15G18G 6G21G14G16G22
  22124036.0474   -6746222.79349  -5254430.43047                  22124034.7114
        45.0004         33.7504
  20681150.9444   -4274452.98449  -3325281.19548                  20681149.3294
        51.2504         40.0004
  20723440.5174    4207881.46949   3272212.16848                  20723437.1924
        50.2504         40.7504
  24250465.6954   14417606.46149  11217122.00846                  24250467.6114
        40.0004         21.7504
  20927635.2794    4364936.31649   3392890.11748                  20927632.1614
        51.2504         39.5004
  23155304.3094   -6543324.61749  -5089850.12947                  23155303.2244
        43.7504         27.7504
  24388791.0114    8290426.12149   6451587.85246                  24388789.5604
        38.0004         21.0004
  20653198.8954   -2359212.65649  -1833391.01248                  20653194.8014
        51.2504         41.0004
 04  6 30 16 39 30.0000000  0  8G 3G15G18G 6G21G14G16G22
  22120799.1004   -6763234.04749  -5267685.94547                  22120797.3864
        46.5004         33.5004
  20678759.9774   -4287021.64149  -3335074.96148                  20678757.8634
        50.7504         40.2504
  20728714.7524    4235597.43849   3293809.02048                  20728711.6114
        50.7504         40.5004
  24262885.7054   14482868.08649  11267975.18046                  24262886.6894
        39.0004         20.5004
  20932727.0044    4391695.00049   3413741.02748                  20932723.7434
        51.0004         39.7504
  23146944.2084   -6587257.39149  -5124083.44547                  23146943.1974
        43.5004         28.5004
  24397085.8134    8334017.51249   6485555.11746                  24397085.2594
        38.0004         20.5004
  20653391.8224   -2358199.55149  -1832601.57448                  20653387.7104
        51.2504         41.5004
 04  6 30 16 39 45.0000000  0  8G 3G15G18G 6G21G14G16G22
  22117584.2594   -6780126.69949  -5280849.04747                  22117583.1534
        45.0004         34.0004
  20676378.5774   -4299534.36749  -3344825.13348                  20676376.5154
        51.2504         40.2504
  20734001.6084    4263382.03149   3315459.34048                  20733998.4944
        48.7504         41.0004
  24275307.4944   14548146.94149  11318841.75046                  24275309.1304
        40.5004         20.5004
  20937833.3014    4418528.59449   3434650.30948                  20937829.9404
        50.5004         40.0004
  23138592.4644   -6631146.21149  -5158282.52047                  23138591.3814
        43.5004         29.2504
  24405389.2584    8377650.74249   6519555.00046                  24405389.0784
        38.0004         20.5004
  20653601.0904   -2357100.34049  -1831745.05148                  20653596.7744
        51.7504         41.2504
 04  6 30 16 40  0.0000000  0  8G 3G15G18G 6G21G14G16G22
  22114392.6574   -6796899.93449  -5293919.10247                  22114390.6824
        45.5004         34.2504
  20674008.0834   -4311990.57049  -3354531.26648                  20674006.0384
        51.5004         40.0004
  20739301.4744    4291235.72349   3337163.51248                  20739298.9174
        45.7504         40.5004
  24287733.1404   14613443.06649  11369721.79746                  24287734.7694
        40.7504         22.5004
  20942953.9584    4445437.80949   3455618.52048                  20942950.5214
        47.2504         39.7504
  23130248.8734   -6674990.14549  -5192446.61347                  23130248.1834
        43.0004         28.7504
  24413700.4024    8421326.01249   6553587.63346                  24413700.0804
        36.2504         21.0004
  20653826.6044   -2355914.74249  -1830821.20748                  20653822.3134
        51.5004         41.0004
 04  6 30 16 40 15.0000000  0  8G 3G15G18G 6G21G14G16G22
  22111223.8144   -6813553.03149  -5306895.53947                  22111221.7084
        46.5004         34.2504
  20671648.6084   -4324389.59449  -3364192.83648                  20671646.6744
        51.2504         40.5004
  20744615.6194    4319158.78149   3358921.73448                  20744612.3194
        49.0004         41.0004
  24300161.6124   14678756.57049  11420615.36746                  24300163.5984
        39.0004         21.5004
  20948089.0874    4472423.09849   3476646.01648                  20948085.9044
        49.7504         39.7504
  23121914.9894   -6718788.40249  -5226575.11347                  23121913.3534
        43.5004         29.2504
  24422019.8984    8465043.26249   6587652.96946                  24422019.0144
        38.2504         20.0004
  20654068.6954   -2354642.25449  -1829829.65248                  20654064.3154
        52.0004         41.0004
 04  6 30 16 40 30.0000000  0  8G 3G15G18G 6G21G14G16G22
  22108077.5744   -6830086.68049  -5319778.90247                  22108075.2654
        45.5004         33.2504
  20669299.8764   -4336732.05949  -3373810.33648                  20669297.5964
        52.0004         40.2504
  20749942.0634    4347150.16049   3380733.20348                  20749938.8404
        50.2504         41.0004
  24312594.1704   14744086.26249  11471521.57446                  24312595.3714
        39.5004         22.2504
  20953238.4954    4499483.65649   3497732.14548                  20953235.3264
        51.5004         39.5004
  23113589.0084   -6762541.39849  -5260668.35247                  23113587.6374
        44.0004         29.0004
  24430346.6134    8508801.32049   6621750.13746                  24430346.1914
        38.7504         19.5004
  20654327.3074   -2353283.89149  -1828771.18748                  20654322.9554
        51.2504         41.2504
 04  6 30 16 40 45.0000000  0  8G 3G15G18G 6G21G14G16G22
  22104953.7544   -6846500.53949  -5332568.91447                  22104952.3024
        44.7504         33.5004
  20666961.8214   -4349017.76649  -3383383.60247                  20666959.8124
        51.5004         39.2504
  20755281.8844    4375209.65249   3402597.72748                  20755278.0474
        46.2504         41.0004
  24325028.8124   14809432.10949  11522440.38346                  24325029.5444
        40.7504         21.5004
  20958402.7214    4526619.62949   3518877.04748                  20958399.3694
        47.7504         40.0004
  23105271.2324   -6806248.89149  -5294726.11347                  23105270.4494
        43.7504         29.0004
  24438680.9694    8552599.92249   6655878.85946                  24438681.0724
        38.7504         21.0004
  20654601.8934   -2351839.69549  -1827645.83648                  20654597.7864
        51.2504         41.7504
 04  6 30 16 41  0.0000000  0  8G 3G15G18G 6G21G14G16G22
  22101853.7024   -6862793.67249  -5345264.85247                  22101851.8714
        45.7504         33.7504
  20664635.3314   -4361245.77349  -3392911.92648                  20664633.2834
        51.5004         39.7504
  20760634.1554    4403337.85949   3424515.81648                  20760631.0244
        47.0004         41.0004
  24337467.3224   14874794.46149  11573372.03946                  24337467.3734
        39.5004         21.0004
  20963580.9844    4553831.80949   3540081.33648                  20963577.6384
        48.7504         40.2504
  23096962.7904   -6849909.62149  -5328747.44147                  23096961.7064
        43.5004         29.0004
  24447023.2814    8596439.53949   6690039.55146                  24447023.3334
        38.0004         20.5004
  20654893.4704   -2350309.00849  -1826453.08648                  20654889.0624
        51.2504         41.2504
 04  6 30 16 41 15.0000000  0  8G 3G15G18G 6G21G14G16G22
  22098775.9944   -6878965.18749  -5357866.02047                  22098774.6954
        46.2504         34.0004
  20662319.3624   -4373415.39149  -3402394.73448                  20662317.4564
        52.0004         40.0004
  20766000.3464    4431535.29349   3446487.83648                  20765997.0894
        51.0004         40.5004
  24349907.9794   14940174.00049  11624317.05946                  24349909.0744
        39.0004         20.5004
  20968774.2414    4581120.97349   3561345.62548                  20968770.6484
        53.0004         39.5004
  23088663.9304   -6893522.59849  -5362731.55947                  23088662.6004
        43.5004         28.7504
  24455373.9394    8640320.35949   6724232.35946                  24455373.5334
        40.0004         19.2504
  20655201.3154   -2348691.27349  -1825192.51648                  20655196.7784
        51.7504         41.5004
 04  6 30 16 41 30.0000000  0  8G 3G15G18G 6G21G14G16G22
  22095721.3374   -6895016.18749  -5370373.30147                  22095719.8424
        45.7504         33.7504
  20660014.3404   -4385527.66449  -3411832.86748                  20660012.3534
        50.7504         40.0004
  20771378.7174    4459800.38349   3468512.58248                  20771375.7584
        51.0004         40.7504
  24362352.1154   15005568.50049  11675273.75846                  24362353.6864
        39.0004         21.0004
  20973980.9784    4608485.72749   3582668.80148                  20973977.7104
        52.2504         39.5004
  23080373.6114   -6937088.89549  -5396679.30547                  23080371.9054
        44.2504         28.5004
  24463731.6684    8684240.69949   6758455.96546                  24463731.4034
        37.2504         19.0004
  20655525.0984   -2346987.86749  -1823865.17248                  20655520.8804
        51.7504         41.7504
 04  6 30 16 41 45.0000000  0  8G 3G15G18G 6G21G14G16G22
  22092690.2984   -6910946.28549  -5382786.34847                  22092688.7834
        45.7504         34.0004
  20657720.8364   -4397582.27049  -3421226.06248                  20657719.1164
        50.7504         40.2504
  20776770.4224    4488133.15649   3490590.05948                  20776767.4284
        50.0004         41.2504
  24374799.9454   15070978.23049  11726242.29746                  24374800.0124
        40.5004         20.5004
  20979202.8354    4635926.33649   3604051.09848                  20979199.5754
        52.0004         39.5004
  23072091.6924   -6980607.95349  -5430590.23047                  23072090.3164
        44.0004         28.7504
  24472097.0274    8728200.34849   6792710.17646                  24472096.4554
        37.5004         21.2504
  20655865.5534   -2345198.68049  -1822471.00448                  20655861.6944
        50.5004         41.2504
 04  6 30 16 42  0.0000000  0  8G 3G15G18G 6G21G14G16G22
  22089682.1334   -6926754.78549  -5395104.66047                  22089680.2964
        46.0004         33.5004
  20655437.7874   -4409578.49649  -3430573.76648                  20655436.0124
        50.7504         40.2504
  20782174.6664    4516533.95749   3512720.55548                  20782171.9634
        45.7504         40.2504
  24387249.9374   15136403.39549  11777222.91046                  24387250.5464
        40.2504         21.0004
  20984439.3654    4663443.41449   3625492.97347                  20984435.9644
        48.2504         39.2504
  23063819.4394   -7024078.98449  -5464463.75447                  23063817.7824
        44.0004         28.5004
  24480469.9674    8772199.45349   6826995.15246                  24480469.1024
        38.0004         21.5004
  20656222.4924   -2343323.27749  -1821009.64548                  20656218.1624
        51.0004         41.2504
 04  6 30 16 42 15.0000000  0  8G 3G15G18G 6G21G14G16G22
  22086697.1534   -6942440.53149  -5407327.31647                  22086695.2154
        46.5004         33.5004
  20653166.2384   -4421515.39549  -3439875.23448                  20653164.4534
        51.2504         40.5004
  20787592.2064    4545003.29749   3534904.44148                  20787589.4174
        46.0004         41.0004
  24399702.1104   15201844.36349  11828215.82046                  24399702.9114
        38.7504         20.0004
  20989690.3324    4691037.89849   3646995.15247                  20989686.7984
        48.0004         39.0004
  23055556.1724   -7067500.78949  -5498298.90247                  23055555.7094
        43.0004         29.7504
  24488850.7254    8816238.42649   6861311.20346                  24488848.9744
        36.7504         19.5004
  20656595.8334   -2341361.03549  -1819480.62948                  20656591.7564
        51.0004         41.7504
 04  6 30 16 42 30.0000000  0  8G 3G15G18G 6G21G14G16G22
  22083735.6804   -6958002.93049  -5419453.85547                  22083733.9934
        45.5004         33.7504
  20650906.0454   -4433392.24249  -3449129.92248                  20650904.0604
        50.5004         40.5004
  20793023.0034    4573541.65249   3557142.12148                  20793019.8944
        49.2504         41.0004
  24412159.2354   15267301.56349  11879221.37546                  24412159.6464
        39.7504         20.0004
  20994955.7994    4718710.22349   3668558.00047                  20994952.3104
        51.5004         38.5004
  23047303.5234   -7110872.59049  -5532095.09047                  23047301.9884
        43.7504         28.0004
  24497237.5764    8860317.38349   6895658.39546                  24497236.8804
        37.7504         20.0004
  20656986.1244   -2339311.53549  -1817883.61748                  20656982.2624
        50.5004         41.5004
 04  6 30 16 42 45.0000000  0  8G 3G15G18G 6G21G14G16G22
  22080797.5404   -6973442.69149  -5431484.84047                  22080795.2704
        46.0004         34.0004
  20648657.0754   -4445209.90249  -3458338.48848                  20648655.0564
        49.7504         40.2504
  20798466.7094    4602147.85949   3579432.66048                  20798463.6394
        50.2504         40.5004
  24424618.0824   15332773.47749  11930238.41446                  24424618.2294
        40.2504         20.0004
  21000236.7544    4746459.52349   3690180.82447                  21000233.4664
        52.2504         39.0004
  23039059.2494   -7154194.97349  -5565852.77347                  23039057.9244
        43.2504         28.0004
  24505633.4684    8904435.04749   6930035.74246                  24505632.2074
        37.7504         20.0004
  20657392.4314   -2337175.93449  -1816219.50848                  20657387.9214
        51.2504         41.2504
 04  6 30 16 43  0.0000000  0  8G 3G15G18G 6G21G14G16G22
  22077882.9764   -6988759.09449  -5443419.68747                  22077880.8714
        46.5004         33.5004
  20646419.9244   -4456967.67649  -3467500.38748                  20646418.0384
        50.5004         40.5004
  20803923.4274    4630822.23449   3601776.31648                  20803919.9864
        50.5004         40.5004
  24437079.0464   15398260.36349  11981267.09446                  24437079.9454
        40.0004         20.5004
  21005531.7024    4774286.34449   3711864.05148                  21005528.5304
        51.5004         39.5004
  23030824.4594   -7197466.97749  -5599571.19547                  23030823.2534
        43.5004         28.7504
  24514036.4084    8948591.56648   6964443.37146                  24514035.5424
        35.7504         20.0004
  20657814.9614   -2334953.77349  -1814487.94948                  20657810.7494
        50.7504         41.5004
 04  6 30 16 43 15.0000000  0  8G 3G15G18G 6G21G14G16G22
  22074992.2574   -7003951.90649  -5455258.24247                  22074989.9764
        46.7504         34.0004
  20644193.8314   -4468665.30149  -3476615.41048                  20644191.7074
        49.5004         40.0004
  20809392.6294    4659564.55549   3624172.94148                  20809389.5494
        50.5004         40.5004
  24449544.1854   15463762.08249  12032307.33246                  24449544.3144
        39.7504         20.0004
  21010841.7234    4802190.88749   3733607.84847                  21010838.4454
        51.2504         39.0004
  23022600.3684   -7240688.20749  -5633250.04347                  23022598.3874
        44.0004         29.0004
  24522446.5364    8992786.47749   6998880.88746                  24522445.3254
        37.5004         20.5004
  20658254.4874   -2332645.01249  -1812688.91048                  20658250.1034
        50.0004         42.0004
 04  6 30 16 43 30.0000000  0  8G 3G15G18G 6G21G14G16G22
  22072124.1674   -7019020.36349  -5466999.88747                  22072122.5114
        47.2504         34.0004
  20641979.4954   -4480302.16449  -3485683.08648                  20641977.2904
        49.5004         40.0004
  20814875.3384    4688375.23449   3646622.81348                  20814872.1294
        49.7504         40.2504
  24462010.7754   15529279.04749  12083359.46946                  24462012.0004
        40.0004         19.2504
  21016166.9674    4830173.61349   3755412.55947                  21016163.5414
        51.2504         39.0004
  23014384.6564   -7283857.89149  -5666888.73447                  23014383.6494
        44.0004         29.2504
  24530863.6284    9037020.03549   7033348.58646                  24530862.5304
        37.2504         20.5004
  20658710.6774   -2330249.34849  -1810822.16048                  20658706.4114
        50.5004         42.0004
 04  6 30 16 43 45.0000000  0  8G 3G15G18G 6G21G14G16G22
  22069280.6844   -7033964.56249  -5478644.71947                  22069279.1454
        47.0004         34.5004
  20639776.3324   -4491878.43449  -3494703.55948                  20639774.6854
        50.2504         40.0004
  20820370.3514    4717253.74649   3669125.54748                  20820367.6114
        50.2504         40.5004
  24474481.5614   15594810.05949  12134422.50846                  24474482.1494
        40.5004         19.5004
  21021506.7824    4858234.20349   3777277.94948                  21021503.6654
        51.5004         39.5004
  23006180.2324   -7326976.03149  -5700487.23847                  23006177.8894
        43.5004         29.0004
  24539288.3464    9081291.46949   7067845.74646                  24539287.8014
        37.5004         19.5004
  20659182.7934   -2327767.16449  -1808887.98848                  20659178.6574
        49.5004         42.0004
 04  6 30 16 44  0.0000000  0  8G 3G15G18G 6G21G14G16G22
  22066460.4194   -7048784.10249  -5490192.40647                  22066458.7124
        48.2504         34.7504
  20637585.4534   -4503393.60249  -3503676.41048                  20637582.6884
        49.5004         40.2504
  20825878.7174    4746200.10949   3691681.14848                  20825876.0264
        50.2504         40.5004
  24486955.4204   15660355.41849  12185496.77746                  24486955.9164
        40.2504         21.5004
  21026861.4524    4886372.89549   3799204.19548                  21026858.1874
        51.0004         39.5004
  22997984.8234   -7370042.06249  -5734045.14547                  22997982.2844
        44.5004         28.0004
  24547720.7734    9125600.73449   7102372.40646                  24547720.1794
        38.5004         20.0004
  20659671.6914   -2325198.17649  -1806886.18048                  20659667.3924
        48.7504         41.7504
 04  6 30 16 44 15.0000000  0  8G 3G15G18G 6G21G14G16G22
  22063664.1874   -7063479.04749  -5501642.99647                  22063662.8124
        48.0004         34.5004
  20635405.2314   -4514847.92649  -3512601.84848                  20635403.3984
        48.5004         40.2504
  20831399.9884    4775213.74649   3714289.16848                  20831397.1364
        50.2504         40.5004
  24499430.6504   15725914.63349  12236581.82446                  24499430.3024
        40.0004         21.0004
  21032230.6204    4914589.49249   3821191.15647                  21032227.3584
        51.5004         39.2504
  22989799.7224   -7413055.95749  -5767562.43447                  22989797.3054
        44.2504         30.0004
  24556159.3834    9169947.06349   7136927.86746                  24556158.4784
        39.2504         20.5004
  20660176.7324   -2322542.98049  -1804817.19948                  20660172.5724
        48.0004         41.2504
 04  6 30 16 44 30.0000000  0  8G 3G15G18G 6G21G14G16G22
  22060891.6224   -7078049.60549  -5512996.68047                  22060890.0434
        47.5004         34.0004
  20633237.5834   -4526241.55949  -3521480.00448                  20633235.3544
        49.2504         40.5004
  20836933.8264    4804294.16849   3736949.21948                  20836930.9294
        50.7504         40.2504
  24511908.5964   15791486.73849  12287676.91846                  24511908.9754
        39.5004         20.5004
  21037614.6964    4942883.69549   3843238.57447                  21037611.7324
        51.2504         39.0004
  22981624.2514   -7456017.74649  -5801039.13347                  22981622.2334
        44.0004         29.5004
  24564605.7094    9214329.60549   7171511.64846                  24564604.1674
        39.7504         19.2504
  20660698.4754   -2319802.10249  -1802681.45348                  20660694.2394
        49.5004         41.5004
 04  6 30 16 44 45.0000000  0  7G 3G15G18G21G14G16G22
  22058142.5894   -7092495.89149  -5524253.51647                  22058140.7234
        48.0004         34.0004
  20631080.6954   -4537574.79749  -3530311.09448                  20631078.8824
        46.7504         40.2504
  20842480.0504    4833440.70349   3759660.81648                  20842477.4324
        51.0004         40.5004
  21043013.6214    4971255.07849   3865346.13747                  21043010.6944
        51.2504         39.2504
  22973458.2104   -7498927.48849  -5834475.26247                  22973456.1974
        45.0004         29.0004
  24573057.6854    9258747.86749   7206123.24246                  24573056.4424
        37.0004         19.5004
  20661236.3864   -2316976.00449  -1800479.28948                  20661231.7844
        48.5004         41.7504
 04  6 30 16 45  0.0000000  0  7G 3G15G18G21G14G16G22
  22055417.1414   -7106817.89549  -5535413.51647                  22055415.3324
        48.2504         34.0004
  20628935.5544   -4548847.59049  -3539095.08248                  20628933.4104
        49.5004         40.0004
  20848039.1694    4862653.23049   3782423.81348                  20848035.7824
        50.5004         40.0004
  21048427.1754    4999703.61349   3887513.81348                  21048424.6714
        51.7504         40.0004
  22965303.0124   -7541784.97349  -5867870.66047                  22965301.5034
        43.2504         29.7504
  24581516.9374    9303201.19349   7240762.21546                  24581515.0934
        38.5004         19.5004
  20661790.1424   -2314064.84049  -1798210.84848                  20661786.0134
        50.7504         42.0004
 04  6 30 16 45 15.0000000  0  7G 3G15G18G21G14G16G22
  22052715.3464   -7121014.95749  -5546476.15247                  22052713.6274
        48.0004         34.0004
  20626802.2374   -4560059.35249  -3547831.52048                  20626799.8314
        48.2504         40.0004
  20853610.4724    4891931.84849   3805238.31648                  20853607.3024
        50.2504         40.0004
  21053855.1394    5028229.76649   3909741.97347                  21053852.7754
        50.7504         39.0004
  22957157.7394   -7584589.37949  -5901224.70347                  22957156.5184
        43.5004         30.5004
  24589982.2134    9347689.70749   7275428.52346                  24589981.3974
        37.0004         19.5004
  20662360.5554   -2311068.47749  -1795876.01648                  20662356.4744
        49.0004         42.0004
